GFSSE_con_mlcape_000.txt.gz
CAPE
2 116 515 875 1073 1237 1493 1625 1896 1825 1523 1323 1074 983 907 782 598 329 202 127 37 28 85 23 9 4 330 630 311 151 111 313 408 651 561 325 264 363 397 567 714 1051 924
2 24 247 697 992 1234 1540 1411 1777 1940 1807 1533 1235 1092 896 675 385 148 71 46 49 149 179 91 156 396 384 508 372 258 192 302 328 431 522 557 542 635 742 930 994 703 749
197 61 159 379 889 1278 1389 1545 1413 1753 1824 1662 1478 1305 1098 873 622 387 302 306 79 99 94 104 347 516 535 375 176 154 162 134 192 411 673 632 492 528 327 495 651 775 658
364 267 222 357 731 1006 1072 1200 1319 1451 1427 1520 1546 1462 1383 1196 1060 931 647 200 54 22 182 301 133 27 54 31 36 1 198 296 171 168 327 550 734 527 456 128 426 757 481
499 455 354 277 568 680 615 694 703 900 1177 1382 1404 1506 1544 1337 1185 1029 453 221 102 174 312 365 460 185 27 5 0 0 151 181 205 225 216 427 512 759 720 87 691 488 398
616 552 452 271 328 538 630 677 691 669 716 936 1418 1569 1490 1372 1127 1141 520 256 328 274 383 641 281 480 31 0 4 113 312 214 262 309 379 550 651 650 941 203 406 539 349
692 750 720 597 464 428 602 710 728 931 896 985 1069 1315 1464 1268 968 387 170 385 492 445 531 555 760 358 121 26 38 81 158 21 239 537 553 551 359 962 964 315 194 473 368
949 941 830 742 587 449 436 447 523 707 898 986 848 788 892 1128 1006 934 782 720 511 266 84 40 17 138 0 0 22 74 25 54 317 739 725 802 577 545 960 502 23 196 305
1395 1249 1062 1029 766 521 287 306 343 537 814 996 823 627 458 471 680 594 455 401 320 310 322 365 168 15 175 209 92 143 382 317 474 575 389 445 405 387 851 831 267 259 246
1868 1614 1314 1220 900 512 161 351 262 317 636 889 761 503 331 247 148 85 68 112 85 78 93 110 201 252 273 180 136 129 117 164 161 153 175 206 366 464 776 663 506 520 520
1755 1978 1643 1538 1215 660 281 529 472 481 492 712 815 552 334 134 34 10 0 0 0 0 0 0 0 1 3 0 0 0 0 0 0 0 10 126 248 417 768 485 558 413 486
961 1024 1051 1406 1406 1053 702 770 684 649 638 625 607 666 455 118 4 0 0 0 0 0 0 0 0 0 0 0 0 0 0 0 0 0 0 0 115 228 451 581 418 311 301
178 40 41 82 324 705 623 715 848 664 660 643 439 333 199 34 0 0 0 0 0 0 0 0 0 0 0 0 0 0 0 0 0 0 0 4 20 146 281 410 246 292 333
0 0 0 0 222 238 372 918 824 564 634 387 153 27 0 0 0 0 0 0 0 0 0 0 0 0 0 0 0 0 0 0 0 0 0 0 4 50 330 368 293 207 236
0 0 0 0 0 78 0 0 7 7 108 7 0 0 0 0 0 0 0 0 0 0 0 0 0 0 0 0 0 0 0 0 0 0 0 0 0 1 42 194 334 388 396
0 0 0 0 0 0 0 0 0 0 0 0 0 0 0 0 0 0 0 0 0 0 0 0 0 0 0 0 0 0 1 0 0 0 0 0 0 0 0 0 27 197 312
0 0 0 0 0 0 0 0 0 0 0 0 0 0 0 0 0 0 0 0 0 0 0 0 0 0 0 0 0 0 0 0 0 0 0 0 0 1 1 0 0 19 31
0 0 0 0 0 0 0 0 0 0 0 0 0 0 0 0 0 0 0 0 0 0 0 0 0 0 0 0 0 0 0 0 0 0 0 0 0 0 3 11 6 17 21
0 0 0 0 0 0 0 0 0 0 0 0 0 0 0 0 0 0 0 0 0 0 0 0 0 0 0 0 0 0 0 0 0 0 0 0 0 0 0 12 8 38 34
0 0 0 0 0 0 0 0 0 0 0 0 0 0 0 0 0 0 0 0 0 0 0 0 0 0 0 0 0 0 0 0 0 0 0 0 0 0 0 0 2 19 17
0 0 0 0 0 0 0 0 0 0 0 0 0 0 0 0 0 0 0 0 0 0 0 0 0 0 0 0 0 0 0 0 0 0 0 0 0 0 0 0 0 0 39
0 0 0 0 0 0 0 0 0 0 0 0 0 0 0 0 0 0 0 0 0 0 0 0 0 0 0 0 0 0 0 0 0 0 0 0 0 0 0 0 0 1 0
0 0 0 0 0 0 0 0 0 0 0 0 0 0 0 0 0 0 0 0 0 0 0 0 0 0 0 0 0 0 0 0 0 0 0 0 0 0 0 0 0 0 9
0 0 0 0 0 0 0 0 0 0 0 0 0 0 0 0 0 0 0 0 0 0 0 0 0 0 0 0 0 0 0 0 0 0 0 0 0 0 0 0 0 0 0
0 0 0 0 0 0 0 0 0 0 0 0 0 0 0 0 0 0 0 0 0 0 0 0 0 0 0 0 0 0 0 0 0 0 0 0 0 0 0 0 0 0 0
0 0 0 0 0 0 0 0 0 0 0 0 0 0 0 0 0 0 0 0 0 0 0 0 0 0 0 0 0 0 0 0 0 0 0 0 0 0 0 0 0 0 0

GFSSE_con_mlcape_003.txt.gz
CAPE
6 261 760 1022 1297 1493 1682 1842 1670 1519 1378 1340 1130 1049 1136 902 648 569 407 341 304 455 481 408 309 374 602 444 332 100 15 66 659 727 224 256 108 428 313 558 481 713 871
24 345 780 1045 1442 1520 1740 1983 1942 1681 1528 1373 1197 970 804 806 680 438 405 335 402 459 190 216 338 693 850 638 533 261 101 105 114 446 710 635 334 955 483 457 569 716 773
17 222 504 960 1301 1524 1466 1881 2037 1906 1761 1482 1301 1045 856 625 428 329 455 227 172 148 158 372 539 905 767 370 258 287 253 220 298 292 471 363 483 436 603 569 619 603 593
135 156 372 746 954 1104 1288 1420 1593 1734 1779 1680 1625 1489 1319 1146 1020 1100 689 475 187 86 272 171 171 662 679 626 483 266 172 194 298 436 481 396 657 419 513 378 758 616 480
230 184 322 537 710 842 960 1063 1169 1327 1442 1611 1737 1758 1623 1479 1286 1148 691 271 70 90 213 282 283 174 85 33 97 121 157 126 109 247 332 447 580 771 667 602 358 575 665
311 322 275 492 521 476 512 593 600 703 1038 1249 1334 1485 1489 1350 1066 1014 460 119 234 262 314 376 339 504 316 38 5 131 59 310 233 180 343 520 703 776 1063 706 337 734 577
520 586 412 320 352 438 487 489 469 716 912 1091 1433 1258 1263 1173 916 412 238 477 435 374 424 510 889 565 261 91 55 2 29 67 21 139 304 454 547 582 784 789 217 604 476
563 643 588 459 294 225 379 460 552 700 831 837 838 1030 1131 832 685 590 476 482 562 365 179 147 89 71 104 2 0 5 67 10 3 220 313 409 544 656 670 757 245 531 559
937 860 786 678 490 366 257 328 495 632 770 745 509 466 535 546 544 420 384 404 339 291 352 339 340 95 5 299 179 176 110 205 143 199 250 374 430 487 476 689 365 353 581
1131 1008 977 886 695 323 203 297 299 481 706 706 513 386 240 258 277 179 114 113 54 35 1 0 0 24 72 46 12 0 1 34 21 13 9 103 258 435 459 588 651 168 280
1534 1222 1138 1106 836 348 111 232 284 365 521 743 569 440 273 109 24 0 0 0 0 0 0 0 0 0 0 0 0 0 0 0 0 0 0 0 54 349 609 398 693 384 253
1438 1509 1341 1290 1089 659 305 464 345 316 424 627 683 387 181 30 3 0 0 0 0 0 0 0 0 0 0 0 0 0 0 0 0 0 0 0 0 119 498 474 470 404 324
1288 1361 1212 1123 1166 921 773 567 445 366 381 363 364 345 130 17 0 0 0 0 0 0 0 0 0 0 0 0 0 0 0 0 0 0 0 0 0 8 251 422 348 350 313
552 134 42 90 263 199 413 472 583 488 352 344 197 43 0 0 0 0 0 0 0 0 0 0 0 0 0 0 0 0 0 0 0 0 0 0 0 0 3 169 429 408 262
14 0 0 0 43 1 48 146 309 245 371 253 16 0 0 0 0 0 0 0 0 0 0 0 0 0 0 0 0 0 0 0 0 0 0 0 0 2 21 47 200 381 449
0 0 0 0 0 0 0 0 0 0 17 0 0 0 0 0 0 0 0 0 0 0 0 0 0 0 0 0 0 0 0 0 0 0 0 0 0 0 0 16 27 47 143
0 0 0 0 0 0 0 0 0 0 0 0 0 0 0 0 0 0 0 0 0 0 0 0 0 0 0 0 0 0 0 0 0 0 0 0 0 0 0 0 4 54 31
0 0 0 0 0 0 0 0 0 0 0 0 0 0 0 0 0 0 0 0 0 0 0 0 0 0 0 0 0 0 0 0 0 0 0 0 0 0 0 0 0 1 27
0 0 0 0 0 0 0 0 0 0 0 0 0 0 0 0 0 0 0 0 0 0 0 0 0 0 0 0 0 0 0 0 0 0 0 0 0 0 0 0 0 0 0
0 0 0 0 0 0 0 0 0 0 0 0 0 0 0 0 0 0 0 0 0 0 0 0 0 0 0 0 0 0 0 0 0 0 0 0 0 0 0 0 0 0 0
0 0 0 0 0 0 0 0 0 0 0 0 0 0 0 0 0 0 0 0 0 0 0 0 0 0 0 0 0 0 0 0 0 0 0 0 0 0 0 0 0 0 0
0 0 0 0 0 0 0 0 0 0 0 0 0 0 0 0 0 0 0 0 0 0 0 0 0 0 0 0 0 0 0 0 0 0 0 0 0 0 0 0 0 0 0
0 0 0 0 0 0 0 0 0 0 0 0 0 0 0 0 0 0 0 0 0 0 0 0 0 0 0 0 0 0 0 0 0 0 0 0 0 0 0 0 0 0 0
0 0 0 0 0 0 0 0 0 0 0 0 0 0 0 0 0 0 0 0 0 0 0 0 0 0 0 0 0 0 0 0 0 0 0 0 0 0 0 0 0 0 0
0 0 0 0 0 0 0 0 0 0 0 0 0 0 0 0 0 0 0 0 0 0 0 0 0 0 0 0 0 0 0 0 0 0 0 0 0 0 0 0 0 0 0
0 0 0 0 0 0 0 0 0 0 0 0 0 0 0 0 0 0 0 0 0 0 0 0 0 0 0 0 0 0 0 0 0 0 0 0 0 0 0 0 0 0 0

GFSSE_con_mlcape_006.txt.gz
CAPE
36 444 781 1065 1266 1268 1213 1427 1327 1284 1231 1334 1276 1199 1220 1236 1094 908 872 848 1027 941 766 713 705 735 966 770 467 69 288 657 464 249 151 258 351 596 497 478 599 786 871
72 548 845 1200 1376 1699 1554 1616 1455 1439 1402 1276 1179 1271 1176 995 861 991 714 528 484 349 189 364 459 886 1020 819 472 205 95 99 534 518 85 244 367 724 671 451 442 639 579
98 469 771 1143 1299 1566 1749 1863 1696 1575 1596 1411 1222 970 972 938 764 939 700 370 268 191 227 450 465 1047 1346 725 521 395 265 307 253 448 651 486 596 938 765 624 700 664 756
112 327 704 940 1118 1301 1582 1949 1920 1913 1828 1725 1617 1440 1272 1119 1049 1024 785 666 399 285 281 418 321 1187 1251 998 793 549 488 457 523 553 509 436 475 621 955 689 817 748 604
119 266 614 832 882 1027 1149 1336 1457 1687 1746 1792 1753 1785 1742 1627 1474 1326 830 329 166 227 200 377 678 726 557 185 89 267 155 227 389 376 541 652 737 942 780 745 553 1011 613
131 164 460 371 409 488 526 529 772 1015 1193 1271 1400 1624 1656 1463 1077 832 503 190 400 433 530 746 766 802 694 446 131 105 210 85 139 162 215 465 744 722 951 781 357 609 861
146 202 331 354 366 381 366 319 475 685 861 986 1180 1323 1347 1208 877 384 119 398 480 783 664 508 541 468 590 393 13 0 20 80 1 34 131 288 405 624 885 943 613 367 578
268 338 305 291 319 446 467 399 481 580 712 811 969 1177 1199 916 782 705 652 635 593 633 593 544 445 206 88 40 174 84 2 2 93 76 180 157 288 313 592 660 559 333 353
504 462 341 318 269 257 287 315 389 524 544 541 535 620 638 564 511 377 284 286 199 192 87 95 158 320 344 185 79 24 56 130 60 30 87 112 183 327 400 637 556 365 252
589 579 564 432 290 137 121 191 269 352 552 549 412 283 194 231 194 113 26 42 23 12 4 0 0 0 0 0 0 0 0 0 0 0 0 0 20 200 491 427 533 502 308
903 772 733 611 437 59 11 127 152 268 439 517 433 260 108 15 0 0 0 0 0 0 0 0 0 0 0 0 0 0 0 0 0 0 0 0 0 62 355 578 416 532 426
1159 1091 865 857 695 315 54 131 100 131 253 490 463 206 26 0 0 0 0 0 0 0 0 0 0 0 0 0 0 0 0 0 0 0 0 0 0 1 114 359 363 446 404
1160 1306 1090 964 864 632 388 186 112 84 102 198 337 182 23 1 0 0 0 0 0 0 0 0 0 0 0 0 0 0 0 0 0 0 0 0 0 0 2 42 203 323 244
1053 1180 1131 740 449 364 379 386 268 214 120 144 93 64 20 0 0 0 0 0 0 0 0 0 0 0 0 0 0 0 0 0 0 0 0 0 0 0 0 7 57 181 268
660 732 202 24 4 32 84 143 169 294 260 164 106 7 0 0 0 0 0 0 0 0 0 0 0 0 0 0 0 0 0 0 0 0 0 0 0 0 0 0 17 87 117
109 106 0 0 0 0 0 0 3 15 13 31 11 0 0 0 0 0 0 0 0 0 0 0 0 0 0 0 0 0 0 0 0 0 0 0 0 0 0 0 0 3 131
0 0 0 0 0 0 0 0 0 0 0 0 0 0 0 0 0 0 0 0 0 0 0 0 0 0 0 0 0 0 0 0 0 0 0 0 0 0 0 0 0 0 0
0 0 0 0 0 0 0 0 0 0 0 0 0 0 0 0 0 0 0 0 0 0 0 0 0 0 0 0 0 0 0 0 0 0 0 0 0 0 0 0 0 0 0
0 0 0 0 0 0 0 0 0 0 0 0 0 0 0 0 0 0 0 0 0 0 0 0 0 0 0 0 0 0 0 0 0 0 0 0 0 0 0 0 0 0 0
0 0 0 0 0 0 0 0 0 0 0 0 0 0 0 0 0 0 0 0 0 0 0 0 0 0 0 0 0 0 0 0 0 0 0 0 0 0 0 0 0 0 0
0 0 0 0 0 0 0 0 0 0 0 0 0 0 0 0 0 0 0 0 0 0 0 0 0 0 0 0 0 0 0 0 0 0 0 0 0 0 0 0 0 0 0
0 0 0 0 0 0 0 0 0 0 0 0 0 0 0 0 0 0 0 0 0 0 0 0 0 0 0 0 0 0 0 0 0 0 0 0 0 0 0 0 0 0 0
0 0 0 0 0 0 0 0 0 0 0 0 0 0 0 0 0 0 0 0 0 0 0 0 0 0 0 0 0 0 0 0 0 0 0 0 0 0 0 0 0 0 0
0 0 0 0 0 0 0 0 0 0 0 0 0 0 0 0 0 0 0 0 0 0 0 0 0 0 0 0 0 0 0 0 0 0 0 0 0 0 0 0 0 0 0
0 0 0 0 0 0 0 0 0 0 0 0 0 0 0 0 0 0 0 0 0 0 0 0 0 0 0 0 0 0 0 0 0 0 0 0 0 0 0 0 0 0 0
0 0 0 0 0 0 0 0 0 0 0 0 0 0 0 0 0 0 0 0 0 0 0 0 0 0 0 0 0 0 0 0 0 0 0 0 0 0 0 0 0 0 0

GFSSE_con_mlcape_009.txt.gz
CAPE
79 469 690 881 955 1136 1276 1161 1034 995 1006 1257 1285 1350 1347 1352 1180 1026 863 797 856 547 414 626 603 781 1013 923 683 187 655 907 594 456 493 852 875 821 786 939 921 1003 623
161 601 781 1078 1266 1281 1356 1269 1160 1119 1125 1224 1317 1244 1264 1152 1116 973 707 582 372 191 293 462 467 800 1089 1146 748 506 476 717 1013 747 551 706 634 920 790 824 850 1048 738
208 592 886 1050 1234 1336 1510 1480 1377 1409 1367 1184 1234 1252 1125 1006 1130 1003 667 512 439 416 432 515 401 1342 1631 1360 1027 845 678 693 727 893 930 667 534 1037 943 664 743 870 912
150 477 775 1006 1159 1563 1758 1715 1699 1736 1658 1517 1291 1103 1056 1083 962 774 808 589 436 403 360 592 947 847 862 544 420 445 471 402 560 691 719 639 709 1334 1174 685 845 760 811
81 408 740 824 1016 1196 1488 1815 1923 1955 1921 1925 1845 1814 1638 1481 1258 1189 802 319 300 422 592 820 841 1002 831 609 261 121 267 212 166 364 762 672 824 995 1154 1011 647 904 804
62 284 494 640 817 907 1022 1162 1333 1414 1447 1523 1700 1706 1637 1462 1123 790 483 295 548 693 919 849 995 799 915 699 329 94 94 208 63 343 557 649 814 738 1038 1215 806 447 736
47 251 437 321 358 445 510 511 522 596 753 900 1020 1059 1105 945 527 216 109 305 627 794 754 687 471 251 117 35 53 18 1 58 162 173 185 492 443 388 586 639 778 614 382
24 140 276 334 344 298 283 312 370 477 526 540 600 830 930 761 647 544 499 452 394 227 153 198 362 455 448 440 324 241 235 139 290 370 381 373 339 447 515 423 468 581 472
203 142 258 305 259 243 196 167 266 352 384 366 367 410 400 404 327 179 117 137 96 57 33 18 42 82 68 8 0 0 1 24 262 193 95 167 66 260 365 382 365 417 379
312 302 283 302 232 124 158 99 148 212 305 291 209 113 64 82 54 13 0 0 0 0 0 0 0 0 0 0 0 0 0 0 0 9 9 0 0 169 235 341 405 432 452
460 501 508 410 287 117 46 143 120 194 331 337 280 105 54 55 10 0 0 0 0 0 0 0 0 0 0 0 0 0 0 0 0 0 0 0 0 7 144 159 288 413 518
772 775 681 637 592 246 13 173 188 203 444 640 592 364 155 57 1 0 0 0 0 0 0 0 0 0 0 0 0 0 0 0 0 0 0 0 0 0 17 71 164 331 394
1023 1083 857 873 833 530 232 235 216 163 240 329 508 444 157 44 11 0 0 0 0 0 0 0 0 0 0 0 0 0 0 0 0 0 0 0 0 0 0 23 97 169 311
1131 1305 1301 1028 891 780 622 527 337 309 244 290 289 269 246 109 6 0 0 0 0 0 0 0 0 0 0 0 0 0 0 0 0 0 0 0 0 0 0 0 0 71 144
1047 1165 1359 1198 662 189 83 272 363 361 343 381 316 217 128 52 0 0 0 0 0 0 0 0 0 0 0 0 0 0 0 0 0 0 0 0 0 0 0 0 0 0 22
624 818 843 339 13 3 0 24 77 167 286 238 245 237 114 25 0 0 0 0 0 0 0 0 0 0 0 0 0 0 0 0 0 0 0 0 0 0 0 0 0 0 0
105 137 254 0 0 0 0 0 0 0 0 0 1 18 15 1 0 0 0 0 0 0 0 0 0 0 0 0 0 0 0 0 0 0 0 0 0 0 0 0 0 0 0
0 0 0 0 0 0 0 0 0 0 0 0 0 0 0 0 0 0 0 0 0 0 0 0 0 0 0 0 0 0 0 0 0 0 0 0 0 0 0 0 0 0 0
0 0 0 0 0 0 0 0 0 0 0 0 0 0 0 0 0 0 0 0 0 0 0 0 0 0 0 0 0 0 0 0 0 0 0 0 0 0 0 0 0 0 0
0 0 0 0 0 0 0 0 0 0 0 0 0 0 0 0 0 0 0 0 0 0 0 0 0 0 0 0 0 0 0 0 0 0 0 0 0 0 0 0 0 0 0
0 0 0 0 0 0 0 0 0 0 0 0 0 0 0 0 0 0 0 0 0 0 0 0 0 0 0 0 0 0 0 0 0 0 0 0 0 0 0 0 0 0 0
0 0 0 0 0 0 0 0 0 0 0 0 0 0 0 0 0 0 0 0 0 0 0 0 0 0 0 0 0 0 0 0 0 0 0 0 0 0 0 0 0 0 0
0 0 0 0 0 0 0 0 0 0 0 0 0 0 0 0 0 0 0 0 0 0 0 0 0 0 0 0 0 0 0 0 0 0 0 0 0 0 0 0 0 0 0
0 0 0 0 0 0 0 0 0 0 0 0 0 0 0 0 0 0 0 0 0 0 0 0 0 0 0 0 0 0 0 0 0 0 0 0 0 0 0 0 0 0 0
0 0 0 0 0 0 0 0 0 0 0 0 0 0 0 0 0 0 0 0 0 0 0 0 0 0 0 0 0 0 0 0 0 0 0 0 0 0 0 0 0 0 0
0 0 0 0 0 0 0 0 0 0 0 0 0 0 0 0 0 0 0 0 0 0 0 0 0 0 0 0 0 0 0 0 0 0 0 0 0 0 0 0 0 0 0

GFSSE_con_mlcape_012.txt.gz
CAPE
166 606 568 790 911 1035 978 863 856 907 1077 1167 1263 1331 1331 1283 1157 1010 895 737 613 490 358 543 593 856 1039 1095 977 658 676 1019 889 692 843 1000 1126 1183 1184 1223 1060 1165 869
246 689 665 904 1061 1099 1117 1019 961 1016 1161 1253 1382 1405 1406 1293 1118 878 754 595 470 396 536 633 547 1098 1455 1515 1161 928 819 790 1100 1029 628 657 174 898 1182 1078 944 1145 875
286 730 940 983 1233 1300 1303 1234 1199 1195 1157 1401 1426 1212 1184 1291 1150 887 704 545 477 521 573 757 906 1479 1350 984 788 742 713 685 770 778 746 455 488 830 1359 1005 934 1032 1004
312 683 969 957 1289 1539 1512 1495 1584 1698 1534 1367 1276 1270 1278 1248 1141 1101 792 514 544 653 739 823 1122 1262 1047 660 421 355 520 445 488 457 785 807 510 810 1553 1272 972 985 1100
200 492 765 837 1013 1412 1631 1687 1759 1699 1651 1577 1589 1599 1502 1344 1105 962 662 359 525 826 1079 1154 1343 1225 921 630 364 216 283 326 294 291 1024 997 802 840 789 1191 907 678 786
56 264 450 613 743 867 956 1049 1166 1283 1333 1398 1488 1558 1488 1293 943 365 201 314 443 705 690 688 586 471 451 446 262 136 160 239 163 663 943 897 799 803 677 838 905 809 888
54 215 234 361 358 347 403 459 581 664 687 789 958 1024 1035 625 398 350 314 481 582 550 433 495 436 295 194 337 309 249 126 63 361 684 656 814 1112 775 712 774 766 733 545
70 213 160 74 139 227 211 172 220 268 298 414 595 727 649 478 335 284 248 224 192 96 96 148 356 428 342 193 74 86 234 207 576 888 894 805 547 496 744 786 606 465 531
46 92 265 276 261 110 101 116 206 286 257 215 245 261 235 222 131 64 48 73 56 26 7 1 2 6 2 0 0 0 0 0 640 682 561 485 187 321 621 569 416 354 476
272 249 469 612 468 511 388 0 45 145 212 181 116 29 7 20 3 0 0 0 0 0 0 0 0 0 0 0 0 0 0 0 123 358 398 189 1 189 331 263 197 118 200
582 776 882 855 742 571 343 305 38 33 152 112 258 97 166 278 252 39 0 0 0 0 0 0 0 0 0 0 0 0 0 0 0 1 16 0 0 35 154 267 284 115 149
802 1020 1186 1244 1121 825 136 493 497 449 492 734 814 915 559 575 388 6 0 0 0 0 0 0 0 0 0 0 0 0 0 0 0 0 1 0 0 5 71 120 158 160 181
683 1048 1270 1560 1550 1143 376 326 235 232 341 534 1036 1099 755 642 432 258 115 0 0 0 0 0 0 0 0 0 0 0 0 0 0 0 0 0 0 0 0 0 17 162 236
491 1097 1500 1631 1683 1520 602 301 276 282 302 400 521 1099 848 516 368 272 0 0 0 0 0 0 0 0 0 0 0 0 0 0 0 0 0 0 0 0 0 0 0 0 121
938 1357 1795 1937 1808 1090 720 283 474 517 319 496 460 400 731 351 143 47 0 0 0 0 0 0 0 0 0 0 0 0 0 0 0 0 0 0 0 0 0 0 0 0 0
1055 1260 1818 2049 1682 399 133 321 204 257 211 257 76 50 367 347 29 0 0 0 0 0 0 0 0 0 0 0 0 0 0 0 0 0 0 0 0 0 0 0 0 0 0
693 876 1497 1661 693 227 88 24 2 0 3 0 0 22 67 104 29 23 0 0 0 0 0 0 0 0 0 0 0 0 0 0 0 0 0 0 0 0 0 0 0 0 0
89 315 874 710 219 117 13 1 1 0 1 0 0 0 4 11 19 0 0 0 0 0 0 0 0 0 0 0 0 0 0 0 0 0 0 0 0 0 0 0 0 0 0
0 41 455 479 77 24 9 4 10 18 13 0 0 0 0 0 1 2 0 0 0 0 0 0 0 0 0 0 0 0 0 0 0 0 0 0 0 0 0 0 0 0 0
0 64 291 136 26 8 0 0 0 0 0 0 0 0 0 0 0 0 0 0 0 0 0 0 0 0 0 0 0 0 0 0 0 0 0 0 0 0 0 0 0 0 0
0 2 4 0 0 0 0 0 0 0 0 0 0 0 0 0 0 0 0 0 0 0 0 0 0 0 0 0 0 0 0 0 0 0 0 0 0 0 0 0 0 0 0
0 0 0 0 0 0 0 0 0 0 0 0 0 0 0 0 0 0 0 0 0 0 0 0 0 0 0 0 0 0 0 0 1 0 0 0 0 0 0 0 0 0 0
0 0 0 0 0 0 0 0 0 0 0 0 0 0 0 0 0 0 0 0 0 0 0 0 0 0 0 2 2 0 0 7 22 12 0 0 0 0 0 0 0 0 0
0 0 0 0 0 0 0 0 0 0 0 0 0 0 0 0 0 0 0 0 0 0 0 0 0 0 0 0 9 25 5 0 3 22 0 0 0 0 0 0 0 0 0
0 0 0 0 0 0 0 0 0 0 0 0 0 0 0 0 0 0 0 0 0 0 0 0 0 0 0 7 8 13 12 9 6 0 6 2 0 0 0 0 0 0 0
0 0 0 0 0 0 0 0 0 0 0 0 0 0 0 0 0 0 0 0 0 0 0 0 1 2 1 0 0 0 0 0 0 0 0 1 14 0 0 0 0 0 0

GFSSE_con_mlcape_018.txt.gz
CAPE
439 422 466 579 769 737 650 682 774 967 1030 1088 1070 1032 991 886 819 733 712 678 709 805 924 974 874 1623 1531 1209 992 877 778 566 706 917 767 300 277 649 671 948 896 710 449
561 572 630 788 877 804 731 801 921 975 1041 1140 1130 1058 952 853 787 777 598 567 644 733 836 1040 1125 1203 1111 815 646 688 744 592 538 569 503 200 306 893 480 670 846 161 141
511 704 781 892 924 903 935 976 944 1054 1124 1069 1100 1102 981 957 878 645 523 540 671 901 1060 1029 1243 1217 898 616 446 439 552 590 505 454 312 115 624 1016 755 700 985 878 814
749 763 941 983 1028 1038 1129 1170 1087 997 957 934 1025 1067 1029 1046 842 608 508 520 686 920 998 1086 1212 1105 776 653 524 349 270 319 402 382 243 348 900 795 818 511 1040 1102 882
582 650 828 1020 1090 1154 1230 1240 1131 1083 1090 1179 1272 1344 1192 1028 607 328 288 336 620 792 814 713 496 309 253 216 212 251 228 180 125 99 295 599 818 494 212 596 1017 964 676
321 390 418 568 726 784 820 903 908 938 963 1056 1103 1067 861 434 161 179 349 462 370 293 328 319 261 215 230 236 245 251 245 145 31 80 303 548 703 801 662 589 726 925 1054
67 159 159 141 147 158 193 206 220 280 379 531 600 483 327 253 202 124 90 45 18 4 7 47 70 70 47 16 10 7 14 35 161 311 423 721 719 719 853 895 713 672 828
5 0 0 0 0 0 4 36 54 76 114 275 369 278 145 61 36 26 17 1 0 0 0 0 0 0 0 0 0 0 0 0 0 128 728 642 642 659 691 732 855 716 583
0 0 0 0 0 0 0 0 1 7 7 15 24 21 3 0 0 0 0 0 0 0 0 0 0 0 0 0 0 0 0 0 0 4 273 288 339 341 452 484 445 509 539
0 52 100 188 253 127 3 0 0 0 0 0 3 0 4 42 16 0 1 0 0 0 0 0 0 0 0 0 0 0 0 0 0 0 102 90 122 166 188 267 395 395 288
68 234 162 86 53 274 192 0 11 2 14 73 168 135 100 220 200 20 0 0 0 0 0 0 0 0 0 0 0 0 0 0 0 0 0 0 0 0 15 190 219 194 206
222 281 400 250 97 21 0 68 312 215 316 387 467 452 487 262 271 106 26 0 0 0 0 0 0 0 0 0 0 0 0 0 0 0 0 0 0 0 0 4 36 86 183
113 205 609 842 446 212 40 0 125 171 100 450 723 396 361 178 195 55 26 58 0 0 6 0 2 0 8 0 0 0 0 0 0 0 0 0 0 0 0 0 0 0 19
212 85 1043 1114 1000 450 174 13 28 196 58 284 166 275 91 59 29 0 0 0 0 0 0 0 0 0 0 3 0 0 0 0 0 0 0 0 0 0 0 0 0 0 0
74 114 291 1102 1441 698 122 73 98 125 326 102 158 63 43 37 6 0 0 0 0 0 0 0 0 0 0 0 0 0 0 0 0 0 0 0 0 0 0 0 0 0 0
105 226 481 1008 1652 825 38 57 85 232 192 173 12 0 6 23 35 18 0 0 0 0 0 0 0 0 0 0 0 0 0 0 0 0 0 0 0 0 0 0 0 0 0
229 236 411 289 1477 666 33 33 24 14 0 0 0 0 4 10 7 15 17 6 21 23 15 0 0 0 0 0 0 0 0 0 0 0 0 0 0 0 0 0 0 0 0
102 55 388 921 1538 823 106 25 12 13 2 1 1 8 0 0 11 6 21 16 30 30 26 28 17 1 0 0 0 0 0 0 0 0 0 0 0 0 0 0 0 0 0
0 2 35 1181 1221 783 74 26 23 24 23 40 0 0 0 0 0 0 0 0 2 2 0 0 0 0 1 0 0 0 0 1 0 0 0 0 0 0 0 0 0 0 0
7 56 259 699 383 109 26 8 1 1 0 0 0 0 0 0 0 0 0 0 0 0 0 0 0 0 0 1 4 1 0 0 0 0 0 0 0 0 0 0 0 0 0
79 95 192 11 0 0 0 0 0 0 0 0 0 1 0 0 0 0 0 0 0 0 0 0 0 0 0 0 0 0 0 5 20 0 0 0 0 0 0 0 0 0 0
0 0 0 0 0 0 0 0 0 0 0 0 0 0 0 0 0 0 0 0 0 0 0 0 0 0 0 0 3 8 4 0 0 12 43 4 0 0 0 0 0 0 0
0 0 0 0 0 0 0 0 0 0 0 0 0 0 0 0 0 0 0 0 0 0 0 0 0 0 0 0 0 18 17 2 4 0 0 6 15 32 21 4 0 0 0
0 0 0 0 0 0 0 0 0 0 0 0 0 0 0 0 0 0 0 0 0 0 0 0 1 0 1 0 0 0 0 0 0 0 0 3 44 82 94 38 0 2 1
0 0 0 0 0 0 0 0 0 0 0 0 0 0 0 0 0 0 0 0 0 0 0 12 4 0 0 0 0 0 0 0 0 0 0 0 0 0 0 0 2 0 0
0 0 0 0 0 0 0 0 0 0 0 0 0 0 0 0 0 0 0 0 1 7 0 0 0 0 0 0 0 1 1 2 1 1 1 2 1 0 0 0 0 0 0

GFSSE_con_mlcape_021.txt.gz
CAPE
253 403 565 569 503 491 598 681 745 796 858 903 868 778 698 674 642 583 578 577 644 774 891 994 1272 1240 1125 914 678 682 660 529 428 448 762 924 835 882 918 828 1191 756 714
392 570 596 629 582 601 719 768 830 932 921 889 803 725 688 663 508 426 432 493 660 878 953 1082 1264 1157 931 627 456 431 564 598 511 373 344 223 240 911 543 1052 531 475 731
434 650 678 667 710 789 761 789 831 845 892 904 843 796 793 638 461 385 415 523 589 642 833 1000 1007 1016 809 666 511 367 275 316 422 437 416 127 844 772 428 323 781 667 589
608 701 725 756 854 914 878 804 748 793 864 884 861 862 812 686 489 359 271 277 419 582 616 419 338 214 190 137 123 161 201 198 114 82 47 230 722 785 291 193 559 1081 1142
592 717 805 861 939 963 911 875 901 964 969 991 1025 992 681 348 177 108 157 258 267 245 192 139 91 58 71 98 117 135 117 68 33 27 57 568 891 233 0 0 466 431 934
451 644 743 702 732 720 704 668 645 665 705 711 646 415 257 163 121 126 90 40 32 32 54 68 38 7 0 0 0 0 0 0 0 35 219 663 786 480 274 404 468 689 913
83 198 282 265 218 223 173 139 113 129 157 200 149 132 93 69 38 17 4 0 0 0 0 0 0 0 0 0 0 0 0 0 0 0 111 679 764 809 925 551 526 530 807
0 0 0 0 0 0 0 0 0 11 56 77 52 21 1 0 0 0 0 0 0 0 0 0 0 0 0 0 0 0 0 0 0 0 168 627 780 875 816 500 424 615 622
0 0 0 0 0 0 0 0 0 0 0 0 0 0 0 0 0 0 0 0 0 0 0 0 0 0 0 0 0 0 0 0 0 0 102 271 577 603 616 427 398 417 549
0 0 0 0 0 0 0 0 0 0 0 0 0 0 2 14 0 0 0 0 0 0 0 0 0 0 0 0 0 0 0 0 0 0 0 31 174 286 254 165 125 201 217
1 6 43 10 3 0 0 0 0 0 3 43 53 24 30 60 54 2 3 0 0 0 0 0 0 0 0 0 0 0 0 0 0 0 0 0 0 0 0 0 52 98 149
116 104 54 10 82 51 0 0 0 6 63 177 216 181 165 102 151 58 0 0 0 0 0 0 0 0 0 0 0 0 0 0 0 0 0 0 0 0 0 0 0 6 54
173 235 90 8 9 25 16 4 75 79 181 337 346 121 31 123 15 0 1 0 0 0 0 0 0 0 0 0 0 0 0 0 0 0 0 0 0 0 0 0 0 0 0
210 306 340 41 9 110 0 0 0 29 94 208 203 29 14 7 0 0 0 0 0 0 0 0 0 0 0 0 0 0 0 0 0 0 0 0 0 0 0 0 0 0 0
158 439 611 300 38 42 0 9 27 147 44 47 43 16 0 14 0 0 0 0 0 0 0 0 0 0 0 0 0 0 0 0 0 0 0 0 0 0 0 0 0 0 0
68 500 939 907 753 358 109 30 105 130 45 68 0 0 0 0 5 1 0 0 0 0 0 0 0 0 0 0 0 0 0 0 0 0 0 0 0 0 0 0 0 0 0
24 436 667 250 1 214 39 17 26 111 0 0 0 0 0 0 0 0 0 5 1 0 0 0 0 0 0 0 0 0 0 0 0 0 0 0 0 0 0 0 0 0 0
197 487 703 424 23 330 34 17 5 0 0 0 0 0 0 0 0 0 0 0 0 0 0 0 0 0 0 0 0 0 0 0 0 0 0 0 0 0 0 0 0 0 0
0 286 459 805 398 128 0 0 0 1 0 1 0 0 0 0 0 0 0 0 0 0 0 0 0 0 0 0 0 0 0 0 0 0 0 0 0 0 0 0 0 0 0
16 87 4 4 2 0 0 0 0 0 0 0 0 0 0 0 0 0 0 0 0 0 0 0 0 0 0 0 0 0 0 0 0 0 0 0 0 0 0 0 0 0 0
0 0 0 0 0 0 0 0 0 0 0 0 0 0 0 0 0 0 0 0 0 0 0 0 0 0 0 0 0 0 0 0 0 0 0 0 0 0 0 0 0 0 0
0 0 0 0 0 0 0 0 0 0 0 0 0 0 0 0 0 0 0 0 0 0 0 0 0 0 0 0 0 0 0 0 0 0 0 0 0 0 0 0 0 0 0
0 0 0 0 0 0 0 0 0 0 0 0 0 0 0 0 0 0 0 0 0 0 0 0 0 0 0 0 0 0 0 4 0 0 0 0 0 0 0 0 0 0 0
0 0 0 0 0 0 0 0 0 0 0 0 0 0 0 0 0 0 0 0 0 0 0 0 0 0 0 0 0 0 0 0 1 0 0 0 0 0 0 0 0 0 0
0 0 0 0 0 0 0 0 0 0 0 0 0 0 0 0 0 0 0 0 0 0 0 0 0 0 0 0 0 0 0 0 0 0 0 0 0 0 0 0 0 0 2
0 0 0 0 0 0 0 0 0 0 0 0 0 0 0 0 0 0 0 0 0 0 0 0 0 0 1 0 0 0 0 1 1 1 1 0 0 0 0 0 0 0 0

GFSSE_con_mlcape_024.txt.gz
CAPE
342 567 413 397 454 513 556 608 650 674 709 685 618 597 588 541 496 479 491 585 724 822 985 995 868 748 634 487 352 382 576 612 543 594 691 671 1122 521 574 1057 1189 1185 1185
505 525 442 483 551 575 622 662 708 752 765 702 627 610 517 445 419 438 515 607 706 774 817 886 890 751 585 516 403 314 225 263 330 405 449 413 561 929 468 795 341 946 925
516 535 497 537 602 659 689 779 838 869 791 728 718 630 495 373 327 316 239 197 305 462 514 420 286 298 175 81 43 57 101 124 77 76 77 182 1099 788 273 140 339 574 931
522 572 630 673 641 623 642 703 725 768 763 731 698 594 472 326 163 76 137 232 261 168 116 110 57 44 19 29 26 61 89 51 20 20 16 153 848 915 426 227 333 719 1227
557 652 741 725 688 672 671 692 732 755 780 810 700 440 194 88 92 95 60 32 30 38 35 17 2 0 0 0 0 0 0 0 0 2 150 691 865 591 302 199 392 397 629
546 653 704 725 716 673 629 621 635 657 640 494 280 139 101 93 41 0 0 0 0 0 0 0 0 0 0 0 0 0 0 0 0 0 0 764 583 287 203 38 569 670 459
449 540 532 463 396 351 321 339 278 234 181 75 58 71 42 4 0 0 0 0 0 0 0 0 0 0 0 0 0 0 0 0 0 0 193 517 478 735 829 705 673 568 675
117 173 89 11 0 3 5 5 4 4 0 1 0 0 0 0 0 0 0 0 0 0 0 0 0 0 0 0 0 0 0 0 0 0 0 467 691 832 689 510 537 538 609
0 0 0 0 0 0 0 0 0 0 0 0 0 0 0 0 0 0 0 0 0 0 0 0 0 0 0 0 0 0 0 0 0 0 53 232 533 563 569 440 408 405 597
0 0 0 0 0 0 0 0 0 0 0 0 0 0 1 0 0 0 0 0 0 0 0 0 0 0 0 0 0 0 0 0 0 0 0 12 171 475 456 209 95 188 276
0 0 0 0 0 0 0 0 0 0 0 0 17 38 43 56 12 0 0 0 0 0 0 0 0 0 0 0 0 0 0 0 0 0 0 0 1 99 76 0 0 0 68
0 0 0 0 0 0 0 0 0 0 32 74 99 104 60 73 106 27 9 0 0 0 0 0 0 0 0 0 0 0 0 0 0 0 0 0 0 0 0 0 0 0 0
5 26 5 0 0 0 18 4 0 37 75 151 139 182 115 141 84 62 0 0 0 0 0 0 0 0 0 0 0 0 0 0 0 0 0 0 0 0 0 0 0 0 0
117 69 0 3 77 58 4 19 48 68 166 333 181 2 0 0 0 0 0 0 0 0 0 0 0 0 0 0 0 0 0 0 0 0 0 0 0 0 0 0 0 0 0
189 44 12 16 39 3 0 10 12 53 255 250 45 3 0 0 0 0 0 0 0 0 0 0 0 0 0 0 0 0 0 0 0 0 0 0 0 0 0 0 0 0 0
322 275 157 4 61 13 0 0 48 45 21 74 16 5 0 0 0 0 0 0 0 0 0 0 0 0 0 0 0 0 0 0 0 0 0 0 0 0 0 0 0 0 0
412 620 350 263 145 258 60 14 53 55 33 51 0 0 0 0 0 0 0 0 0 0 0 0 0 0 0 0 0 0 0 0 0 0 0 0 0 0 0 0 0 0 0
546 744 681 201 86 68 174 19 3 6 0 0 0 0 0 0 0 0 0 0 0 0 0 0 0 0 0 0 0 0 0 0 0 0 0 0 0 0 0 0 0 0 0
554 834 668 345 128 118 119 2 0 0 0 0 0 0 0 0 0 0 0 0 0 0 0 0 0 0 0 0 0 0 0 0 0 0 0 0 0 0 0 0 0 0 0
178 456 351 199 164 119 0 0 0 0 0 0 0 0 0 0 0 0 0 0 0 0 0 0 0 0 0 0 0 0 0 0 0 0 0 0 0 0 0 0 0 0 0
0 0 0 0 0 0 0 0 0 0 0 0 0 0 0 0 0 0 0 0 0 0 0 0 0 0 0 0 0 0 0 0 0 0 0 0 0 0 0 0 0 0 0
0 0 0 0 0 0 0 0 0 0 0 0 0 0 0 0 0 0 0 0 0 0 0 0 0 0 0 0 0 0 0 0 0 0 0 0 0 0 0 0 0 0 0
0 0 0 0 0 0 0 0 0 0 0 0 0 0 0 0 0 0 0 0 0 0 0 0 0 0 2 1 0 0 1 0 0 0 0 0 0 0 0 0 0 0 0
0 0 0 0 0 0 0 0 0 0 0 0 0 0 0 0 0 0 0 0 0 0 0 0 0 1 3 2 3 1 0 0 0 0 0 0 0 0 0 0 0 0 0
0 0 0 0 0 0 0 0 0 0 0 0 0 0 0 0 0 0 0 0 0 0 0 0 0 0 0 0 0 0 0 0 0 0 0 0 0 0 0 0 0 0 0
0 0 0 0 0 0 0 0 0 0 0 0 0 0 0 0 0 0 0 0 0 0 0 0 0 0 0 0 0 0 0 1 1 1 1 1 0 0 0 0 0 0 0

GFSSE_con_mlcape_027.txt.gz
CAPE
344 392 324 388 432 473 529 563 567 568 531 522 498 468 415 367 316 322 388 518 645 731 716 652 535 377 296 261 216 237 265 305 282 388 487 494 914 759 692 1160 1392 1317 1032
393 355 395 444 488 527 573 582 598 594 571 546 491 419 371 351 323 343 362 335 387 488 497 437 400 344 135 17 4 35 102 97 53 135 280 511 458 814 706 885 932 904 1043
415 414 454 501 587 619 641 668 678 660 631 619 503 393 333 329 259 119 125 262 279 166 99 83 62 28 12 1 0 7 0 0 0 16 30 244 1003 693 413 360 872 1073 1301
443 444 529 576 594 646 702 740 738 702 641 543 450 427 334 139 76 93 57 9 0 8 13 8 2 0 0 0 0 0 0 0 0 0 31 87 572 920 615 196 342 868 1199
456 530 565 547 565 606 628 639 645 599 587 537 391 205 75 62 34 0 0 0 0 0 0 0 0 0 0 0 0 0 0 0 0 0 0 296 569 864 610 128 121 307 625
537 602 564 513 522 533 553 583 617 612 515 284 111 59 40 0 0 0 0 0 0 0 0 0 0 0 0 0 0 0 0 0 0 0 22 328 436 272 139 64 331 650 501
533 598 558 501 471 486 542 539 480 315 153 55 26 0 0 0 0 0 0 0 0 0 0 0 0 0 0 0 0 0 0 0 0 0 0 242 425 475 598 511 561 571 589
435 443 388 336 288 271 258 157 86 49 4 0 0 0 0 0 0 0 0 0 0 0 0 0 0 0 0 0 0 0 0 0 0 0 2 239 419 492 574 449 288 400 459
166 44 37 11 2 0 0 0 0 0 0 0 0 0 0 0 0 0 0 0 0 0 0 0 0 0 0 0 0 0 0 0 0 0 0 1 175 119 110 99 60 65 185
0 0 0 0 0 0 0 0 0 0 0 0 0 0 0 0 0 0 0 0 0 0 0 0 0 0 0 0 0 0 0 0 0 0 0 0 0 94 132 37 0 0 59
0 0 0 0 0 0 0 0 0 0 0 0 0 4 16 2 0 0 1 0 0 0 0 0 0 0 0 0 0 0 0 0 0 0 0 0 0 6 150 36 28 0 0
0 0 0 0 0 0 0 0 0 0 0 7 37 34 33 57 49 12 0 0 0 0 0 0 0 0 0 0 0 0 0 0 0 0 0 0 0 0 0 0 0 0 0
0 0 0 0 0 0 0 0 0 0 11 61 130 115 98 77 45 58 1 0 0 0 0 0 0 0 0 0 0 0 0 0 0 0 0 0 0 0 0 0 0 0 0
0 0 0 0 0 0 0 0 0 36 93 141 140 114 7 0 0 0 0 0 0 0 0 0 0 0 0 0 0 0 0 0 0 0 0 0 0 0 0 0 0 0 0
7 17 0 1 42 4 2 8 14 58 101 223 247 13 0 0 0 0 0 0 0 0 0 0 0 0 0 0 0 0 0 0 0 0 0 0 0 0 0 0 0 0 0
66 103 21 59 21 0 4 16 29 74 98 189 110 0 0 0 0 0 0 0 0 0 0 0 0 0 0 0 0 0 0 0 0 0 0 0 0 0 0 0 0 0 0
149 159 7 51 0 0 0 0 0 5 22 17 4 0 0 0 0 0 0 0 0 0 0 0 0 0 0 0 0 0 0 0 0 0 0 0 0 0 0 0 0 0 0
274 163 146 136 15 41 2 0 0 0 0 0 0 0 0 0 0 0 0 0 0 0 0 0 0 0 0 0 0 0 0 0 0 0 0 0 0 0 0 0 0 0 0
405 288 98 0 4 0 0 0 0 0 0 0 0 0 0 0 0 0 0 0 0 0 0 0 0 0 0 0 0 0 0 0 0 0 0 0 0 0 0 0 0 0 0
215 92 6 21 7 0 0 0 0 0 0 0 0 0 0 0 0 0 0 0 0 0 0 0 0 0 0 0 0 0 0 0 0 0 0 0 0 0 0 0 0 0 0
0 0 1 0 0 0 0 0 0 0 0 0 0 0 0 0 0 0 0 0 0 0 0 0 0 0 0 0 0 0 0 0 0 0 0 0 0 0 0 0 0 0 0
0 0 0 0 0 0 0 0 0 0 0 0 0 0 0 0 0 0 0 0 0 0 0 0 0 0 0 0 0 0 0 0 0 0 0 0 0 0 0 0 0 0 0
0 0 0 0 0 0 0 0 0 0 0 0 0 0 0 0 0 0 0 0 0 0 0 0 0 0 0 0 0 0 0 0 0 0 0 0 0 0 0 0 0 0 0
0 0 0 0 0 0 0 0 0 0 0 0 0 0 0 0 0 0 0 0 0 0 0 0 0 0 0 0 0 0 0 0 6 0 0 0 0 0 0 0 0 0 0
0 0 0 0 0 0 0 0 0 0 0 0 0 0 0 0 0 0 0 0 0 0 0 0 0 0 0 0 0 0 0 0 0 3 0 0 0 0 0 0 0 0 0
0 0 0 0 0 0 0 0 0 0 0 0 0 0 0 0 0 0 0 0 0 0 0 0 0 0 0 0 0 0 0 7 3 17 10 0 1 0 0 0 0 0 0

GFSSE_con_mlcape_030.txt.gz
CAPE
245 287 417 432 424 448 442 442 436 456 445 466 443 391 343 346 359 364 385 375 374 367 352 285 213 142 70 33 47 61 40 39 59 102 221 262 385 794 744 1182 1438 1264 1227
341 313 426 447 505 519 495 531 501 492 521 417 347 310 261 242 230 125 80 133 209 115 43 19 9 9 9 4 11 0 0 0 0 33 74 331 402 812 650 675 827 1043 1117
350 410 467 520 573 560 563 570 583 564 500 412 349 287 277 191 68 81 61 14 25 12 6 9 5 0 0 0 0 0 0 0 0 0 26 0 424 699 523 257 581 864 971
396 484 540 606 599 625 628 627 565 557 483 394 340 285 109 60 30 0 0 0 0 0 0 0 0 0 0 0 0 0 0 0 0 0 0 33 135 714 744 181 331 718 841
451 524 608 636 682 673 630 552 542 496 428 354 217 74 42 9 0 0 0 0 0 0 0 0 0 0 0 0 0 0 0 0 0 0 0 47 431 447 496 51 0 313 394
488 572 568 551 531 546 543 495 457 427 275 93 21 9 0 0 0 0 0 0 0 0 0 0 0 0 0 0 0 0 0 0 0 0 0 108 298 406 483 515 337 321 420
480 504 461 433 464 466 467 522 459 265 60 0 0 0 0 0 0 0 0 0 0 0 0 0 0 0 0 0 0 0 0 0 0 0 0 73 180 562 733 598 242 219 247
508 500 454 456 453 485 510 366 203 35 0 0 0 0 0 0 0 0 0 0 0 0 0 0 0 0 0 0 0 0 0 0 0 0 0 0 40 231 294 353 187 115 53
448 385 344 365 335 265 164 48 5 0 0 0 0 0 0 0 0 0 0 0 0 0 0 0 0 0 0 0 0 0 0 0 0 0 0 0 0 0 98 125 27 0 0
221 126 64 51 18 0 0 0 0 0 0 0 2 0 0 0 0 0 0 0 0 0 0 0 0 0 0 0 0 0 0 0 0 0 0 0 0 0 0 155 0 0 0
0 0 0 0 0 0 0 0 0 0 0 0 0 4 0 0 0 0 0 0 0 0 0 0 0 0 0 0 0 0 0 0 0 0 0 0 0 0 0 0 0 0 0
0 0 0 0 0 0 0 0 0 0 0 0 13 24 22 24 4 6 2 2 0 0 0 0 0 0 0 0 0 0 0 0 0 0 0 0 0 0 0 0 0 0 0
0 0 0 0 0 0 0 0 0 0 4 28 32 29 31 29 15 9 1 0 0 0 0 0 0 0 0 0 0 0 0 0 0 0 0 0 0 0 0 0 0 0 0
0 0 0 0 0 0 0 0 0 5 36 82 125 145 73 11 0 0 0 0 0 0 0 0 0 0 0 0 0 0 0 0 0 0 0 0 0 0 0 0 0 0 0
0 0 0 0 0 0 0 0 0 19 82 113 183 131 0 0 0 0 0 0 0 0 0 0 0 0 0 0 0 0 0 0 0 0 0 0 0 0 0 0 0 0 0
0 0 0 0 0 0 0 0 0 1 43 96 77 0 0 0 0 0 0 0 0 0 0 0 0 0 0 0 0 0 0 0 0 0 0 0 0 0 0 0 0 0 0
2 2 13 5 0 0 0 0 0 0 0 0 0 0 0 0 0 0 0 0 0 0 0 0 0 0 0 0 0 0 0 0 0 0 0 0 0 0 0 0 0 0 0
9 73 50 3 0 0 0 0 0 0 0 0 0 0 0 0 0 0 0 0 0 0 0 0 0 0 0 0 0 0 0 0 0 0 0 0 0 0 0 0 0 0 0
22 22 1 0 0 0 0 0 0 0 0 0 0 0 0 0 0 0 0 0 0 0 0 0 0 0 0 0 0 0 0 0 0 0 0 0 0 0 0 0 0 0 0
9 2 0 0 0 0 0 0 0 0 0 0 0 0 0 0 0 0 0 0 0 0 0 0 0 0 0 0 0 0 0 0 0 0 0 0 0 0 0 0 0 0 0
12 40 1 0 0 0 0 0 0 0 0 0 0 0 0 0 0 0 0 0 0 0 0 0 0 0 0 0 0 0 0 0 0 0 0 0 0 0 0 0 0 0 0
0 0 0 0 0 0 0 0 0 0 0 0 0 0 0 0 0 0 0 0 0 0 0 0 0 0 0 0 0 0 0 0 0 0 0 0 0 0 0 0 0 0 0
0 0 0 0 0 0 0 0 0 0 0 0 0 0 0 0 0 0 0 0 0 0 0 0 0 0 0 0 0 0 0 0 0 0 0 0 0 0 0 0 0 0 0
0 0 0 0 0 0 0 0 0 0 0 0 0 0 0 0 0 0 0 0 0 0 0 0 0 0 0 0 0 0 0 0 2 1 7 6 0 0 0 0 0 0 0
0 0 0 0 0 0 0 0 0 0 0 0 0 0 0 0 0 0 0 0 0 0 0 0 0 0 0 0 0 0 0 0 0 9 0 4 0 0 0 0 0 0 0
0 0 0 0 0 0 0 0 0 0 0 0 0 0 0 0 0 0 0 0 0 0 0 0 0 0 0 0 0 0 0 0 1 13 6 0 0 0 0 0 0 0 0

GFSSE_con_mlcape_033.txt.gz
CAPE
256 458 370 287 558 561 489 402 362 363 376 401 388 363 365 385 428 380 301 292 233 131 51 23 19 28 42 48 23 5 0 0 0 20 48 265 357 626 671 721 882 1132 1020
385 587 455 371 559 526 473 453 429 481 465 372 317 302 277 241 148 124 156 46 0 0 0 1 0 0 0 0 0 0 0 0 0 0 32 54 442 716 411 332 533 711 834
435 621 557 413 565 537 529 523 543 489 430 362 276 244 130 0 0 0 0 0 0 0 0 0 0 0 0 0 0 0 0 0 0 0 0 166 283 711 602 169 424 647 800
553 641 621 535 621 639 615 593 582 511 370 266 224 36 2 0 0 0 0 0 0 0 0 0 0 0 0 0 0 0 0 0 0 0 87 258 474 495 627 148 9 232 354
638 727 757 668 710 702 657 590 543 403 307 218 94 35 10 0 0 0 0 0 0 0 0 0 0 0 0 0 0 0 0 0 0 0 70 401 577 400 496 590 327 276 308
640 775 746 734 768 723 636 519 424 298 211 92 57 34 10 0 0 0 0 0 0 0 0 0 0 0 0 0 0 0 0 0 0 0 67 298 544 681 634 568 194 128 129
594 762 806 715 707 660 525 475 370 236 87 18 25 10 0 0 0 0 0 0 0 0 0 0 0 0 0 0 0 0 0 0 0 0 0 0 103 215 304 279 53 20 0
590 690 706 572 527 489 512 489 273 72 0 0 0 0 0 0 0 0 0 0 0 0 0 0 0 0 0 0 0 0 0 0 0 0 0 0 0 0 26 182 15 0 0
606 590 591 587 543 540 525 335 92 0 0 0 0 0 0 0 0 0 0 0 0 0 0 0 0 0 0 0 0 0 0 0 0 0 0 0 0 0 0 9 140 0 0
532 566 517 567 572 525 356 109 0 0 0 0 0 0 0 0 0 0 0 0 0 0 0 0 0 0 0 0 0 0 0 0 0 0 0 0 0 0 0 0 0 0 0
412 359 337 289 235 113 73 53 0 0 0 1 11 0 1 5 3 14 0 0 0 0 0 0 0 0 0 0 0 0 0 0 0 0 0 0 0 0 0 0 0 0 0
40 63 17 15 0 0 0 18 14 22 26 53 57 68 58 46 49 46 9 0 0 0 0 0 0 0 0 0 0 0 0 0 0 0 0 0 0 0 0 0 0 0 0
0 0 0 0 0 0 0 0 0 16 35 36 50 66 103 94 97 102 3 0 0 0 0 0 0 0 0 0 0 0 0 0 0 0 0 0 0 0 0 0 0 0 0
0 0 0 0 0 0 0 0 0 0 25 109 176 219 171 67 0 0 0 0 0 0 0 0 0 0 0 0 0 0 0 0 0 0 0 0 0 0 0 0 0 0 0
0 0 0 0 0 0 0 0 0 4 75 109 173 38 0 0 0 0 0 0 0 0 0 0 0 0 0 0 0 0 0 0 0 0 0 0 0 0 0 0 0 0 0
0 0 0 0 0 0 0 0 0 8 59 95 3 0 0 0 0 0 0 0 0 0 0 0 0 0 0 0 0 0 0 0 0 0 0 0 0 0 0 0 0 0 0
0 0 0 0 0 0 0 0 0 0 0 0 0 0 0 0 0 0 0 0 0 0 0 0 0 0 0 0 0 0 0 0 0 0 0 0 0 0 0 0 0 0 0
0 15 6 0 0 0 0 0 0 0 0 0 0 0 0 0 0 0 0 0 0 0 0 0 0 0 0 0 0 0 0 0 0 0 0 0 0 0 0 0 0 0 0
25 12 0 0 0 0 0 0 0 0 0 0 0 0 0 0 0 0 0 0 0 0 0 0 0 0 0 0 0 0 0 0 0 0 0 0 0 0 0 0 0 0 0
9 2 0 0 0 0 0 0 0 0 0 0 0 0 0 0 0 0 0 0 0 0 0 0 0 0 0 0 0 0 0 0 0 0 0 0 0 0 0 0 0 0 0
6 0 0 0 0 10 0 0 0 0 0 0 0 0 0 0 0 0 0 0 0 0 0 0 0 0 0 0 0 0 0 0 0 0 0 0 0 0 0 0 0 0 0
10 0 0 12 0 0 0 0 0 0 0 0 0 0 0 0 0 0 0 0 0 0 0 0 0 0 0 0 0 0 0 0 0 0 0 0 0 0 0 0 0 0 0
10 0 0 0 0 0 0 0 0 0 0 0 0 0 0 0 0 0 0 0 0 0 0 0 0 0 0 0 0 0 0 0 0 0 0 0 0 0 0 0 0 0 0
0 0 0 0 0 0 0 0 0 0 0 0 0 0 0 0 0 0 0 0 0 0 0 0 0 0 0 0 0 0 0 4 1 0 1 7 12 2 0 0 0 1 0
0 0 0 0 0 0 0 0 0 0 0 0 0 0 0 0 0 0 0 0 0 0 0 0 0 0 0 0 0 0 1 2 5 14 1 1 1 6 17 0 0 2 3
0 0 0 0 0 0 0 0 0 0 0 0 0 0 0 0 0 0 0 0 0 0 0 0 0 1 4 0 0 0 2 2 1 10 7 4 0 0 8 11 0 0 0

GFSSE_con_mlcape_036.txt.gz
CAPE
390 436 293 275 308 326 298 281 295 334 338 333 341 373 392 362 297 243 188 91 18 12 24 20 4 0 0 0 0 0 0 0 0 0 30 170 840 661 383 357 524 635 944
432 526 361 398 462 414 378 385 391 395 388 380 353 307 238 177 143 102 9 1 0 0 0 0 0 0 0 0 0 0 0 0 0 0 5 139 542 915 385 214 183 505 870
596 532 459 519 611 543 488 470 472 451 421 366 297 232 133 144 27 0 0 0 0 0 0 0 0 0 0 0 0 0 0 0 0 0 62 165 503 710 345 140 16 327 324
591 619 543 520 618 598 565 583 546 502 395 309 217 77 57 0 0 0 0 0 0 0 0 0 0 0 0 0 0 0 0 0 0 3 88 280 347 450 683 408 278 309 219
672 709 761 656 672 663 661 673 590 468 395 296 84 28 0 0 0 0 0 0 0 0 0 0 0 0 0 0 0 0 0 0 0 0 69 364 483 499 592 148 90 88 35
726 802 759 695 723 721 718 679 536 418 284 101 109 85 0 0 0 0 0 0 0 0 0 0 0 0 0 0 0 0 0 0 0 0 0 12 161 286 339 318 24 0 0
717 1025 945 637 783 716 721 610 449 253 139 162 106 1 0 0 0 0 0 0 0 0 0 0 0 0 0 0 0 0 0 0 0 0 0 0 0 0 0 202 130 0 0
948 880 935 744 816 746 665 490 245 124 112 61 2 0 0 0 0 0 0 0 0 0 0 0 0 0 0 0 0 0 0 0 0 0 0 0 0 0 0 0 69 0 0
929 903 793 784 733 647 526 346 131 59 45 26 0 0 0 0 0 0 0 0 0 0 0 0 0 0 0 0 0 0 0 0 0 0 0 0 0 0 0 0 0 0 0
969 772 494 484 472 418 382 248 46 27 21 22 2 0 0 0 0 0 0 0 0 0 0 0 0 0 0 0 0 0 0 0 0 0 0 0 0 0 0 0 0 0 0
806 455 403 393 374 229 108 143 18 21 43 16 5 0 31 89 83 55 0 0 0 0 0 0 0 0 0 0 0 0 0 0 0 0 0 0 0 0 0 0 0 0 0
416 402 422 335 264 168 10 56 52 19 145 348 302 312 315 434 327 156 4 0 0 0 0 0 0 0 0 0 0 0 0 0 0 0 0 0 0 0 0 0 0 0 0
205 115 106 162 96 13 2 40 54 287 441 532 589 569 660 646 672 516 31 0 0 0 0 0 0 0 0 0 0 0 0 0 0 0 0 0 0 0 0 0 0 0 0
56 14 0 5 28 23 2 76 240 364 506 651 754 848 896 687 294 86 0 0 0 0 0 0 0 0 0 0 0 0 0 0 0 0 0 0 0 0 0 0 0 0 0
0 20 21 0 0 1 35 152 308 510 609 712 800 571 389 281 121 0 0 0 0 0 0 0 0 0 0 0 0 0 0 0 0 0 0 0 0 0 0 0 0 0 0
27 70 166 96 76 40 168 317 391 413 483 550 275 133 39 143 22 0 0 0 0 0 0 0 0 0 0 0 0 0 0 0 0 0 0 0 0 0 0 0 0 0 0
67 174 273 365 294 135 44 44 62 17 30 53 13 0 1 0 0 0 0 0 0 0 0 0 0 0 0 0 0 0 0 0 0 0 0 0 0 0 0 0 0 0 0
156 331 267 51 16 1 0 0 0 0 0 0 0 0 0 0 0 0 0 0 0 0 0 0 0 0 0 0 0 0 0 0 0 0 0 0 0 0 0 0 0 0 0
201 473 207 82 16 0 0 0 0 0 0 0 0 0 0 0 0 0 0 0 0 0 0 0 0 0 0 0 0 0 0 0 0 0 0 0 0 0 0 0 0 0 0
460 458 239 209 0 0 0 0 0 0 0 0 0 0 0 0 0 0 0 0 0 0 0 0 0 0 0 0 0 0 0 0 0 0 0 0 0 0 0 0 0 0 0
491 304 254 16 0 0 0 0 0 0 0 0 0 0 0 0 0 0 0 0 0 0 0 0 0 0 0 0 0 0 0 0 0 0 0 0 0 0 0 0 0 0 0
297 385 104 73 42 3 0 0 0 0 0 0 0 0 0 0 0 0 0 0 0 0 0 0 0 0 0 0 0 0 0 0 0 2 0 0 0 0 0 0 0 0 0
467 346 312 347 179 4 0 0 0 0 0 0 0 0 0 0 0 0 0 0 0 0 0 0 0 0 0 0 1 0 0 0 0 0 0 3 0 0 0 0 0 1 5
351 344 197 34 2 0 0 0 0 0 0 0 0 0 0 0 0 0 0 0 0 0 0 0 0 0 1 2 4 3 10 8 5 2 1 1 3 0 0 0 1 0 1
23 10 0 0 0 0 0 0 0 0 0 0 0 0 0 0 0 0 0 0 0 0 1 2 2 15 12 15 13 8 8 2 0 0 4 3 0 3 1 1 3 4 8
0 0 0 0 0 0 0 0 0 0 0 0 0 0 0 0 0 0 2 0 0 12 23 35 38 32 16 15 10 9 2 4 8 2 7 8 1 0 3 0 3 17 6

GFSSE_con_mlcape_039.txt.gz
CAPE
351 188 224 250 434 412 368 328 277 256 299 350 396 435 422 354 244 100 36 28 21 1 0 0 0 0 0 0 0 0 0 0 0 0 77 734 799 480 124 6 141 411 847
367 271 297 245 262 248 263 240 235 285 384 409 377 331 258 188 45 13 1 0 0 0 0 0 0 0 0 0 0 0 0 0 0 2 56 431 424 372 375 20 90 204 627
462 339 293 272 285 268 294 295 367 401 404 334 272 185 128 0 0 0 0 0 0 0 0 0 0 0 0 0 0 0 0 0 0 9 64 401 441 462 336 414 242 194 476
526 416 466 419 407 406 442 425 446 394 353 289 179 147 0 0 0 0 0 0 0 0 0 0 0 0 0 0 0 0 0 0 0 0 62 197 373 442 229 159 77 0 40
498 562 656 525 520 520 524 503 471 407 310 171 165 50 0 0 0 0 0 0 0 0 0 0 0 0 0 0 0 0 0 0 0 0 29 8 53 161 333 51 0 0 0
466 733 467 511 563 572 578 551 443 326 181 155 82 2 0 0 0 0 0 0 0 0 0 0 0 0 0 0 0 0 0 0 0 0 1 0 0 0 4 307 82 0 0
400 670 626 508 605 646 636 534 345 224 144 132 57 0 0 0 0 0 0 0 0 0 0 0 0 0 0 0 0 0 0 0 0 0 0 0 0 0 0 0 119 5 0
368 614 719 666 711 693 573 418 265 118 100 48 9 0 0 0 0 0 0 0 0 0 0 0 0 0 0 0 0 0 0 0 0 0 0 0 0 0 0 0 0 0 0
546 704 694 775 719 595 481 271 122 49 3 19 20 0 0 0 0 0 0 0 0 0 0 0 0 0 0 0 0 0 0 0 0 0 0 0 0 0 0 0 0 0 0
663 718 616 550 528 486 392 149 44 0 18 15 0 0 0 0 0 0 0 0 0 0 0 0 0 0 0 0 0 0 0 0 0 0 0 0 0 0 0 0 0 0 0
457 350 310 284 309 196 107 100 3 14 44 3 0 0 12 30 47 129 0 0 0 0 0 0 0 0 0 0 0 0 0 0 0 0 0 0 0 0 0 0 0 0 0
309 298 358 312 237 94 11 12 4 32 70 160 144 153 399 245 299 142 0 0 0 0 0 0 0 0 0 0 0 0 0 0 0 0 0 0 0 0 0 0 0 0 0
250 243 219 229 151 19 37 18 32 163 384 480 539 553 678 460 413 340 165 14 21 0 1 0 0 0 0 0 0 0 0 0 0 0 0 0 0 0 0 0 0 1 1
126 59 51 44 35 4 7 64 191 362 450 515 636 757 682 561 580 311 111 44 9 0 0 0 0 0 0 0 0 0 0 0 0 0 0 0 0 0 0 0 0 0 0
54 0 0 0 12 179 185 416 416 593 676 712 732 821 683 493 458 222 98 5 0 0 0 0 0 0 0 0 0 0 0 0 0 0 0 0 0 0 0 0 0 0 0
8 70 14 12 63 199 497 544 531 574 636 683 544 325 225 295 334 155 24 0 0 0 0 0 0 0 0 0 0 0 0 0 0 0 0 0 0 0 0 0 0 0 0
89 248 323 383 365 410 346 268 83 49 70 124 105 78 112 101 15 1 0 0 0 0 0 0 0 0 0 0 0 0 0 0 0 0 0 0 0 0 0 0 0 0 0
403 405 488 458 323 90 16 4 0 0 0 0 0 1 0 0 0 0 0 0 0 0 0 0 0 0 0 0 0 0 0 0 0 0 0 0 0 0 0 0 0 0 0
542 658 433 315 45 0 0 0 0 0 0 0 0 0 0 0 0 0 0 0 0 0 0 0 0 0 0 0 0 0 0 0 0 0 0 0 0 0 0 0 0 0 0
551 649 519 349 157 0 0 0 0 0 0 0 0 0 0 0 0 0 0 0 0 0 0 0 0 0 0 0 0 0 0 0 0 0 0 0 0 0 0 0 0 0 1
771 654 493 308 51 0 0 0 0 0 0 0 0 0 0 0 0 0 0 0 0 0 0 0 0 0 0 0 0 0 0 0 0 0 0 0 0 0 0 0 1 1 1
840 624 583 369 49 224 0 2 1 0 0 0 0 0 0 0 0 0 0 0 0 0 0 0 0 0 0 0 0 0 0 0 0 0 0 0 0 2 0 2 0 2 2
670 539 665 361 335 105 67 0 0 0 0 0 0 0 0 0 0 0 0 0 0 0 0 0 0 0 1 1 1 0 0 0 0 0 0 0 1 2 0 0 0 0 3
714 755 432 224 112 23 0 0 0 0 0 0 0 2 0 0 0 0 0 0 0 0 0 3 5 10 10 9 8 5 6 6 7 2 4 3 0 5 6 3 0 0 0
565 377 188 95 13 0 0 0 0 1 5 1 0 5 0 0 0 0 0 1 0 3 6 14 28 28 35 27 13 9 14 9 9 24 16 19 7 14 19 3 7 3 3
176 92 1 0 1 0 0 0 3 6 0 1 5 0 0 0 0 0 2 4 5 5 4 4 10 13 24 11 11 6 6 11 6 3 6 12 7 1 6 5 7 4 9

GFSSE_con_mlcape_042.txt.gz
CAPE
141 82 322 478 544 486 409 327 239 244 317 348 330 246 175 41 0 0 0 0 0 0 0 0 0 0 0 0 0 0 0 0 0 32 491 452 346 178 58 40 146 336 462
132 169 374 499 471 402 295 242 248 329 333 284 174 149 45 0 0 0 0 0 0 0 0 0 0 0 0 0 0 0 0 0 0 28 229 248 377 314 217 31 84 363 295
208 210 295 395 367 293 298 307 345 350 283 177 127 38 0 0 0 0 0 0 0 0 0 0 0 0 0 0 0 0 0 0 0 0 141 297 293 175 212 59 0 35 77
297 213 280 268 310 334 391 397 417 346 208 134 63 0 0 0 0 0 0 0 0 0 0 0 0 0 0 0 0 0 0 0 0 1 155 93 73 260 123 40 0 0 0
256 393 304 249 302 377 423 463 382 246 131 94 0 0 0 0 0 0 0 0 0 0 0 0 0 0 0 0 0 0 0 0 0 37 0 0 0 0 81 100 0 0 0
485 458 283 292 345 453 480 423 296 165 103 49 0 0 0 0 0 0 0 0 0 0 0 0 0 0 0 0 0 0 0 0 0 0 0 0 0 0 0 1 35 0 0
321 245 245 313 437 486 519 377 213 145 105 37 0 0 0 0 0 0 0 0 0 0 0 0 0 0 0 0 0 0 0 0 0 0 0 0 0 0 0 0 0 0 0
103 142 254 511 538 532 397 286 177 119 52 6 0 0 0 0 0 0 0 0 0 0 0 0 0 0 0 0 0 0 0 0 0 0 4 0 0 0 0 0 0 0 0
67 128 394 495 561 400 246 157 137 75 23 2 1 0 0 0 0 0 0 0 0 0 0 0 0 0 0 0 0 0 0 0 0 0 0 0 0 0 0 0 0 0 0
52 146 357 571 490 304 154 83 72 40 23 7 0 0 0 0 0 0 0 0 0 0 0 0 0 0 0 0 0 0 0 0 0 0 0 0 0 0 0 0 0 0 1
106 282 417 397 307 218 111 95 43 24 8 0 0 0 0 0 17 73 0 0 0 0 0 0 0 0 0 0 0 0 0 0 0 0 0 0 0 0 0 0 5 6 9
110 230 326 340 339 130 28 44 17 6 0 1 8 4 44 267 63 49 0 0 0 0 0 0 0 0 0 0 0 0 0 0 0 0 0 0 0 0 0 0 1 3 4
212 200 170 100 31 17 1 19 20 25 79 290 287 347 411 464 193 63 0 0 0 0 3 0 2 0 0 0 0 0 0 0 0 0 0 0 0 0 0 0 0 0 0
144 158 189 68 0 13 18 58 119 384 441 502 560 541 495 487 459 205 75 54 11 0 0 0 0 0 0 0 0 0 0 0 0 0 0 0 0 0 0 0 0 0 0
11 19 31 8 87 4 125 254 438 423 380 365 618 487 327 413 364 162 42 0 0 0 0 0 0 0 0 0 0 0 0 0 0 0 0 0 0 0 0 0 0 0 0
0 0 3 36 162 314 446 398 311 297 374 360 294 175 195 262 241 105 0 0 0 0 0 0 0 0 0 0 0 0 0 0 0 0 0 0 0 0 0 0 0 0 0
3 0 0 87 396 390 310 114 3 5 17 8 19 35 39 20 0 0 0 0 0 0 0 0 0 0 0 0 0 0 0 0 0 0 0 0 0 0 0 0 0 0 0
142 114 227 431 353 186 15 0 0 0 0 7 1 0 0 0 0 0 0 0 0 0 0 0 0 0 0 0 0 0 0 0 0 0 0 0 0 0 0 0 0 0 0
273 434 484 303 50 4 0 0 0 0 0 0 0 0 0 0 0 0 0 0 0 0 0 0 0 0 0 0 0 0 0 0 0 0 0 0 0 0 0 0 0 0 0
523 445 342 69 0 0 0 0 0 0 0 0 0 0 0 0 0 0 0 0 0 0 0 0 0 0 0 0 0 0 0 0 0 0 0 2 0 0 0 0 0 0 0
687 361 253 112 0 0 0 0 0 0 0 0 0 0 0 0 0 0 0 0 0 0 0 0 0 0 0 0 0 0 0 0 0 0 0 0 0 0 0 0 0 0 0
842 650 337 198 45 3 0 0 0 0 0 0 0 0 0 0 0 0 0 0 0 0 0 0 0 0 0 0 0 0 0 0 0 0 0 0 0 0 0 0 0 0 0
952 548 419 278 78 103 0 7 0 0 0 0 0 0 0 0 0 0 0 0 0 0 0 0 0 0 0 0 0 2 0 0 0 0 0 0 0 0 0 0 1 0 0
944 549 542 410 231 316 40 0 0 0 0 0 0 0 0 0 0 0 0 0 0 0 0 0 0 0 0 0 2 2 0 0 0 0 0 0 0 0 0 0 0 0 0
625 598 683 523 164 19 0 0 0 1 1 1 0 0 0 0 0 0 0 0 0 0 0 0 0 0 2 7 12 1 2 0 0 0 0 0 0 0 0 0 4 0 0
777 768 511 126 44 0 0 0 0 0 0 0 0 0 0 0 0 0 0 0 0 0 0 0 0 0 0 6 13 15 6 4 1 3 0 0 0 0 0 0 0 0 0

GFSSE_con_mlcape_045.txt.gz
CAPE
125 566 624 517 411 514 354 198 213 243 239 187 98 0 0 0 0 0 0 0 0 0 0 0 0 0 0 0 0 0 0 0 43 176 264 250 326 124 43 110 149 138 280
216 538 618 596 453 421 264 248 280 267 186 97 0 0 0 0 0 0 0 0 0 0 0 0 0 0 0 0 0 0 0 0 0 133 75 151 199 198 55 0 35 29 158
289 525 650 526 417 312 278 306 304 228 156 13 0 0 0 0 0 0 0 0 0 0 0 0 0 0 0 0 0 0 0 2 0 22 87 79 131 129 70 0 0 0 0
428 555 550 407 355 319 318 335 264 194 100 0 0 0 0 0 0 0 0 0 0 0 0 0 0 0 0 0 0 0 0 8 35 63 0 0 1 50 61 3 0 0 0
206 440 430 325 346 374 395 326 195 120 19 0 0 0 0 0 0 0 0 0 0 0 0 0 0 0 0 0 0 0 0 0 0 0 0 0 0 0 0 0 0 0 0
182 238 200 236 265 418 368 194 127 46 0 0 0 0 0 0 0 0 0 0 0 0 0 0 0 0 0 0 0 0 0 0 0 0 0 0 0 0 0 0 0 0 0
102 173 118 196 294 403 263 157 84 18 0 0 0 0 0 0 0 0 0 0 0 0 0 0 0 0 0 0 0 0 0 0 0 0 0 0 5 12 10 25 25 0 0
109 116 90 159 335 368 197 117 65 12 0 0 0 0 0 0 0 0 0 0 0 0 0 0 0 0 0 0 0 0 0 0 0 0 0 0 0 0 0 0 0 1 43
0 47 76 160 249 288 134 76 39 27 3 1 0 0 0 0 0 0 0 0 0 0 0 0 0 0 0 0 0 0 0 0 0 0 0 0 0 0 0 0 0 6 26
1 19 55 211 278 186 119 58 33 16 4 0 0 0 0 0 0 0 0 0 0 0 0 0 0 0 0 0 0 0 0 0 0 0 0 0 0 0 0 0 0 4 8
12 68 91 181 174 80 70 57 33 20 0 0 0 0 0 0 0 0 0 0 0 0 0 0 0 0 0 0 0 0 0 0 0 0 0 0 0 0 0 0 0 1 6
44 107 130 157 46 34 27 1 2 1 0 0 0 0 0 0 12 0 0 0 0 0 0 0 0 0 0 0 0 0 0 0 0 0 0 0 0 0 0 0 0 0 1
89 59 145 220 43 0 0 0 0 0 0 0 0 11 8 36 25 0 0 0 0 0 0 0 0 0 0 0 0 0 0 0 0 0 0 0 0 0 0 0 0 0 0
163 113 195 148 0 0 0 0 0 12 44 84 321 255 270 251 131 66 9 3 0 0 0 0 0 0 0 0 0 0 0 0 0 0 0 0 0 0 0 0 0 0 0
108 43 0 0 0 0 0 14 106 263 265 319 222 134 133 200 21 0 0 0 0 0 0 0 0 0 0 0 0 0 0 0 0 0 0 0 0 0 0 0 0 0 0
55 0 0 0 0 156 134 174 229 214 192 137 91 34 29 13 0 0 0 0 0 0 0 0 0 0 0 0 0 0 0 0 0 0 0 0 0 0 0 0 0 0 0
0 0 8 65 212 119 28 8 26 79 79 2 5 7 6 0 0 0 0 0 0 0 0 0 0 0 0 0 0 0 0 0 0 0 0 0 0 0 0 0 0 0 0
0 0 27 223 163 17 0 0 0 0 0 0 0 0 0 0 0 0 0 0 0 0 0 0 0 0 0 0 0 0 0 0 0 0 0 0 0 0 0 0 0 0 0
0 52 247 140 54 6 0 0 0 0 0 0 0 0 0 0 0 0 0 0 0 0 0 0 0 0 0 0 0 0 0 0 0 0 0 0 0 0 0 0 0 0 0
120 145 181 75 0 0 0 0 0 0 0 0 0 0 0 0 0 0 0 0 0 0 0 0 0 0 0 0 0 0 0 0 0 0 0 0 0 0 0 0 0 0 0
246 207 156 56 0 0 0 0 0 0 0 0 0 0 0 0 0 0 0 0 0 0 0 0 0 0 0 0 0 0 0 0 0 0 0 0 0 0 0 0 0 0 0
354 244 141 19 0 0 0 0 0 0 0 0 0 0 0 0 0 0 0 0 0 0 0 0 0 0 0 0 0 0 0 0 0 0 0 0 0 0 0 0 0 0 0
380 314 146 12 0 0 0 0 0 0 0 0 0 0 0 0 0 0 0 0 0 0 0 0 0 0 0 0 0 0 0 0 0 0 0 0 0 0 0 0 0 0 0
481 306 155 89 32 5 10 0 0 0 0 0 0 0 0 0 0 0 0 0 0 0 0 0 0 0 0 0 0 0 0 0 0 0 0 0 0 0 0 0 0 0 0
539 401 287 180 94 48 24 0 0 0 0 0 0 0 0 0 0 0 0 0 0 0 0 0 0 0 0 0 0 0 0 0 0 0 0 0 0 0 0 0 0 0 0
701 466 358 238 124 121 0 0 0 0 0 0 0 0 0 0 0 0 0 0 0 0 0 0 0 0 0 0 0 0 6 10 2 1 0 0 0 0 0 0 0 0 0

GFSSE_con_mlcape_048.txt.gz
CAPE
511 620 580 481 469 402 199 173 230 210 99 15 0 0 0 0 0 0 0 0 0 0 0 0 0 0 0 0 0 0 0 33 69 18 50 203 112 27 6 34 0 116 370
554 632 551 496 489 335 208 211 247 168 34 0 0 0 0 0 0 0 0 0 0 0 0 0 0 0 0 0 0 0 0 12 97 25 31 104 90 27 0 0 0 0 0
689 646 526 514 457 279 264 272 218 78 18 0 0 0 0 0 0 0 0 0 0 0 0 0 0 0 0 0 0 0 0 6 78 0 0 0 0 0 0 0 0 0 0
673 603 521 473 360 266 314 264 168 67 14 5 0 0 0 0 0 0 0 0 0 0 0 0 0 0 0 0 0 0 0 0 0 0 0 0 0 0 0 0 0 0 0
620 512 498 385 300 374 333 231 125 34 19 13 0 0 8 0 1 0 5 4 0 0 0 0 0 0 0 0 0 0 0 0 0 0 0 0 0 0 0 0 0 0 0
542 511 411 307 386 375 280 167 65 30 32 17 18 26 23 7 8 2 7 0 0 0 0 0 0 0 0 0 0 0 0 0 0 0 0 0 0 0 0 0 0 0 0
504 357 202 313 449 286 173 94 68 52 24 12 27 35 22 6 2 0 0 0 0 0 0 0 0 0 0 0 0 0 0 0 0 0 0 0 0 0 0 0 0 2 11
72 192 182 168 199 194 175 110 67 57 13 11 32 2 0 0 0 0 0 0 0 0 0 0 0 0 0 0 0 0 0 0 0 0 0 0 0 0 0 0 0 7 7
117 43 3 19 109 170 117 45 34 11 0 0 2 0 0 0 0 0 0 0 0 0 0 0 0 0 0 0 0 0 0 0 0 0 0 0 0 0 0 0 0 0 1
8 0 0 0 66 215 174 48 11 4 2 0 0 0 0 0 0 0 0 0 0 0 0 0 0 0 0 0 0 0 0 0 0 0 0 0 0 0 0 0 0 0 0
0 0 0 5 54 118 87 30 17 14 2 0 0 0 0 0 0 0 0 0 0 0 0 0 0 0 0 0 0 0 0 0 0 0 0 0 0 0 0 0 0 0 0
1 0 2 87 146 69 50 19 0 0 0 0 0 0 0 1 0 0 0 0 0 0 0 0 0 0 0 0 0 0 0 0 0 0 0 0 0 0 0 0 0 0 0
10 60 113 160 9 0 0 0 0 0 0 0 0 0 0 5 0 0 0 0 0 0 0 0 0 0 0 0 0 0 0 0 0 0 0 0 0 0 0 0 0 0 0
58 141 226 104 2 0 0 0 0 0 0 0 0 10 13 5 1 0 0 0 0 0 0 0 0 0 0 0 0 0 0 0 0 0 0 0 0 0 0 0 0 0 0
78 147 256 32 0 0 0 0 0 0 31 146 137 152 189 24 0 0 0 0 0 0 0 0 0 0 0 0 0 0 0 0 0 0 0 0 0 0 0 0 0 0 0
68 80 86 5 0 0 0 0 22 112 225 111 46 10 1 0 0 0 0 0 0 0 0 0 0 0 0 0 0 0 0 0 0 0 0 0 0 0 0 0 0 0 0
51 49 111 0 0 0 3 67 119 149 45 1 0 0 0 0 0 0 0 0 0 0 0 0 0 0 0 0 0 0 0 0 0 0 0 0 0 0 0 0 0 0 0
27 5 36 3 0 0 3 51 39 1 0 0 0 0 0 0 0 0 0 0 0 0 0 0 0 0 0 0 0 0 0 0 0 0 0 0 0 0 0 0 0 0 0
8 20 81 48 47 28 4 0 0 0 0 0 0 0 0 0 0 0 0 0 0 0 0 0 0 0 0 0 0 0 0 0 0 0 0 0 0 0 0 0 0 0 0
0 83 73 78 23 0 0 0 0 0 0 0 0 0 0 0 0 0 0 0 0 0 0 0 0 0 0 0 0 0 0 0 0 0 0 0 0 0 0 0 0 0 0
7 6 3 85 6 0 0 0 0 0 0 0 0 0 0 0 0 0 0 0 0 0 0 0 0 0 0 0 0 0 0 0 0 0 0 0 0 0 0 0 0 0 0
51 46 31 62 0 0 0 0 0 0 0 0 0 0 0 0 0 0 0 0 0 0 0 0 0 0 0 0 0 0 0 0 0 0 0 0 0 0 0 0 0 0 0
127 106 70 40 3 0 0 0 0 0 0 0 0 0 0 0 0 0 0 0 0 0 0 0 0 0 0 0 0 0 0 0 0 0 0 0 0 0 0 0 0 0 0
140 98 47 1 0 0 0 0 0 0 0 0 0 0 0 0 0 0 0 0 0 0 0 0 0 0 0 0 0 0 0 0 0 0 0 0 0 0 0 0 0 0 0
125 93 52 7 0 0 0 0 0 0 0 0 0 0 0 0 0 0 0 0 0 0 0 0 0 0 0 0 0 0 0 0 0 0 0 0 0 0 0 0 0 0 0
251 173 113 67 4 0 0 0 0 0 0 0 0 0 0 0 0 0 0 0 0 0 0 0 0 0 0 0 0 0 0 0 0 5 2 0 1 0 0 0 0 0 0

GFSSE_con_mlcape_051.txt.gz
CAPE
577 769 466 486 232 68 81 131 105 31 12 0 0 0 0 0 0 0 0 0 0 0 0 0 0 0 0 0 0 14 23 0 5 72 109 60 40 0 0 0 0 0 58
757 733 499 541 263 112 124 165 56 20 2 0 0 0 0 0 0 0 0 0 0 0 0 0 0 0 2 7 0 25 30 15 21 20 25 16 0 0 0 0 0 0 0
812 812 613 545 251 188 255 157 42 7 0 0 0 0 0 0 0 0 0 0 0 0 0 0 0 0 2 0 0 64 28 0 0 0 0 0 0 0 0 0 0 0 0
846 808 643 458 359 357 277 108 26 4 0 1 5 1 1 0 0 0 1 0 0 0 0 0 0 0 0 0 0 0 0 0 0 0 0 0 0 0 0 0 0 0 0
864 677 489 327 362 360 245 79 42 30 21 29 36 13 14 6 2 16 5 1 0 0 0 0 0 0 0 0 0 0 0 0 0 0 0 0 0 0 0 1 0 0 2
758 563 333 206 402 373 215 91 42 39 58 68 64 49 36 17 22 16 3 0 0 0 0 0 0 0 0 0 0 0 0 0 0 0 0 0 0 0 0 1 6 13 12
600 548 200 203 374 350 148 70 65 53 101 122 116 74 47 33 21 7 0 0 0 0 0 0 0 0 0 0 0 0 0 0 0 0 0 0 0 0 0 0 2 3 5
77 317 119 158 213 93 111 93 87 73 123 162 123 59 18 12 0 0 0 0 0 0 0 0 0 0 0 0 0 0 0 0 0 0 0 0 0 0 0 0 0 0 0
0 0 6 21 23 160 106 89 85 45 108 124 63 22 1 0 0 0 0 0 0 0 0 0 0 0 0 0 0 0 0 0 0 0 0 0 0 0 0 0 0 0 0
0 14 10 8 29 62 114 35 24 71 108 50 14 0 0 0 0 0 0 0 0 0 0 0 0 0 0 0 0 0 0 0 0 0 0 0 0 0 0 0 0 0 0
0 0 0 0 1 1 0 10 13 36 38 14 3 0 0 0 0 0 0 0 0 0 0 0 0 0 0 0 0 0 0 0 0 0 0 0 0 0 0 0 0 0 0
0 0 0 0 2 55 66 36 1 34 11 1 0 0 0 0 0 0 0 0 0 0 0 0 0 0 0 0 0 0 0 0 0 0 0 0 0 0 0 0 0 0 0
0 0 0 0 0 100 77 43 6 12 4 0 0 2 17 7 0 0 0 0 0 0 0 0 0 0 0 0 0 0 0 0 0 0 0 0 0 0 0 0 0 0 0
0 1 37 30 64 69 5 0 0 0 0 0 0 0 19 4 0 0 0 0 0 0 0 0 0 0 0 0 0 0 0 0 0 0 0 0 0 0 0 0 0 0 0
20 62 135 104 45 9 0 0 0 0 0 0 0 11 19 20 0 0 0 0 0 0 0 0 0 0 0 0 0 0 0 0 0 0 0 0 0 0 0 0 0 1 0
66 121 149 104 5 1 0 0 0 0 10 105 137 193 62 0 0 0 0 0 0 0 0 0 0 0 0 0 0 0 0 0 0 0 0 0 0 0 0 0 0 0 0
129 140 209 146 2 0 0 0 0 17 80 55 11 1 0 0 0 0 0 0 0 0 0 0 0 0 0 0 0 0 0 0 0 0 0 0 0 0 0 0 0 0 0
91 100 161 30 3 0 0 0 2 87 53 2 0 0 0 0 0 0 0 0 0 0 0 0 0 0 0 0 0 0 0 0 0 0 0 0 0 0 0 0 0 0 0
64 54 96 28 0 0 0 0 6 20 8 0 0 0 0 0 0 0 0 0 0 0 0 0 0 0 0 0 0 0 0 0 0 0 0 0 0 0 0 0 0 0 0
34 78 152 86 0 0 0 0 0 0 0 0 0 0 0 0 0 0 0 0 0 0 0 0 0 0 0 0 0 0 0 0 0 0 0 0 0 0 0 0 0 0 0
16 68 65 0 0 0 0 1 0 0 0 0 0 0 0 0 0 0 0 0 0 0 0 0 0 0 0 0 0 0 0 0 0 0 0 0 0 0 0 0 0 0 0
58 14 7 9 1 10 3 0 0 0 0 0 0 0 0 0 0 0 0 0 0 0 0 0 0 0 0 0 0 0 0 0 0 0 0 0 0 0 0 0 0 0 0
55 20 33 28 15 2 0 0 0 0 0 0 0 0 0 0 0 0 0 0 0 0 0 0 0 0 0 0 0 0 0 0 0 0 0 0 0 0 0 0 0 0 0
134 32 40 26 7 0 0 0 0 0 0 0 0 0 0 0 0 0 0 0 0 0 0 0 0 0 0 0 0 0 0 0 0 0 0 0 0 0 0 0 0 0 0
47 17 0 0 2 0 0 0 0 0 0 0 0 0 0 0 0 0 0 0 0 0 0 0 0 0 0 0 0 0 0 0 0 0 0 0 0 0 0 0 0 0 0
21 9 0 0 0 0 0 0 0 0 0 0 0 0 0 0 0 0 0 0 0 0 0 0 0 0 0 0 0 0 0 0 0 0 0 0 2 0 0 0 0 0 0

GFSSE_con_mlcape_057.txt.gz
CAPE
686 572 474 347 268 225 171 149 70 29 3 0 0 0 0 0 0 0 0 0 0 0 11 22 201 197 14 0 0 0 0 0 0 0 0 0 0 0 0 0 0 0 0
777 654 470 461 345 130 34 17 5 0 0 0 0 0 0 0 0 0 0 0 25 136 144 48 192 166 17 0 0 0 0 0 0 0 0 0 0 0 0 0 0 0 0
823 643 532 537 403 209 85 16 0 0 0 2 5 12 3 0 0 0 0 18 219 170 241 56 272 167 0 0 0 0 0 0 0 0 0 0 0 1 2 1 1 1 0
809 681 600 573 417 224 83 16 0 0 17 23 51 36 24 0 0 0 0 32 225 209 115 169 330 0 0 0 0 0 0 0 0 0 0 0 0 3 4 6 8 10 8
795 628 567 446 323 166 76 5 0 20 34 76 70 53 41 10 0 0 0 0 19 91 148 165 14 0 0 0 0 0 0 0 0 0 0 1 2 6 4 5 5 6 8
568 530 349 329 226 99 32 19 2 24 86 116 70 44 33 19 1 0 0 0 0 0 3 0 0 0 0 0 0 0 0 0 0 0 0 0 4 3 1 0 2 4 7
97 387 320 243 180 134 46 0 3 61 110 139 109 83 47 35 25 12 0 0 0 0 0 0 0 0 0 0 0 0 0 0 0 0 0 0 3 2 0 0 0 1 4
54 89 128 259 177 62 109 134 57 98 139 173 153 124 102 93 50 26 2 0 0 0 0 0 0 0 0 0 0 0 0 0 0 0 0 1 3 2 0 0 0 0 0
0 0 0 4 2 0 112 321 165 175 204 170 167 125 87 46 16 6 0 0 0 0 0 0 0 0 0 0 0 0 0 0 0 0 0 0 5 3 0 0 0 0 0
4 2 2 0 0 0 31 305 292 229 231 215 123 66 28 6 0 0 0 0 0 0 0 0 0 0 0 0 0 0 0 0 0 0 0 0 6 8 2 0 0 0 0
3 2 2 0 0 0 0 122 350 283 175 147 40 28 21 9 4 0 0 0 0 0 0 0 0 0 0 0 0 0 0 0 0 0 0 0 0 3 2 0 0 0 0
3 3 2 0 0 0 0 0 26 180 150 46 25 29 14 1 0 0 0 0 0 0 0 0 0 0 0 0 0 0 0 0 0 0 0 0 0 1 4 2 1 0 0
2 0 0 0 0 0 0 6 105 114 47 23 8 17 2 11 1 0 0 0 0 0 0 0 0 0 0 0 0 0 0 0 0 0 0 0 0 3 2 1 4 4 0
2 0 0 14 26 4 26 65 72 17 0 6 11 9 0 0 0 0 0 0 0 0 0 0 0 0 0 0 0 0 0 0 0 0 0 0 0 0 2 0 6 0 2
0 0 0 12 55 41 18 34 7 9 6 0 0 5 0 0 0 0 0 0 0 0 0 0 0 0 0 0 0 0 0 0 0 0 0 0 0 0 1 0 3 0 1
0 0 0 14 44 47 0 0 0 0 0 0 1 40 0 0 0 0 0 0 0 0 0 0 0 0 0 0 0 0 0 0 0 0 0 0 0 0 0 0 0 0 0
0 0 0 0 0 0 0 0 0 0 0 0 0 9 68 0 0 0 0 0 0 0 0 0 0 0 0 0 0 0 0 0 0 0 0 0 0 0 0 0 0 0 0
0 0 6 7 19 80 0 0 0 0 0 0 0 38 41 4 0 0 0 0 0 0 0 0 0 0 0 0 0 0 0 0 0 0 0 0 0 0 0 0 0 0 0
1 12 68 133 122 81 0 0 0 0 0 1 27 40 4 0 0 0 0 0 0 0 0 0 0 0 0 0 0 0 0 0 0 0 0 0 0 0 0 0 0 0 0
28 65 183 218 147 55 0 0 0 0 0 0 1 0 0 0 0 0 0 0 0 0 0 0 0 0 0 0 0 0 0 0 0 0 0 0 0 0 0 0 0 0 0
109 77 170 198 114 49 0 0 0 0 0 4 0 0 0 0 0 0 0 0 0 0 0 0 0 0 0 0 0 0 0 0 0 0 0 0 0 0 0 0 0 0 0
64 85 146 148 107 78 10 0 0 0 0 6 0 0 0 0 0 0 0 0 0 0 0 0 0 0 0 0 0 0 0 0 0 0 0 0 0 0 0 0 0 0 0
92 48 101 143 81 35 0 0 0 0 0 0 0 0 0 0 0 0 0 0 0 0 0 0 0 0 0 0 0 0 0 0 0 0 0 0 0 0 0 0 0 0 0
156 94 94 152 98 37 2 0 0 0 0 0 0 0 0 0 0 0 0 0 0 0 0 0 0 0 0 0 0 0 0 0 0 0 0 0 0 0 0 0 0 0 0
230 112 107 99 114 40 9 1 0 0 0 0 0 0 0 0 0 0 0 0 0 0 0 0 0 0 0 0 0 0 0 0 0 0 0 0 0 0 0 0 0 0 0
272 199 162 92 131 47 2 0 0 0 0 0 0 0 0 0 0 0 0 0 0 0 0 0 0 0 0 0 0 0 0 0 0 0 0 0 0 0 4 2 0 0 0

GFSSE_con_mlcape_060.txt.gz
CAPE
940 576 639 753 819 787 703 548 384 184 6 0 0 0 0 0 0 0 0 6 97 235 294 164 54 0 0 0 0 0 0 0 0 0 0 0 0 0 0 0 0 0 0
960 573 591 727 743 726 621 456 206 16 0 0 0 0 0 0 0 0 0 53 108 175 293 127 0 0 0 0 0 0 0 0 0 0 0 0 0 1 2 0 0 3 4
1032 591 529 632 636 607 442 197 24 13 0 0 0 0 0 0 0 0 155 269 255 241 322 109 0 0 0 0 0 0 0 0 0 0 0 0 0 4 6 6 7 7 7
993 598 367 562 508 385 156 38 27 23 14 0 1 0 0 15 9 146 298 313 425 294 350 6 0 0 0 0 0 0 0 0 0 0 0 1 0 2 1 2 12 7 14
1039 531 445 423 394 212 92 21 19 31 39 33 30 21 18 24 22 182 347 298 289 467 302 0 0 0 0 0 0 0 0 0 0 0 0 0 0 0 0 0 1 2 5
777 524 355 371 377 177 24 16 65 79 72 78 61 51 34 21 24 62 149 324 451 339 26 0 0 0 0 0 0 0 0 0 0 0 0 0 0 2 0 0 1 3 3
131 384 385 252 249 193 150 143 144 127 114 124 117 72 40 26 22 21 35 73 57 0 0 0 0 0 0 0 0 0 0 0 0 0 0 0 1 2 0 0 0 1 2
7 6 96 63 65 32 26 71 180 188 160 154 133 119 72 55 24 31 9 0 0 0 0 0 0 0 0 0 0 0 0 0 0 0 0 1 4 1 0 0 0 0 0
1 3 3 3 1 0 0 41 84 281 286 227 192 172 103 63 37 32 2 0 0 0 0 0 0 0 0 0 0 0 0 0 0 0 0 0 3 3 0 0 0 0 0
3 0 1 0 0 0 0 0 180 354 305 255 225 133 75 58 29 10 0 0 0 0 0 0 0 0 0 0 0 0 0 0 0 0 0 0 8 8 2 0 0 0 1
0 3 2 0 0 0 0 2 43 207 216 145 106 36 18 15 4 0 0 0 0 0 0 0 0 0 0 0 0 0 0 0 0 0 0 0 5 8 6 2 0 0 0
3 3 4 5 2 0 0 0 34 80 196 141 66 52 24 14 11 17 0 0 0 0 0 0 0 0 0 0 0 0 0 0 0 0 0 0 0 5 5 5 4 0 0
5 3 5 2 0 2 18 23 15 143 157 117 119 47 53 44 2 0 0 0 0 0 0 0 0 0 0 0 0 0 0 0 0 0 0 0 0 4 0 6 1 1 0
1 2 0 0 0 0 0 0 1 5 9 33 84 77 68 24 5 0 0 0 0 0 0 0 0 0 0 0 0 0 0 0 0 0 0 0 0 2 0 2 0 0 0
0 0 2 18 9 3 14 40 58 51 25 23 72 70 28 16 1 0 0 0 0 0 0 0 0 0 0 0 0 0 0 0 0 0 0 0 0 2 0 0 1 0 0
0 0 0 17 25 39 44 105 48 10 8 37 27 47 44 6 6 0 0 0 0 0 0 0 0 0 0 0 0 0 0 0 0 0 0 0 0 0 0 0 0 0 0
0 0 4 20 82 75 27 65 14 0 1 0 43 193 4 1 2 0 0 0 0 0 0 0 0 0 0 0 0 0 0 0 0 0 0 0 0 0 0 0 0 0 0
0 3 8 0 34 89 26 9 0 0 0 0 85 300 406 75 21 0 0 0 0 0 0 0 0 0 0 0 0 0 0 0 0 0 0 0 0 0 0 0 0 0 0
0 0 0 0 0 241 201 5 10 18 7 33 221 417 570 473 40 0 0 0 0 0 0 0 0 0 0 0 0 0 0 0 0 0 0 0 0 0 0 0 0 0 0
0 0 1 0 49 388 304 104 16 53 40 127 328 508 555 313 30 0 0 0 0 0 0 0 0 0 0 0 0 0 0 0 0 0 0 0 0 0 0 0 0 0 0
19 47 120 140 254 441 337 56 3 9 23 63 266 444 207 129 12 0 0 0 0 0 0 0 0 0 0 0 0 0 0 0 0 0 0 0 0 0 0 0 0 0 0
108 93 155 305 469 422 292 47 0 0 33 51 228 178 119 16 0 0 0 0 0 0 0 0 0 0 0 0 0 0 0 0 0 0 0 0 0 0 0 0 0 0 0
301 272 237 325 495 406 390 117 15 11 50 83 117 84 8 0 0 0 0 0 0 0 0 0 0 0 0 0 0 0 0 0 0 0 0 0 0 0 0 0 1 0 0
398 335 317 362 486 504 506 250 52 2 1 12 97 66 35 0 0 0 0 0 0 0 0 0 0 0 0 0 0 0 0 0 0 0 0 0 0 0 1 1 0 0 0
554 530 457 374 428 513 501 393 193 43 0 32 214 93 4 0 0 0 0 0 0 0 0 0 0 0 0 0 0 0 0 0 0 0 0 0 0 0 0 0 0 0 1
786 731 643 547 492 530 546 456 440 317 108 135 18 11 2 1 0 0 0 0 0 0 0 0 0 0 0 0 0 0 0 0 0 0 0 0 0 0 0 0 0 0 0

GFSSE_con_mlcape_063.txt.gz
CAPE
1016 775 879 1136 1094 906 768 712 558 315 62 6 0 0 0 0 12 52 178 211 347 274 164 103 43 0 0 0 0 0 0 0 0 0 0 0 1 0 0 0 2 3 2
1029 789 908 1172 1153 967 833 685 444 151 24 10 0 0 0 11 28 103 166 314 376 208 4 0 0 0 0 0 0 0 0 0 0 0 0 0 3 5 4 0 1 12 4
1315 798 894 1075 1057 927 766 534 246 58 25 10 0 0 8 32 48 120 195 344 359 135 0 0 0 0 0 0 0 0 0 0 0 0 7 0 2 8 17 13 18 15 18
1255 783 884 942 900 853 605 313 140 77 54 31 0 14 47 84 180 276 286 391 409 66 0 0 0 0 0 0 0 0 0 0 0 10 5 0 0 8 9 4 1 1 10
1111 532 933 766 787 632 387 260 172 144 78 21 34 115 111 335 458 427 430 413 400 0 0 0 0 0 0 0 0 0 0 0 0 0 0 0 0 0 0 1 3 2 1
1144 379 508 571 490 338 235 199 177 131 74 83 132 166 221 514 528 522 477 434 309 12 0 0 0 0 0 0 0 0 0 0 0 2 0 0 0 0 0 1 2 1 2
245 95 133 383 279 190 161 170 185 154 135 148 151 138 207 263 375 514 543 386 103 0 0 0 0 0 0 0 0 0 0 0 0 1 0 0 0 0 0 0 0 1 1
33 0 44 49 24 40 81 77 143 181 206 192 177 161 168 143 190 269 203 102 39 0 0 0 0 0 0 0 0 0 0 0 0 2 1 0 0 0 0 0 1 0 0
0 0 2 8 0 0 0 35 91 175 249 270 235 180 144 113 114 132 144 73 26 0 0 0 0 0 0 0 0 0 0 0 0 0 0 0 1 0 0 0 1 1 1
0 2 2 1 0 0 0 0 14 179 282 261 205 163 118 84 57 62 51 27 0 0 0 0 0 0 0 0 0 0 0 0 0 0 0 0 3 3 0 0 0 0 1
3 3 3 1 0 0 0 0 0 70 179 164 139 77 77 49 17 34 47 18 1 0 0 0 0 0 0 0 0 0 0 0 0 0 0 0 6 6 3 0 0 0 0
4 3 2 2 2 2 0 0 2 35 135 127 126 93 65 53 73 81 35 12 0 0 0 0 0 0 0 0 0 0 0 0 0 0 0 0 6 8 5 4 0 0 0
5 3 3 4 2 2 4 0 33 58 117 108 108 109 99 116 94 74 12 0 0 0 0 0 0 0 0 0 0 0 0 0 0 0 0 0 0 6 6 2 2 0 0
3 2 2 2 2 0 1 31 56 113 144 138 135 150 157 153 111 41 0 0 0 0 0 0 0 0 0 0 0 0 0 0 0 0 0 0 0 1 1 6 3 2 0
3 2 1 0 1 15 11 14 28 80 97 93 98 143 195 187 177 11 0 0 0 0 0 0 0 0 0 0 0 0 0 0 0 0 0 0 0 1 0 0 2 0 0
0 0 1 7 0 0 6 16 27 31 5 58 111 153 218 181 160 25 0 0 0 0 0 0 0 0 0 0 0 0 0 0 0 0 0 0 0 0 0 0 0 0 0
0 0 1 11 36 41 66 129 111 77 26 70 59 100 158 140 134 54 22 0 0 0 0 0 0 0 0 0 0 0 0 0 0 0 0 0 0 0 0 0 0 0 0
2 0 1 0 53 91 122 141 51 27 28 44 21 93 113 121 117 71 27 0 0 0 0 0 0 0 0 0 0 0 0 0 0 0 0 0 0 0 0 0 0 0 0
0 1 8 22 46 33 15 29 18 66 16 0 0 161 321 138 162 94 28 0 0 0 0 0 0 0 0 0 0 0 0 0 0 0 0 0 0 0 0 0 0 0 0
16 24 9 3 16 19 31 0 1 2 0 0 19 126 357 471 404 185 37 2 0 0 0 0 0 0 0 0 0 0 0 0 0 0 0 0 0 0 0 0 0 0 0
12 1 0 0 0 31 43 4 0 0 4 4 100 229 438 491 492 355 174 10 0 0 0 0 0 0 0 0 0 0 0 0 0 0 0 0 0 0 0 0 0 0 0
0 1 2 0 0 76 129 59 0 0 0 0 13 248 476 498 383 254 184 5 0 0 0 0 0 0 0 0 0 0 0 0 0 0 0 0 0 0 0 0 0 0 0
37 35 104 112 82 128 121 95 0 0 0 15 31 175 451 432 254 204 134 2 0 0 0 0 0 0 0 0 0 0 0 0 0 0 0 0 0 0 0 0 0 0 0
271 146 146 196 234 314 316 213 49 0 0 0 24 101 268 186 111 78 19 0 0 0 0 0 0 0 0 1 0 0 0 0 0 0 0 0 0 0 0 1 0 0 0
550 424 357 299 320 406 447 381 300 65 1 10 38 105 260 224 112 30 0 0 0 0 0 0 0 0 0 0 0 0 0 0 0 0 0 0 0 0 0 0 0 0 0
634 690 611 499 441 482 554 572 575 403 259 3 14 383 365 196 33 1 0 0 0 0 0 0 0 0 0 0 0 0 0 0 0 0 0 0 0 0 0 0 0 0 0

GFSSE_con_mlcape_066.txt.gz
CAPE
884 1035 1245 1173 906 847 851 699 506 190 23 10 1 0 0 0 0 79 368 342 280 138 0 0 0 0 0 0 0 0 0 0 0 0 1 5 1 1 0 2 1 3 5
136 1309 1392 1202 891 869 846 746 462 180 13 5 10 5 8 36 226 411 423 273 102 3 0 0 0 0 0 0 0 0 0 0 5 3 0 5 13 21 26 14 7 2 22
11 921 1394 1338 994 1039 924 722 431 182 25 17 4 24 53 176 314 464 398 114 0 0 0 0 0 0 0 0 0 0 0 0 10 15 0 0 7 10 11 4 15 10 20
0 955 1529 1231 1086 1065 896 583 329 163 74 15 23 77 122 207 345 518 316 47 0 0 0 0 0 0 0 0 0 0 0 0 4 0 0 0 0 7 6 3 3 7 8
1266 1331 1596 1272 1099 1010 746 464 345 248 83 34 93 169 198 307 399 536 312 5 0 0 0 0 0 0 0 0 0 0 0 0 0 0 0 0 0 1 0 0 3 5 4
1161 972 901 1114 921 709 493 394 322 116 49 139 243 333 490 554 530 556 181 68 99 22 0 0 0 0 0 0 0 0 0 0 0 0 0 0 0 1 1 2 2 2 2
572 592 186 1 586 502 357 291 175 107 184 290 372 539 580 656 487 519 170 96 75 0 0 0 0 0 0 0 0 0 0 0 0 0 0 0 0 0 0 1 0 0 1
187 2 0 0 0 184 194 99 97 145 171 251 392 531 635 628 542 377 124 60 0 0 0 0 0 0 0 0 0 0 0 0 0 0 0 0 0 0 1 1 1 0 0
13 0 0 0 0 0 10 23 53 94 98 142 235 293 338 309 274 191 97 24 0 0 0 0 0 0 0 0 0 0 0 0 0 0 0 0 0 0 0 1 1 1 1
3 1 2 0 0 0 0 0 64 168 114 124 112 123 177 211 207 145 70 16 0 0 0 0 0 0 0 0 0 0 0 0 0 0 0 0 1 1 1 1 1 0 0
1 2 4 2 1 0 0 0 0 206 196 143 88 85 75 98 46 38 44 14 8 0 0 0 0 0 0 0 0 0 0 0 0 0 0 0 3 2 1 1 0 0 0
4 3 3 2 1 0 1 0 0 26 2 99 62 29 35 49 100 64 41 8 1 0 0 0 0 0 0 0 0 0 0 0 0 0 0 0 3 4 2 0 0 0 0
3 3 3 2 1 1 1 0 0 7 78 72 55 95 55 137 80 31 9 1 0 0 0 0 0 0 0 0 0 0 0 0 0 0 0 0 2 6 3 3 0 0 0
1 2 1 0 0 0 0 1 2 23 79 57 162 108 138 146 106 10 5 0 0 0 0 0 0 0 0 0 0 0 0 0 0 0 0 0 0 1 9 3 1 0 0
2 2 1 2 3 1 0 9 23 53 61 140 158 183 168 133 76 30 37 0 0 0 0 0 0 0 0 0 0 0 0 0 0 0 0 0 0 0 0 3 0 0 0
0 0 0 1 2 0 0 23 21 98 100 157 194 246 245 119 149 37 89 0 0 0 0 0 0 0 0 0 0 0 0 0 0 0 0 0 0 0 0 0 0 0 0
1 0 0 1 0 4 3 18 66 68 135 145 162 233 240 221 214 163 23 5 0 0 0 0 0 0 0 0 0 0 0 0 0 0 0 0 0 0 0 0 0 0 0
0 0 0 0 9 24 37 10 91 33 25 96 135 125 207 181 128 178 40 8 0 0 0 0 0 0 0 0 0 0 0 0 0 0 0 0 0 0 0 0 0 0 0
0 0 0 0 0 43 92 48 83 64 71 56 93 191 149 100 100 69 79 19 0 0 0 0 0 0 0 0 0 0 0 0 0 0 0 0 0 0 0 0 0 0 0
0 0 0 0 1 31 84 112 56 4 14 44 27 93 101 35 118 136 54 9 0 0 0 0 0 0 0 0 0 0 0 0 0 0 0 0 0 0 0 0 0 0 0
0 0 0 1 23 35 0 0 0 17 0 0 0 7 242 324 294 221 59 22 0 0 0 0 0 0 0 0 0 0 0 0 0 0 0 0 0 0 0 0 0 0 0
0 5 6 2 16 7 2 0 0 0 0 0 0 5 323 324 389 368 228 128 0 0 0 0 0 0 0 0 0 0 0 0 0 0 0 0 0 0 0 0 0 0 0
0 0 0 1 4 40 50 2 0 1 0 0 0 37 337 391 317 337 232 282 2 0 0 0 0 0 0 0 0 0 0 0 0 0 0 0 0 0 0 0 0 0 0
3 0 0 1 0 17 114 137 53 0 0 0 0 36 363 487 387 310 242 148 5 0 0 0 0 0 0 0 0 0 0 0 0 0 0 0 0 0 0 0 0 0 0
96 40 85 131 63 76 110 119 90 0 0 0 7 10 319 355 266 178 152 137 1 0 0 0 0 0 0 0 0 0 0 0 0 0 0 0 0 0 0 0 0 0 0
287 280 149 209 220 241 313 215 215 84 13 0 3 16 302 265 140 145 107 0 0 0 0 0 0 0 0 0 0 0 0 0 0 0 0 0 0 0 0 0 0 0 0

GFSSE_con_mlcape_072.txt.gz
CAPE
1466 1327 1229 1104 204 761 702 661 452 318 254 272 266 412 453 351 215 106 25 0 0 0 0 0 0 2 3 4 3 2 2 2 8 10 16 7 8 11 15 14 13 13 5
1635 1433 1109 979 766 764 592 466 287 199 149 177 237 534 576 403 202 68 1 0 0 0 0 0 4 7 10 12 6 0 0 0 0 1 4 9 9 11 15 13 10 24 26
1167 1340 1314 1018 793 833 969 535 291 212 106 146 314 492 566 400 233 53 0 0 0 0 0 0 0 1 1 0 0 5 0 0 0 0 0 0 5 12 11 5 19 30 34
432 485 839 543 219 25 287 725 310 253 95 227 507 661 581 427 182 18 1 0 0 0 0 0 0 0 0 0 0 0 0 0 0 0 0 0 1 6 6 6 16 16 23
168 76 354 231 7 79 257 527 570 314 152 443 818 715 515 328 102 27 0 0 0 0 0 0 0 0 0 0 0 0 0 0 0 0 0 0 0 5 8 11 4 5 1
240 92 8 49 0 150 312 387 659 292 348 658 815 587 385 198 103 6 0 0 0 0 0 0 0 0 0 0 0 0 0 0 0 0 0 0 0 5 3 8 7 3 7
534 291 239 18 9 1 0 27 478 332 478 748 742 427 297 160 66 0 0 0 0 0 0 0 0 0 0 0 0 0 0 0 0 0 0 0 0 4 6 6 7 6 6
143 167 80 17 0 11 0 1 183 356 433 821 666 354 186 170 22 0 0 0 0 0 0 0 0 0 0 0 0 0 0 0 0 0 0 0 4 5 4 6 6 5 8
21 57 4 3 0 0 0 2 49 67 566 708 584 343 251 125 1 0 0 0 0 0 0 0 0 0 0 0 0 0 0 0 0 0 0 0 2 4 3 3 5 5 4
3 2 3 2 0 0 0 0 11 14 307 439 345 261 161 0 0 0 0 0 0 0 0 0 0 0 0 0 0 0 0 0 0 0 0 0 1 1 1 1 1 1 1
1 0 1 3 2 0 0 0 0 1 89 298 290 161 57 0 0 0 0 0 0 0 0 0 0 0 0 0 0 0 0 0 0 0 0 0 0 0 0 1 1 2 2
1 1 1 2 1 1 3 2 0 0 6 106 102 94 24 0 0 0 0 0 0 0 0 0 0 0 0 0 0 0 0 0 0 0 0 0 0 0 0 0 0 0 1
2 2 2 1 2 0 1 0 0 0 4 40 63 68 51 2 0 1 0 0 0 0 0 0 0 0 0 0 0 0 0 0 0 0 0 0 0 0 0 0 0 0 0
3 3 3 2 1 2 0 0 1 0 1 15 22 26 11 0 0 0 0 0 0 0 0 0 0 0 0 0 0 0 0 0 0 0 0 0 0 0 1 0 0 0 0
1 2 2 1 0 0 0 0 0 2 7 0 10 22 0 0 0 0 0 0 0 0 0 0 0 0 0 0 0 0 0 0 0 0 0 0 0 0 0 0 1 1 0
2 2 2 1 0 0 0 0 0 0 0 26 40 0 0 0 0 0 0 0 0 0 0 0 0 0 0 0 0 0 0 0 0 0 0 0 0 0 0 0 0 0 0
2 2 1 2 0 0 0 0 0 0 0 5 38 19 0 0 0 0 0 0 0 0 0 0 0 0 0 0 0 0 0 0 0 0 0 0 0 0 0 0 0 0 0
1 1 1 3 2 0 0 0 4 0 7 14 51 39 14 0 0 0 0 0 0 0 0 0 0 0 0 0 0 0 0 0 0 0 0 0 0 0 0 0 0 0 0
0 1 4 1 0 0 0 0 0 0 13 40 64 53 40 5 0 0 0 0 0 0 0 0 0 0 0 0 0 0 0 0 0 0 0 0 0 0 0 0 0 0 0
1 0 2 0 0 0 0 0 4 10 28 44 54 81 60 49 11 16 0 0 0 0 0 0 0 0 0 0 0 0 0 0 0 0 0 0 0 0 0 0 0 0 0
0 0 1 0 0 0 0 0 5 2 6 10 33 48 71 66 32 19 4 0 0 0 0 0 0 0 0 0 0 0 0 0 0 0 0 0 0 0 0 0 0 0 0
0 0 0 0 0 0 0 0 0 0 0 0 0 0 0 0 6 6 0 0 0 0 0 0 0 0 0 0 0 0 0 0 0 0 0 0 0 0 0 0 0 0 0
0 0 0 0 0 0 0 0 0 0 0 0 0 0 0 0 0 0 13 3 0 0 0 0 0 0 0 0 0 0 0 0 0 0 0 0 0 0 0 0 0 0 0
0 0 0 0 0 0 0 0 0 0 0 0 0 0 0 6 7 12 4 0 0 0 0 0 0 0 0 0 0 0 0 0 0 0 0 0 0 0 0 0 0 0 0
0 0 0 0 0 0 0 0 0 0 0 0 0 0 0 0 23 37 48 16 23 5 0 0 0 0 0 0 0 0 0 0 0 0 0 0 0 0 0 0 0 0 0
0 0 0 0 0 0 0 0 0 0 0 0 0 0 0 0 14 46 94 96 67 23 4 0 0 0 0 0 0 0 0 0 0 0 0 0 0 0 0 0 0 0 0

GFSSE_con_mlcape_075.txt.gz
CAPE
1241 1291 1215 1149 979 658 719 681 365 686 654 624 612 385 454 381 388 287 118 5 0 0 2 5 2 4 3 4 7 2 5 6 10 10 11 13 21 10 22 10 5 2 14
1218 1280 1206 960 1036 880 798 807 653 392 463 367 287 369 449 391 315 180 33 0 0 1 4 4 4 6 5 4 4 0 0 0 7 9 12 12 17 6 20 50 39 37 29
1316 1396 1246 796 672 655 705 721 905 905 730 568 514 498 448 327 242 118 20 0 0 2 7 9 5 18 7 4 0 0 0 0 0 0 2 3 10 17 38 31 37 30 40
1090 1009 846 374 689 683 666 657 487 787 1143 942 767 496 423 272 176 92 8 0 4 6 9 9 4 1 0 1 0 0 0 0 0 0 0 0 7 15 24 19 12 20 22
936 505 524 210 47 11 47 105 218 374 692 1025 789 516 369 187 164 38 0 0 3 5 9 0 0 0 0 0 0 0 0 0 0 0 0 0 0 9 5 4 3 4 1
592 339 447 154 21 144 437 218 103 48 125 889 823 509 294 204 121 13 0 0 0 4 0 0 0 0 0 0 0 0 0 0 0 0 0 0 1 15 10 13 4 8 10
322 306 259 173 72 78 67 90 128 120 147 693 716 444 290 214 87 4 0 0 0 0 0 0 0 0 0 0 0 0 0 0 0 0 0 0 3 8 8 6 6 7 7
264 374 80 63 0 0 1 0 22 181 80 708 604 481 326 171 75 0 0 0 0 0 0 0 0 0 0 0 0 0 0 0 0 0 0 0 3 5 5 7 9 6 5
69 90 22 17 0 1 5 0 1 28 123 429 523 472 263 65 4 0 0 0 0 0 0 0 0 0 0 0 0 0 0 0 0 0 0 0 3 4 4 5 6 4 5
11 4 1 0 1 0 0 25 111 135 137 135 282 378 114 57 13 0 0 0 0 0 0 0 0 0 0 0 0 0 0 0 0 0 0 0 2 1 4 4 4 4 4
1 2 1 1 1 0 0 1 32 47 20 111 137 234 76 58 9 0 0 0 0 0 0 0 0 0 0 0 0 0 0 0 0 0 0 0 0 0 0 1 1 1 1
1 2 1 1 2 0 2 0 0 15 46 74 62 117 55 2 0 0 0 0 0 0 0 0 0 0 0 0 0 0 0 0 0 0 0 0 0 0 0 0 1 1 0
1 2 2 2 1 1 1 0 1 5 35 23 89 39 3 14 1 0 0 0 0 0 0 0 0 0 0 0 0 0 0 0 0 0 0 0 0 0 0 0 0 0 0
1 1 2 1 0 1 1 0 2 4 13 14 76 32 3 4 0 0 0 0 0 0 0 0 0 0 0 0 0 0 0 0 0 0 0 0 0 0 0 0 0 0 0
1 2 2 0 0 0 0 2 4 2 12 29 54 25 0 0 0 0 0 0 0 0 0 0 0 0 0 0 0 0 0 0 0 0 0 0 0 0 0 0 0 0 0
2 2 2 0 0 0 0 0 0 0 0 3 2 0 0 0 0 0 0 0 0 0 0 0 0 0 0 0 0 0 0 0 0 0 0 0 0 0 0 0 0 0 0
2 2 2 1 0 0 0 0 1 0 0 0 0 30 4 0 0 0 0 0 0 0 0 0 0 0 0 0 0 0 0 0 0 0 0 0 0 0 0 0 0 0 0
2 1 2 3 0 0 0 1 31 11 4 9 14 21 0 0 0 0 0 0 0 0 0 0 0 0 0 0 0 0 0 0 0 0 0 0 0 0 0 0 0 0 0
1 2 2 3 2 7 9 14 16 6 9 30 26 18 0 0 0 0 0 0 0 0 0 0 0 0 0 0 0 0 0 0 0 0 0 0 0 0 0 0 0 0 0
1 3 2 1 1 4 7 17 21 27 35 62 42 31 2 0 0 0 0 0 0 0 0 0 0 0 0 0 0 0 0 0 0 0 0 0 0 0 0 0 0 0 0
1 1 1 1 1 0 0 5 14 10 21 22 52 58 21 0 0 0 0 0 0 0 0 0 0 0 0 0 0 0 0 0 0 0 0 0 0 0 0 0 0 0 0
1 0 2 0 0 0 0 0 3 0 16 30 32 40 26 28 1 0 0 0 0 0 0 0 0 0 0 0 0 0 0 0 0 0 0 0 0 0 0 0 0 0 0
0 1 0 0 0 0 0 0 0 7 25 16 20 26 30 17 26 28 9 2 3 0 0 0 0 0 0 0 0 0 0 0 0 0 0 0 0 0 0 0 0 0 0
0 0 0 0 0 0 0 0 0 0 0 0 0 0 0 0 8 26 45 15 2 0 0 0 0 0 0 0 0 0 0 0 0 0 0 0 0 0 0 0 0 0 0
0 0 0 0 0 0 0 0 0 0 0 0 0 0 0 0 0 0 11 7 4 0 0 0 0 0 0 0 0 0 0 0 0 0 0 0 0 0 0 0 0 0 0
0 0 0 0 0 0 0 0 0 0 0 0 0 0 0 0 0 3 26 21 16 14 0 0 0 0 0 0 0 0 0 0 0 0 0 0 0 0 0 0 0 0 0

GFSSE_con_mlcape_078.txt.gz
CAPE
983 1233 1238 1117 1029 814 682 882 1281 1136 998 791 666 497 303 546 591 535 481 338 200 62 4 3 3 7 12 6 11 4 6 9 11 22 16 21 9 3 6 6 9 25 23
1090 1415 1268 1201 1123 972 824 963 1283 1275 1127 933 754 543 517 798 587 388 220 97 49 6 5 6 5 7 15 14 7 3 8 9 10 21 19 20 31 43 35 34 24 25 17
1482 1426 1148 1030 1004 1046 406 869 1163 1396 1243 988 862 704 791 616 414 214 180 94 29 3 7 11 8 4 6 9 3 1 6 5 2 2 3 12 40 49 42 37 22 22 18
1034 1230 899 908 727 594 481 350 678 1294 1117 1013 913 731 627 458 232 169 138 70 42 22 6 8 8 3 2 3 3 2 0 0 0 0 0 5 24 29 19 20 13 12 9
503 811 682 443 171 253 171 135 327 933 1101 989 809 656 555 350 207 166 106 70 54 72 72 41 19 9 0 0 1 0 0 0 0 0 0 0 3 4 8 4 9 10 6
575 614 601 313 146 125 67 22 6 335 642 854 763 597 453 267 169 122 85 73 33 15 4 9 11 1 0 0 0 0 0 0 0 0 0 2 3 12 5 6 8 7 2
443 354 480 185 28 38 29 22 0 25 317 483 624 393 383 247 77 59 25 49 9 0 0 4 2 0 0 0 0 0 0 0 0 0 0 0 7 9 10 6 5 7 7
389 338 386 242 198 225 254 213 128 64 226 391 487 369 357 172 62 20 33 5 0 0 0 0 0 0 0 0 0 0 0 0 0 0 0 2 8 8 9 5 5 5 6
122 316 192 170 47 21 13 74 158 118 86 264 300 390 328 111 56 28 1 0 0 0 0 0 0 0 0 0 0 0 0 0 0 0 0 2 9 8 4 5 4 4 4
18 47 100 38 0 0 24 1 22 117 48 163 144 239 257 108 37 0 0 0 0 0 0 0 0 0 0 0 0 0 0 0 0 0 0 3 5 4 5 2 2 2 2
4 4 5 4 0 0 0 46 36 69 66 27 67 130 179 50 16 0 0 0 0 0 0 0 0 0 0 0 0 0 0 0 0 0 0 2 5 5 2 0 0 2 1
0 1 1 0 0 0 0 3 90 40 32 40 72 124 124 22 0 0 0 0 0 0 0 0 0 0 0 0 0 0 0 0 0 0 0 0 2 2 2 1 0 0 0
1 2 2 1 0 0 0 0 3 1 5 37 22 130 39 0 0 0 0 0 0 0 0 0 0 0 0 0 0 0 0 0 0 0 0 0 1 1 1 2 0 0 0
1 1 2 1 1 0 0 1 2 16 13 0 24 43 21 0 0 0 0 0 0 0 0 0 0 0 0 0 0 0 0 0 0 0 0 0 0 2 1 0 0 0 0
1 1 1 0 0 1 0 0 2 6 4 7 22 36 4 0 0 0 0 0 0 0 0 0 0 0 0 0 0 0 0 0 0 0 0 0 0 0 0 0 0 0 0
1 2 1 1 0 0 0 1 1 2 14 38 48 37 6 0 0 0 0 0 0 0 0 0 0 0 0 0 0 0 0 0 0 0 0 0 0 0 0 0 0 0 0
1 2 1 0 1 0 0 0 2 0 4 44 46 4 2 0 0 0 0 0 0 0 0 0 0 0 0 0 0 0 0 0 0 0 0 0 0 0 0 0 0 0 0
2 2 1 1 1 0 0 0 9 6 19 44 51 10 1 0 0 0 0 0 0 0 0 0 0 0 0 0 0 0 0 0 0 0 0 0 0 0 0 0 0 0 0
1 2 2 2 1 1 3 6 13 11 3 20 49 29 6 0 0 0 0 0 0 0 0 0 0 0 0 0 0 0 0 0 0 0 0 0 0 0 0 0 0 0 0
1 2 2 1 2 1 7 13 9 8 7 29 20 27 8 0 0 0 0 0 0 0 0 0 0 0 0 0 0 0 0 0 0 0 0 0 0 0 0 0 0 0 0
1 3 2 1 3 2 3 1 5 0 5 19 13 20 43 0 0 0 0 0 0 0 0 0 0 0 0 0 0 0 0 0 0 0 0 0 0 0 0 0 0 0 0
1 4 2 1 2 0 0 2 0 1 13 17 39 38 13 0 0 0 0 0 0 0 0 0 0 0 0 0 0 0 0 0 0 0 0 0 0 0 0 0 0 0 0
2 2 1 0 0 0 0 0 0 0 16 40 55 62 57 20 4 0 0 0 0 0 0 0 0 0 0 0 0 0 0 0 0 0 0 0 0 0 0 0 0 0 0
0 1 1 0 0 0 0 0 0 0 12 21 18 39 34 48 49 0 0 0 3 0 0 0 0 0 0 0 0 0 0 0 0 0 0 0 0 0 0 0 0 0 0
0 1 0 0 0 0 0 0 0 0 0 0 3 15 14 14 5 19 14 9 7 0 0 0 0 0 0 0 0 0 0 0 0 0 0 0 0 0 0 0 0 0 0
0 1 0 0 0 0 0 0 0 0 0 0 0 0 0 0 0 0 6 14 21 13 0 1 0 0 0 0 0 0 0 0 0 0 0 0 0 0 0 0 0 0 0

GFSSE_con_mlcape_081.txt.gz
CAPE
862 1181 1161 960 983 1097 1436 1602 1281 1018 1050 1117 1000 782 421 401 666 591 649 540 308 174 76 16 17 24 18 6 10 21 13 12 21 14 9 9 7 6 13 6 8 7 10
1050 1443 1217 1125 1124 1063 1173 1518 1448 1370 1328 1216 942 737 851 615 742 737 637 413 189 55 9 8 12 18 16 9 8 5 15 21 15 18 17 18 20 11 9 3 0 0 0
1460 1677 1449 1192 1181 1098 1381 1626 1574 1536 1450 1191 912 830 860 844 762 661 424 200 56 5 7 8 11 20 11 16 7 7 6 1 2 10 26 20 20 14 4 0 0 1 1
1043 1610 1525 1309 1173 1023 1160 1335 1506 1554 1411 1268 977 952 866 782 629 506 252 148 47 8 13 7 6 17 10 4 2 0 0 0 0 0 19 11 16 19 12 10 7 13 12
566 1078 1303 1214 1089 738 599 622 896 1181 637 1152 1200 1080 825 638 579 461 222 129 12 7 5 12 10 4 4 1 0 0 0 0 0 1 9 7 6 9 9 8 8 7 5
574 795 933 982 893 760 556 349 351 358 214 689 1109 987 743 629 537 366 199 52 8 5 91 11 4 3 0 0 0 0 0 0 0 1 5 3 6 10 12 8 8 7 8
595 586 586 689 719 510 325 318 332 109 322 373 787 896 674 608 445 233 158 148 127 86 17 10 1 0 0 0 0 0 0 0 0 0 1 6 12 9 7 7 2 7 6
429 440 382 269 310 277 443 256 177 187 113 115 298 617 594 483 334 178 144 36 0 0 13 2 0 0 0 0 0 0 0 0 0 0 1 6 11 9 9 9 7 6 4
146 325 465 248 234 191 118 99 44 13 82 51 156 370 317 298 195 141 44 0 14 0 1 0 0 0 0 0 0 0 0 0 0 1 1 5 10 8 8 6 5 4 3
16 219 259 222 85 63 195 136 147 17 1 49 215 170 172 149 194 65 28 0 19 1 0 0 0 0 0 0 0 0 0 0 0 0 1 6 8 7 5 4 4 2 2
1 39 137 93 20 14 19 45 150 150 49 197 234 140 87 121 63 35 1 3 62 0 0 0 0 0 0 0 0 0 0 0 0 0 0 7 8 7 5 3 2 1 0
0 0 1 15 3 0 1 42 97 43 69 73 162 54 38 16 13 7 0 19 69 0 0 0 0 0 0 0 0 0 0 0 0 0 1 4 5 5 2 2 2 1 1
1 2 1 0 0 0 0 12 57 95 82 48 19 35 16 45 12 0 0 0 23 20 0 0 0 0 0 0 0 0 0 0 0 0 0 2 4 4 0 0 0 0 0
1 2 2 1 0 0 0 1 1 23 7 5 32 7 17 35 6 0 0 0 0 6 19 0 0 0 0 0 0 0 0 0 0 0 0 0 1 2 1 0 0 0 0
1 2 1 0 0 0 0 1 2 8 6 8 42 21 0 0 0 0 0 0 0 0 0 0 0 0 0 0 0 0 0 0 0 0 0 0 0 2 1 0 0 0 0
1 2 1 0 0 0 0 1 2 3 1 27 10 13 0 0 0 0 0 0 0 0 0 0 0 0 0 0 0 0 0 0 0 0 0 0 0 0 0 0 0 0 0
0 2 0 0 0 0 0 2 2 0 1 3 46 14 0 0 0 0 0 0 0 0 0 0 0 0 0 0 0 0 0 0 0 0 0 0 0 0 0 0 0 0 0
1 1 1 1 0 0 0 1 4 5 5 9 46 15 0 0 0 0 0 0 0 0 0 0 0 0 0 0 0 0 0 0 0 0 0 0 0 1 0 0 0 0 0
2 2 2 1 1 0 0 1 1 2 20 10 38 25 0 0 0 0 0 0 0 0 0 0 0 0 0 0 0 0 0 0 0 0 0 0 0 0 0 0 0 0 0
1 4 2 2 1 0 0 4 2 12 21 58 52 11 1 0 0 0 0 0 0 0 0 0 0 0 0 0 0 0 0 0 0 0 0 0 0 0 0 0 0 0 0
2 4 2 1 2 4 1 7 2 10 31 71 55 19 11 1 0 0 0 0 0 0 0 0 0 0 0 0 0 0 0 0 0 0 0 0 0 0 0 0 0 0 0
2 4 3 2 1 0 2 2 3 10 40 30 26 36 27 4 0 0 0 0 0 0 0 0 0 0 0 0 0 0 0 0 0 0 0 0 0 0 0 0 0 0 0
1 2 2 2 2 1 3 0 0 0 4 14 10 7 27 13 0 0 0 0 0 0 0 0 0 0 0 0 0 0 0 0 0 0 0 0 0 0 0 0 0 0 0
2 4 4 1 2 2 0 2 1 0 0 0 0 1 1 0 0 0 0 0 0 0 0 0 0 0 0 0 0 0 0 0 0 0 0 0 0 0 0 0 0 0 0
0 1 1 2 3 2 1 0 0 5 3 0 0 0 4 5 1 0 0 0 0 0 0 0 0 0 0 0 0 0 0 0 0 0 0 0 0 0 0 0 0 0 0
0 1 1 1 3 3 2 3 0 0 0 0 0 5 6 21 6 11 12 0 0 0 4 10 3 0 0 0 0 0 0 0 0 0 0 0 0 0 0 0 0 0 0

GFSSE_con_mlcape_084.txt.gz
CAPE
1217 1170 871 917 1129 1440 1763 1458 1151 1062 1098 959 970 881 670 666 792 679 517 285 233 241 138 59 18 17 29 22 12 10 1 3 3 15 19 27 21 13 1 0 4 13 16
1410 1344 1016 938 804 1298 1739 1574 1239 1162 1241 1235 1080 844 736 786 1002 674 532 387 243 190 88 36 20 21 19 17 15 15 4 2 0 5 11 20 19 9 0 1 3 6 6
1298 1653 1412 1092 846 856 1619 1698 1405 1276 1378 1339 1126 850 922 928 1009 950 768 484 331 110 48 26 16 10 10 3 7 7 8 16 21 32 26 16 14 5 0 2 2 3 5
1133 1753 1780 1364 1159 1035 1032 1557 1506 1472 1474 1313 1109 956 986 1043 1102 893 540 287 128 66 11 23 21 16 13 2 5 2 0 7 7 8 7 9 12 5 2 1 3 5 4
1007 1392 1944 1408 1279 1249 1562 1440 1074 869 1330 1231 1081 1041 1042 1111 1012 707 364 145 67 8 14 26 19 18 6 0 0 0 0 0 0 13 13 7 6 6 7 5 6 4 2
929 1230 1669 1338 1337 1366 1015 774 476 392 623 461 660 665 1085 994 884 594 316 195 66 64 11 11 20 15 0 0 0 0 0 0 0 1 7 4 1 7 4 0 5 6 8
748 976 1375 1189 1228 1095 579 235 226 340 386 126 92 465 698 875 642 429 281 114 68 31 6 7 4 3 0 0 0 0 0 0 1 0 0 1 5 8 6 9 6 6 4
682 789 953 943 944 724 570 454 415 220 237 247 22 279 524 800 637 407 224 163 144 44 0 2 3 0 0 0 0 0 0 0 0 0 0 1 10 8 9 7 5 5 5
429 637 730 755 722 328 548 284 327 308 346 333 72 214 399 648 464 372 404 250 166 0 0 0 0 0 0 0 0 0 0 0 0 0 0 2 9 11 7 8 7 7 8
75 262 460 521 685 558 403 112 112 155 303 327 260 221 251 274 312 268 187 150 92 0 0 0 0 0 0 0 0 0 0 0 0 0 0 0 6 7 7 7 6 6 6
1 66 220 321 254 146 248 246 184 40 102 39 27 75 94 102 236 154 140 129 76 0 0 0 0 0 0 0 0 0 0 0 0 0 0 5 7 6 6 6 6 5 4
123 0 10 41 73 104 179 133 116 258 125 42 28 71 60 88 131 134 163 134 55 0 0 0 0 0 0 0 0 0 0 0 0 0 0 6 8 8 5 5 2 2 1
20 2 1 1 4 0 4 68 128 304 200 112 33 25 53 52 97 138 130 110 34 0 0 0 0 0 0 0 0 0 0 0 0 0 0 2 5 8 6 3 2 0 0
3 3 3 1 1 0 0 3 49 237 145 146 7 6 24 1 30 86 107 61 24 1 0 0 0 0 0 0 0 0 0 0 0 3 3 3 3 7 3 1 0 0 0
1 3 4 2 0 1 2 17 8 58 39 13 0 1 2 16 1 56 93 101 44 28 3 0 0 0 0 0 0 0 0 0 0 0 0 2 5 4 3 1 0 0 0
6 3 3 4 1 6 5 2 0 8 3 0 5 5 2 7 15 15 18 16 83 86 51 1 0 0 0 0 0 0 0 0 0 0 0 0 0 3 2 0 0 0 0
2 3 4 4 1 3 11 2 1 2 6 4 0 4 24 38 27 2 0 0 1 6 9 0 0 0 0 0 0 0 0 0 0 0 0 0 0 1 0 0 0 0 0
1 2 4 3 2 6 3 3 0 4 5 16 13 19 26 23 1 0 0 0 0 0 0 0 0 0 0 0 0 0 0 0 0 0 0 0 0 0 0 0 0 0 0
1 2 4 4 2 5 5 2 3 1 0 16 14 10 7 0 0 0 0 0 0 0 0 0 0 0 0 0 0 0 0 0 0 0 0 0 0 1 4 0 0 0 0
2 3 3 3 1 2 5 4 6 13 10 1 22 16 0 0 0 0 0 0 0 0 0 0 0 0 0 0 0 0 0 0 0 0 0 0 0 0 1 6 0 0 0
6 2 2 1 4 8 5 3 6 4 16 12 18 9 1 0 0 0 0 0 0 0 0 0 0 0 0 0 0 0 0 0 0 0 0 0 0 0 0 0 0 5 0
5 4 2 0 2 2 6 6 4 13 5 5 6 18 2 0 0 0 0 0 0 0 0 0 0 0 0 0 0 0 0 0 0 0 0 0 0 0 0 0 0 0 0
9 6 1 4 0 2 9 5 2 7 40 25 29 17 17 8 0 0 0 0 0 17 8 0 0 0 0 0 0 1 39 31 20 0 0 0 0 0 0 0 0 0 0
5 7 7 3 3 1 8 5 1 1 2 20 28 16 20 44 42 6 2 6 21 10 0 8 4 1 0 5 0 0 0 36 36 32 0 0 0 0 0 0 0 0 0
2 3 7 3 4 2 4 1 0 3 0 17 9 3 15 55 83 27 12 10 20 0 6 24 14 20 16 18 22 15 0 0 0 2 30 6 0 0 0 0 0 0 0
2 0 9 3 6 2 2 4 1 1 0 5 0 0 0 25 57 78 34 22 16 13 23 69 83 72 41 44 43 43 46 19 17 12 13 24 19 3 0 0 0 0 0

GFSSE_con_mlcape_087.txt.gz
CAPE
1416 1467 794 759 964 1395 1601 1278 1126 1089 1129 1091 1118 762 512 815 796 744 473 342 384 295 86 81 278 312 126 10 0 0 0 12 20 34 42 26 17 14 12 6 11 18 16
1712 1689 977 841 1003 1393 1781 1508 1286 1168 1191 1231 1134 822 763 813 873 681 587 618 483 363 174 134 132 115 23 1 0 0 0 0 5 3 20 9 14 11 2 3 6 6 8
1723 1682 1529 816 719 1302 1908 1715 1395 1221 1294 1278 1153 941 937 900 832 633 792 696 510 296 186 106 51 15 12 4 1 1 0 0 0 17 13 10 13 7 4 4 3 4 6
1632 1902 1910 1226 930 864 1633 1570 1400 1307 1367 1317 1115 998 975 1076 851 826 684 606 479 334 173 49 0 17 9 0 0 0 0 0 0 2 7 8 11 6 3 1 2 3 3
1500 1748 2162 1603 1049 1007 907 1137 1225 1149 1030 1076 1051 981 1059 1178 967 897 704 550 411 247 121 40 6 14 0 0 0 1 0 0 0 5 8 7 13 4 4 1 2 2 0
1166 1727 1724 1558 1367 1424 1136 686 618 475 507 584 867 816 885 812 908 588 467 331 244 233 119 56 12 3 0 0 0 0 0 0 5 2 1 3 5 18 8 0 0 0 3
1093 1328 1670 1415 1288 1434 1339 697 408 1 112 11 36 152 380 470 728 485 348 256 239 177 87 37 2 0 0 0 0 0 0 0 6 1 2 3 9 7 11 9 7 6 5
918 1151 1301 1309 1022 1194 1107 555 187 107 142 7 28 165 181 288 397 321 308 195 145 28 4 4 0 0 0 0 0 0 0 0 3 2 1 4 9 9 8 8 7 5 6
673 857 1106 1380 953 609 601 412 230 142 86 73 34 59 46 148 221 274 252 186 87 0 2 1 0 0 0 0 0 0 0 0 2 0 1 5 13 7 6 6 7 7 7
492 726 878 1133 1222 734 714 189 223 233 198 61 124 56 85 98 125 244 294 203 77 0 0 2 0 0 0 0 0 0 0 0 1 1 0 4 9 12 8 5 6 6 6
340 511 679 860 930 720 697 457 77 78 92 85 45 77 20 113 161 218 272 144 9 0 0 0 0 0 0 0 0 0 0 3 3 1 0 6 11 11 10 7 7 6 5
341 354 406 347 609 636 364 427 231 209 71 144 84 75 65 141 201 192 222 90 4 0 0 0 0 0 0 0 0 0 3 8 11 1 2 7 7 13 9 6 6 6 4
329 142 78 5 21 282 361 230 190 308 78 62 42 65 87 53 95 140 154 130 4 0 0 0 0 0 0 0 0 0 1 3 9 1 3 7 11 11 9 5 3 2 3
154 3 2 3 1 2 0 5 204 144 318 90 33 8 97 23 74 154 182 107 0 0 0 0 0 0 0 0 0 0 0 5 10 0 2 2 9 8 6 4 2 1 0
161 1 2 3 2 1 1 1 1 109 208 53 66 14 69 38 34 72 112 77 0 1 2 0 1 0 0 0 0 0 0 4 4 0 1 0 4 6 4 3 1 0 0
57 5 0 5 3 2 0 0 26 17 103 16 10 6 1 0 29 22 129 90 89 31 19 14 3 0 0 0 0 0 1 0 5 0 0 3 3 3 3 1 0 0 0
27 5 3 4 3 1 16 1 1 8 4 4 2 1 1 0 12 48 108 98 135 104 81 60 18 0 0 0 0 0 0 0 1 5 0 0 0 0 0 0 0 0 0
17 4 1 1 2 5 4 2 2 1 2 2 2 3 0 0 0 0 73 124 149 153 83 31 6 0 0 0 0 0 0 0 0 5 5 1 0 0 0 0 0 0 0
6 6 0 2 1 4 5 3 2 2 3 2 3 2 0 0 0 0 48 54 59 69 38 31 0 0 0 0 0 0 0 0 0 0 3 5 2 0 0 0 0 0 0
0 1 4 1 0 7 5 5 3 1 1 0 1 0 0 4 2 33 28 3 1 0 10 0 0 0 0 0 0 0 0 0 0 0 0 0 1 0 3 2 0 0 0
1 1 4 3 1 4 2 4 3 4 3 0 0 0 1 14 19 20 1 0 0 0 0 0 0 0 0 0 0 0 0 0 0 0 0 0 0 0 0 0 5 0 0
5 1 3 3 1 4 3 6 2 2 1 1 1 0 0 2 16 32 35 12 0 0 0 0 0 0 0 0 0 0 0 0 0 0 0 0 0 0 0 0 0 0 0
2 0 1 3 4 10 5 4 5 13 27 26 4 0 0 1 13 46 89 14 11 5 22 33 21 0 1 0 0 32 56 55 17 0 0 0 0 0 0 0 0 0 0
58 0 11 3 3 9 12 5 1 0 0 1 0 0 36 53 6 0 22 29 18 23 49 82 84 88 50 29 0 0 6 46 51 36 3 0 0 0 0 0 0 0 0
181 2 8 6 3 5 7 2 2 0 0 0 0 0 30 44 24 0 0 56 123 130 142 119 120 113 98 85 44 35 7 4 20 18 0 9 0 0 0 0 0 0 0
153 2 6 7 2 3 3 5 1 1 0 2 1 4 9 27 18 14 14 58 121 150 108 157 155 138 134 106 93 82 57 33 7 10 4 37 50 1 0 0 0 0 0

GFSSE_con_mlcape_090.txt.gz
CAPE
1423 1100 732 693 1179 1582 1167 1163 1159 1105 985 918 789 500 693 652 455 313 238 160 161 161 57 90 222 292 215 210 117 88 61 41 25 33 42 45 39 29 13 11 11 11 22
1705 1410 923 810 874 1558 1493 1228 1120 1137 1202 1199 847 589 810 721 526 393 346 470 444 232 305 459 321 111 25 13 16 26 10 23 2 16 20 32 25 20 5 9 8 9 7
1751 1622 1233 794 901 1320 1781 1443 1204 1139 1208 1231 912 811 958 909 720 620 664 596 523 548 449 317 188 73 14 0 0 0 0 0 0 0 0 3 11 6 10 6 5 5 6
1704 2104 1874 958 739 1140 1780 1707 1457 1182 1220 1273 1077 902 1012 943 740 748 745 707 578 464 408 203 132 56 3 0 0 0 0 0 0 0 0 3 8 12 11 7 2 2 1
1560 1851 1982 1382 869 754 1494 1659 1668 1378 1154 1114 1229 1037 975 959 822 912 814 676 644 486 210 108 78 36 1 0 0 0 0 0 0 0 0 3 4 10 3 3 3 6 4
1262 1739 1723 1630 1429 1122 994 1459 1437 1284 881 674 12 1 890 977 871 910 656 506 436 291 126 76 51 12 3 1 0 0 6 22 21 0 0 5 4 13 10 6 3 0 8
1087 1529 1725 1482 1430 1349 1138 978 1205 922 711 356 39 1 24 527 592 549 535 462 375 275 149 46 20 3 0 0 0 0 2 6 1 0 0 0 9 8 4 2 3 2 6
960 1296 1245 1262 1158 1283 1329 1128 887 469 205 13 0 0 0 149 147 204 371 342 409 273 101 49 19 2 0 0 0 0 0 0 6 0 0 3 10 3 5 1 0 5 8
695 910 1198 1103 923 868 1142 965 504 257 25 40 0 0 4 104 102 160 177 291 308 143 41 21 3 0 0 0 0 0 0 0 0 0 0 2 7 6 5 13 13 8 6
567 756 900 1015 940 802 765 636 347 326 174 43 10 5 0 78 85 156 150 202 153 39 23 2 0 0 0 0 0 0 0 0 0 0 1 8 16 11 3 15 10 7 6
388 488 610 609 979 767 672 279 221 329 156 114 55 13 1 22 65 129 90 122 58 6 1 0 0 0 0 0 0 0 0 0 0 0 0 8 6 8 2 5 6 5 6
443 455 420 463 737 724 698 177 127 175 159 64 22 48 12 5 41 88 94 87 37 3 1 0 0 0 0 0 0 0 0 6 0 0 0 5 8 5 6 5 5 6 5
760 345 196 70 79 566 548 172 71 99 15 42 31 46 0 46 65 69 145 58 9 0 0 0 0 0 0 0 0 0 0 4 0 0 1 3 6 8 5 6 7 4 3
460 208 76 0 1 9 87 149 78 62 48 48 47 35 0 55 81 105 67 11 0 0 0 0 0 0 0 0 0 0 9 1 0 0 0 2 6 5 5 3 1 1 2
334 30 0 0 0 2 0 3 5 78 129 38 41 32 10 30 64 85 67 1 0 0 0 0 0 0 0 0 0 0 3 2 0 0 0 0 1 4 5 5 2 1 1
167 21 0 3 0 0 0 0 4 3 83 133 22 14 6 42 34 55 28 3 0 0 0 0 0 0 0 0 0 0 7 1 0 0 0 0 0 3 4 4 1 0 0
36 43 0 0 1 3 0 0 0 23 22 41 63 23 16 4 19 19 9 8 9 17 0 12 0 0 0 0 0 0 0 3 0 0 0 0 0 0 0 0 0 0 0
32 15 0 1 0 6 2 2 4 5 13 0 0 20 3 6 1 24 6 51 26 42 16 16 5 0 0 0 0 0 0 3 0 0 0 0 0 0 0 0 0 0 0
16 2 0 0 1 0 3 3 0 0 0 2 1 1 1 1 0 30 32 69 97 81 49 27 0 0 0 0 0 0 0 0 0 0 0 0 0 0 0 0 0 0 0
17 0 0 0 3 1 2 1 2 2 2 1 2 1 1 0 0 1 11 26 48 49 39 13 2 3 1 1 0 0 0 0 0 0 6 0 0 0 0 0 0 0 0
8 0 0 1 2 2 2 1 2 2 2 3 2 1 0 0 0 0 0 3 14 29 28 19 27 32 0 0 0 0 0 0 0 0 0 0 0 0 0 0 0 0 0
12 0 0 1 1 6 2 1 0 1 0 0 0 0 0 0 0 0 0 0 5 1 3 6 0 0 0 0 0 0 0 0 0 0 0 0 0 0 0 0 0 0 0
11 0 0 0 2 6 3 2 3 1 1 1 2 2 0 0 0 0 0 0 3 0 0 0 0 0 0 0 0 0 2 0 0 0 0 0 0 0 0 0 0 0 0
45 0 0 3 3 4 3 1 0 0 0 0 0 0 2 0 0 0 0 5 0 0 0 0 1 0 7 0 0 0 1 25 38 3 0 0 0 0 0 0 0 0 0
36 0 0 3 6 7 0 1 0 0 0 0 2 0 0 0 0 31 66 36 24 0 18 9 50 53 22 19 0 1 0 0 7 35 0 0 0 0 0 0 0 0 0
100 0 0 2 6 6 5 0 0 0 0 1 0 0 0 0 5 5 29 24 15 14 15 56 74 120 66 47 91 90 35 14 18 9 2 2 3 0 0 0 0 0 0

GFSSE_con_mlcape_093.txt.gz
CAPE
1042 848 988 1348 1246 1121 1080 1085 1103 1003 905 751 687 755 698 677 669 678 647 571 594 622 563 640 622 550 622 528 300 229 161 115 117 97 100 73 82 57 29 12 11 26 27
1086 930 822 1143 1519 1281 1196 1167 1107 978 1054 865 792 768 669 603 570 489 446 383 307 352 534 627 550 544 471 337 178 105 47 27 53 50 54 76 54 47 32 19 18 28 53
1370 1093 943 849 1387 1512 1337 1265 1198 1137 1306 1117 834 718 582 578 546 462 407 340 292 457 508 510 402 409 367 151 121 40 4 0 0 0 0 1 27 43 29 11 10 14 15
1645 1414 1013 880 1067 1521 1560 1419 1313 1306 1390 1291 1024 1082 846 655 579 591 507 429 766 730 581 319 215 256 176 60 30 4 0 0 0 0 1 6 18 41 27 17 4 1 5
1520 1820 1336 1006 892 1306 1639 1638 1504 1381 1404 1342 1042 162 62 652 829 748 679 671 686 728 503 291 140 111 32 18 0 0 0 0 0 0 0 5 15 36 19 7 4 0 5
1601 1802 1491 1128 921 1076 1568 1761 1736 1502 1434 699 156 15 0 0 634 892 733 651 664 499 343 227 111 2 0 0 13 5 2 0 0 0 0 7 14 27 12 10 6 7 2
1541 1619 1592 1544 1409 1050 1324 1747 1729 1612 1429 427 25 19 5 0 0 521 506 669 554 349 254 89 40 0 0 4 0 0 2 0 0 0 0 7 17 16 7 4 6 2 6
1040 1263 1311 1393 1427 1406 1184 1119 1710 1580 1111 565 290 29 0 0 0 189 285 461 447 280 127 48 3 0 8 0 0 0 0 0 0 0 0 7 22 23 18 5 2 3 8
634 1083 1004 905 804 1057 1332 1124 1014 1123 855 485 48 1 0 0 19 167 262 295 339 173 54 32 14 23 4 0 0 0 0 0 0 0 0 13 23 18 4 9 3 1 1
244 566 919 792 618 663 988 997 695 494 92 18 2 0 0 0 5 172 139 213 235 149 42 18 3 18 8 0 0 0 0 0 0 0 0 12 19 6 5 6 6 7 5
156 362 544 734 652 619 685 643 517 363 86 15 5 0 0 4 50 80 118 182 168 95 18 11 3 4 0 0 0 0 0 0 0 0 0 4 6 9 7 6 5 5 6
208 171 252 267 699 589 488 331 332 361 141 4 10 16 0 3 53 44 99 73 103 57 0 0 4 0 0 0 0 0 0 0 0 0 0 3 1 12 10 8 5 3 3
274 225 167 63 121 646 566 201 101 178 107 32 44 3 4 16 17 14 68 72 39 4 0 0 0 0 0 0 0 0 0 0 0 0 0 8 8 15 11 7 5 3 3
402 191 27 0 0 72 462 227 124 20 6 7 35 11 1 6 27 10 3 2 0 0 0 0 0 0 0 0 0 0 0 0 0 0 0 3 10 10 7 4 5 3 1
251 20 0 0 0 0 101 217 122 49 6 2 24 4 13 23 14 6 1 0 0 0 0 0 0 0 0 0 0 0 0 0 0 0 0 1 3 5 5 2 2 1 1
35 0 0 0 0 1 0 2 2 25 23 1 18 1 12 26 32 9 0 0 0 0 0 0 0 0 0 0 0 0 0 0 0 0 0 0 0 0 1 1 0 0 1
38 0 0 0 0 0 0 0 0 1 18 18 5 27 1 32 39 0 0 0 0 0 0 0 0 0 0 0 0 0 0 0 0 0 0 0 0 0 0 0 0 0 0
0 0 0 0 0 2 0 0 0 3 0 40 6 4 11 30 16 1 0 0 0 0 0 0 0 0 0 0 0 0 0 0 0 0 0 0 0 0 0 0 0 0 0
0 0 0 0 0 3 3 1 0 5 8 6 6 6 7 16 16 1 0 0 0 0 0 2 0 0 0 0 0 0 0 0 0 0 0 0 0 0 0 0 0 0 0
0 0 0 0 0 2 0 0 0 1 0 0 0 3 7 6 4 2 0 0 15 0 9 2 0 0 0 0 0 0 0 0 0 0 0 0 0 0 0 0 0 0 0
0 0 0 0 0 0 0 1 0 0 1 1 0 0 0 2 1 1 0 8 36 9 3 3 0 0 0 0 1 0 0 0 0 0 0 0 0 0 0 0 0 0 0
0 0 0 0 1 2 0 0 0 2 2 1 2 2 1 1 1 0 0 2 20 20 13 0 0 0 0 0 0 0 0 0 0 0 0 0 0 0 0 0 0 0 0
0 0 0 0 8 1 1 1 1 1 2 2 1 1 1 1 0 0 0 0 6 24 8 0 0 4 0 0 0 0 0 0 0 0 0 0 0 0 0 0 0 0 0
0 0 0 0 3 2 1 1 0 0 1 1 0 0 0 2 0 0 0 0 0 1 0 0 12 0 0 0 0 0 3 9 0 0 0 0 0 0 0 0 0 0 0
0 0 0 0 3 1 0 0 0 1 0 1 1 1 0 0 0 0 0 0 0 0 0 0 0 0 0 0 0 0 0 0 5 17 0 0 0 0 0 0 0 0 0
0 0 0 0 3 1 0 0 0 0 0 0 1 1 0 0 0 0 0 0 0 0 2 0 0 0 0 0 0 0 0 0 0 0 0 0 0 0 0 0 0 0 0

GFSSE_con_mlcape_099.txt.gz
CAPE
913 961 982 1193 1178 935 923 947 853 629 968 1176 1353 1248 1133 1077 1089 1155 1052 1039 1092 924 1022 852 668 585 845 817 648 459 294 141 108 153 270 159 144 152 128 94 66 63 112
863 1166 1109 1256 1182 926 804 884 955 930 811 1223 1409 1397 1298 1203 1196 1146 1011 1019 1191 1075 1002 1010 865 745 876 726 480 387 287 231 200 160 128 90 50 66 70 47 32 42 84
894 1194 1190 1189 1207 1043 916 783 904 1092 965 886 1130 1307 1338 1300 1300 1279 1067 993 1049 742 904 916 907 842 773 644 505 405 320 236 231 190 128 66 34 42 33 31 27 55 47
849 1122 1245 1138 1193 1176 1001 964 1045 1206 1145 1090 1111 1216 1331 1328 1256 1223 1140 1162 1056 906 722 955 837 752 574 512 368 252 168 145 87 23 5 17 51 42 41 29 11 30 37
784 991 1277 1209 1195 1270 1164 962 1206 1379 1274 1101 1154 1201 1240 1211 1269 1116 1092 1063 1032 922 650 1015 826 632 447 323 168 71 21 7 1 0 2 10 18 33 16 8 9 0 1
914 905 1037 1296 1318 1409 1395 1313 1405 1395 1370 1318 1284 1250 1301 1243 1097 849 787 948 966 822 729 894 548 419 286 162 50 13 0 0 0 0 0 7 8 14 1 5 5 7 9
1120 1074 1032 1211 1533 1523 1606 1567 1518 1609 1230 1020 819 926 1124 1228 1045 710 674 647 678 608 580 479 424 260 162 82 16 0 0 0 0 0 0 0 6 3 6 8 8 8 8
1230 1209 1082 1096 1383 1811 1835 1725 1623 1559 1054 756 511 464 617 712 581 679 614 173 503 505 342 353 305 160 112 21 0 0 0 0 0 0 0 0 12 8 4 6 10 7 8
1449 1295 1088 1001 1042 1400 1768 1787 1670 1425 933 606 349 183 201 192 65 207 251 273 419 261 219 278 166 116 40 0 0 0 0 0 0 0 0 0 14 11 10 8 4 7 4
1336 1264 1247 1229 1133 1055 1136 1588 1739 1413 918 584 327 159 111 75 55 36 30 221 258 188 201 212 155 46 0 0 0 0 0 0 0 0 0 0 13 15 8 6 6 11 5
989 945 794 619 493 583 928 1034 1172 1303 991 687 405 203 150 180 48 25 30 53 115 68 128 209 143 18 0 0 0 0 0 0 0 0 0 3 11 4 9 20 12 13 6
270 460 468 281 171 174 458 907 865 821 774 601 510 384 142 0 2 38 85 155 85 138 111 131 116 4 0 0 0 0 0 0 0 0 0 9 15 6 5 15 8 3 7
0 98 242 265 213 254 319 355 340 373 279 211 193 10 0 0 0 58 37 135 160 94 98 92 21 0 0 0 0 0 0 0 0 0 0 9 14 9 5 7 4 5 7
0 9 153 303 255 225 130 150 124 176 75 25 0 0 0 0 0 59 39 10 16 66 82 63 0 0 0 0 0 0 0 0 0 0 1 3 7 6 12 11 8 7 5
0 47 133 142 172 207 144 93 60 80 53 19 0 0 0 0 28 61 90 47 69 34 36 11 0 0 0 0 0 0 0 0 0 0 1 8 8 10 11 11 10 8 5
12 59 100 67 110 229 190 89 17 11 53 7 2 1 0 0 19 72 49 75 50 11 5 1 0 0 0 0 0 0 0 0 0 0 0 5 5 6 5 8 9 6 4
29 30 69 33 10 92 124 62 14 1 19 13 0 9 8 2 9 20 25 1 1 0 1 0 0 0 0 0 0 0 0 0 0 0 0 0 0 0 2 3 6 3 2
35 21 18 0 0 0 10 0 21 12 0 30 24 11 12 9 1 2 11 0 0 0 1 0 0 0 0 0 0 0 0 0 0 0 0 0 0 0 0 2 3 2 2
15 3 0 0 0 0 0 0 0 1 80 36 15 5 9 10 0 1 0 1 0 0 0 0 0 0 0 0 0 0 0 0 0 0 0 0 0 0 0 0 0 0 0
0 0 0 0 0 0 0 0 0 3 8 38 29 10 15 17 1 1 0 0 0 0 0 0 0 0 0 0 0 0 0 0 0 0 0 0 0 0 0 0 0 0 0
0 0 0 0 0 0 0 0 0 0 0 6 23 31 12 24 1 1 0 0 0 0 0 0 0 0 0 0 0 0 0 0 0 0 0 0 0 0 0 0 0 0 0
0 3 0 0 0 0 0 0 0 0 0 0 18 15 23 34 2 1 0 0 0 0 0 0 0 0 0 0 0 0 0 0 0 0 0 0 0 0 0 0 0 0 0
1 5 0 0 0 0 0 0 0 0 0 0 0 0 4 30 1 1 0 0 0 0 0 0 0 0 0 0 0 0 0 0 0 0 0 0 0 0 0 0 0 0 0
0 0 0 0 0 0 0 0 0 0 0 0 0 0 0 3 3 2 1 0 0 0 0 0 0 2 0 0 0 0 0 0 12 0 0 0 0 0 0 0 0 0 0
0 0 0 0 0 0 0 0 0 0 0 0 0 0 1 0 2 2 1 0 0 0 0 0 3 9 1 2 0 0 7 2 0 0 0 0 0 0 0 0 0 0 0
0 1 0 0 0 0 0 0 0 0 0 0 0 1 1 0 0 0 1 0 1 23 2 4 8 27 25 16 9 8 17 7 1 9 6 0 0 0 0 0 0 0 0

GFSSE_con_mlcape_102.txt.gz
CAPE
807 781 970 1078 1146 1082 801 672 852 1141 1358 1334 1263 1145 1131 1170 1233 1249 1165 1144 1228 1151 1129 1061 993 1017 992 948 743 602 340 343 450 472 383 377 331 335 269 153 137 142 188
767 832 986 1136 1069 1001 798 655 912 1232 1503 1499 1385 1232 1188 1221 1263 1194 1215 1259 1303 1325 1177 1089 1021 1072 1083 882 642 445 290 296 273 267 211 280 224 170 191 107 96 128 135
677 783 965 1222 1008 892 843 715 775 1217 1586 1690 1553 1382 1368 1341 1301 1176 1145 1187 1376 1394 1264 1133 1078 1160 1028 693 557 477 357 274 177 163 60 17 53 95 131 123 130 116 111
661 887 1033 1257 1099 872 897 883 789 1167 1612 1686 1635 1575 1548 1557 1479 1371 1434 1125 1223 1317 1317 1146 1202 1105 922 530 561 503 389 268 169 62 11 21 33 104 89 101 79 94 69
739 927 1052 1244 1190 1052 915 966 1074 970 1366 1691 1718 1693 1699 1724 1518 1398 1280 1096 987 1011 1152 1144 1068 979 799 613 530 398 283 122 41 16 25 11 7 80 52 40 51 19 17
682 925 1097 1226 1300 1305 1182 1184 1346 1246 932 1163 1574 1707 1711 1719 1682 1369 1133 819 858 862 993 954 878 691 629 445 317 196 91 31 16 14 8 31 8 20 2 0 0 0 0
535 785 1160 1277 1342 1439 1363 1370 1488 1426 1108 1038 1283 1476 1566 1648 1436 1092 680 503 679 796 794 868 625 603 423 221 137 75 25 8 1 1 0 1 6 4 0 1 0 0 1
486 720 998 1403 1409 1527 1513 1401 1536 1468 1344 1180 1248 1420 1464 1465 1231 716 606 746 653 572 585 545 472 503 267 132 49 4 1 0 0 0 0 0 2 1 7 2 4 7 7
843 911 916 1174 1509 1659 1636 1553 1551 1394 1238 952 999 1222 1267 1158 955 940 927 865 414 204 295 380 439 340 200 76 17 0 0 0 0 0 0 0 2 10 6 8 9 8 8
1141 1037 945 964 1209 1523 1619 1604 1557 1335 1115 895 557 636 615 525 501 518 820 193 399 617 544 286 298 189 97 26 0 0 0 0 0 0 0 0 2 9 9 3 12 3 7
1275 1152 979 936 921 978 1228 1519 1572 1305 1024 928 653 298 182 184 107 110 155 267 391 199 233 158 170 75 20 2 0 0 0 0 0 0 0 0 8 8 13 5 14 10 10
1010 1022 1005 1014 958 794 805 804 1237 1169 894 809 611 302 115 90 61 115 35 39 141 95 101 155 57 59 0 0 0 0 0 0 0 0 0 2 23 8 16 16 8 4 12
805 740 751 609 444 353 575 552 669 936 859 654 556 265 72 50 81 10 1 13 69 73 81 87 31 0 0 0 0 0 0 0 0 0 1 9 21 8 17 11 12 11 12
203 294 443 358 178 94 139 338 531 453 394 367 326 199 100 83 1 0 15 72 77 76 81 58 0 0 0 0 0 0 0 0 0 0 0 34 16 16 5 13 13 2 9
0 23 155 270 183 101 129 144 247 119 107 93 128 99 12 2 0 0 12 47 85 59 31 1 0 0 0 0 0 0 0 0 0 0 2 11 8 12 9 2 6 8 14
0 0 1 108 221 158 135 88 78 63 53 12 0 0 2 0 0 0 19 28 30 1 2 0 0 4 0 0 0 0 0 0 0 0 0 6 3 10 11 3 4 12 5
0 1 0 33 142 206 125 34 24 13 18 1 0 0 0 0 0 0 19 31 6 0 6 0 4 0 0 0 0 0 0 0 0 0 1 4 5 8 7 8 12 8 8
0 30 0 20 84 111 97 2 0 0 3 3 1 1 1 3 0 2 23 32 5 12 0 0 0 0 0 0 0 0 0 0 0 0 0 0 2 4 10 9 11 10 7
0 0 1 4 74 59 6 0 0 0 3 3 0 2 4 12 1 7 6 8 3 1 1 0 0 0 0 0 0 0 0 0 0 0 0 0 0 0 1 8 5 3 5
0 0 0 0 20 0 0 0 0 0 0 4 4 2 6 13 1 0 0 1 2 1 1 0 0 3 1 0 0 0 0 0 0 0 0 0 0 0 0 0 0 0 0
0 0 2 0 0 0 0 0 0 1 0 13 15 22 17 15 0 1 1 1 2 0 0 0 0 5 0 0 0 0 0 0 0 0 0 0 0 0 0 0 0 0 0
0 0 0 0 0 0 0 1 0 0 1 2 18 33 23 36 1 2 0 0 0 0 0 0 3 1 0 0 0 0 1 0 0 0 0 0 0 0 0 0 0 0 0
0 0 0 0 0 0 0 0 1 1 1 0 3 18 22 45 2 2 1 1 0 0 0 0 1 1 0 0 1 0 0 0 0 0 0 0 0 0 0 0 0 0 0
0 0 0 0 0 1 0 0 0 0 0 0 0 0 2 21 4 1 2 0 0 0 0 0 0 0 0 0 0 0 0 0 0 0 0 0 0 0 0 0 0 0 0
0 0 0 0 2 0 0 0 0 0 0 0 0 0 0 0 1 2 1 2 0 0 0 0 0 0 0 6 0 0 0 0 0 0 0 0 0 0 0 0 0 0 0
0 0 0 1 0 3 0 0 0 0 0 0 0 0 0 0 0 3 2 1 0 0 0 0 0 0 0 5 6 5 2 3 1 4 0 0 0 0 0 0 0 0 0

GFSSE_con_mlcape_108.txt.gz
CAPE
474 967 582 666 730 876 861 828 981 1308 1406 1278 1121 1250 1261 1410 1486 1585 1561 1513 1444 1390 1352 1407 1255 1231 1200 1044 975 996 904 820 827 807 715 721 740 653 568 499 534 532 460
491 1077 619 792 803 895 801 816 1162 1404 1523 1415 1315 1348 1342 1521 1605 1701 1648 1491 1436 1507 1513 1392 1245 1335 1291 1014 940 827 760 745 777 736 647 681 666 568 532 486 486 472 381
818 1204 880 859 876 871 898 1116 1412 1548 1630 1588 1490 1548 1584 1666 1661 1718 1570 1496 1476 1555 1586 1521 1484 1494 1267 957 844 742 755 756 616 592 618 515 587 601 579 453 424 400 377
995 1398 1360 878 902 791 830 1134 1517 1652 1714 1724 1691 1655 1649 1747 1775 1764 1611 1488 1494 1508 1699 1653 1654 1619 1123 841 816 787 747 706 501 389 378 448 532 567 519 418 411 432 396
933 1405 1617 906 1017 805 706 984 1484 1794 1766 1818 1890 1839 1799 1790 1785 1773 1603 1537 1655 1576 1532 1680 1619 1429 1012 854 747 691 640 414 194 219 151 268 334 477 478 506 348 267 330
931 1280 1493 961 1128 973 783 983 1398 1764 1890 1944 1949 1925 1855 1920 1904 1523 1461 1487 1312 1239 1458 1531 1432 1220 931 748 672 597 394 129 50 161 96 70 153 400 355 202 169 131 98
970 1235 1723 1168 1148 1177 1021 977 1360 1700 1891 1996 2044 2042 2002 1928 1598 1390 1389 1317 1089 1194 1192 700 1376 1015 820 675 590 435 232 75 323 260 216 293 369 265 255 162 58 51 41
1260 1515 1736 1385 1234 1168 1173 1172 1198 1445 1771 1985 2034 2020 2013 1706 1447 1281 1154 1185 1037 1041 801 1392 1293 900 772 656 492 331 155 146 162 186 198 242 85 160 77 1 24 0 0
1558 1580 1839 1764 1601 1298 1268 1233 1177 1232 1554 1870 1849 2003 1942 1633 1237 1076 1110 991 744 287 520 841 1157 758 721 562 376 239 140 309 340 276 189 171 27 10 7 0 0 0 0
1515 1537 1781 1815 1813 1851 1747 1317 1365 1317 1275 1693 1920 2044 1812 1503 1340 1036 986 871 287 524 800 776 533 481 510 374 228 165 161 261 315 209 126 120 53 31 6 0 0 0 0
1311 1281 1532 1698 1777 1934 1942 1759 1322 1360 1092 1276 1626 1742 1339 1398 1138 1093 880 829 261 475 544 472 491 535 242 176 114 119 153 303 268 207 126 9 13 18 12 2 0 0 6
1225 1215 1289 1536 1638 1776 1702 2027 1860 1813 1494 1666 1427 1391 1417 1146 1166 982 821 629 365 369 343 328 514 267 119 67 65 83 289 267 262 144 54 2 12 14 15 9 4 8 7
922 1122 1234 1576 1659 1715 1617 1490 1969 1780 1860 1785 1742 1664 1547 1261 1044 892 831 520 410 395 281 534 307 195 95 67 52 84 203 247 170 81 21 0 13 15 16 5 17 11 15
809 1101 1385 1492 1659 1621 1474 1439 1506 1474 1748 1626 1681 1499 1556 1341 1203 1000 732 658 436 367 472 476 203 207 121 55 55 128 139 196 23 39 9 8 8 8 15 16 12 23 20
908 1207 1347 1360 1645 1569 1603 1291 1172 1385 1503 1438 1442 1519 1265 1014 819 816 621 537 472 521 612 231 297 124 76 39 49 155 142 84 31 53 21 17 24 21 22 7 32 30 29
469 1003 1304 1243 1443 1577 1591 1275 1229 1139 1023 1421 1311 1150 1168 1235 835 847 691 433 262 607 612 349 202 119 85 28 23 119 94 77 50 38 34 24 29 22 24 19 36 23 30
95 365 929 1457 1530 1615 1387 1077 989 882 860 1124 869 689 959 848 944 772 698 393 615 322 297 254 75 83 33 3 51 72 70 63 49 27 19 25 29 22 20 14 22 31 26
0 8 362 744 1213 1534 1250 925 536 502 616 463 462 412 538 526 801 670 425 373 211 97 45 10 1 2 2 1 33 55 42 48 27 15 26 19 35 22 10 14 20 35 17
0 0 18 449 653 1161 1280 952 503 462 461 759 563 230 129 359 538 326 332 84 29 3 1 2 3 0 1 0 33 79 48 46 21 18 30 40 27 34 13 12 28 23 11
0 0 0 15 400 537 1165 851 447 386 401 534 568 377 371 279 144 204 166 42 1 0 2 2 2 2 3 0 34 78 55 33 21 11 20 11 33 21 5 22 23 11 6
0 0 0 0 175 342 700 497 214 126 244 306 366 307 296 146 180 32 5 17 2 2 3 1 1 1 2 1 44 88 57 29 11 7 16 19 25 24 26 29 25 7 3
0 0 0 1 171 381 352 226 265 180 154 171 172 370 110 74 38 4 3 4 1 3 3 3 1 1 0 0 30 34 19 10 25 12 34 25 21 26 18 39 19 10 9
0 0 0 0 88 349 296 62 259 223 164 67 57 49 14 36 10 2 3 3 2 2 2 1 1 1 3 19 21 8 7 14 22 20 24 25 19 23 42 33 17 16 18
0 0 0 0 41 209 267 88 319 230 105 82 3 4 6 9 5 3 6 4 2 1 1 2 2 1 3 9 14 30 38 9 1 11 20 15 18 18 20 27 24 15 12
0 0 0 0 41 18 192 102 303 397 351 222 112 21 3 2 6 10 3 2 2 2 1 1 5 4 2 1 2 2 41 14 15 0 8 7 10 15 18 15 7 2 1
0 0 38 20 8 3 16 89 341 530 386 67 2 5 1 2 5 6 2 3 2 2 2 3 3 3 0 0 3 0 47 55 21 11 10 0 0 0 6 6 1 0 0

GFSSE_con_mlcape_111.txt.gz
CAPE
639 1089 502 669 800 868 841 772 850 1136 1275 1203 1158 1178 1177 1304 1384 1521 1541 1502 1452 1415 1665 1649 1488 1360 1288 1005 950 968 903 915 894 922 973 941 773 640 576 563 494 637 576
452 883 493 618 706 786 756 765 911 1173 1510 1412 1269 1336 1309 1311 1417 1500 1505 1450 1470 1504 1683 1580 1459 1467 1383 1270 1065 960 930 901 879 870 853 861 798 641 555 495 594 589 487
693 997 706 639 750 844 819 870 1178 1545 1706 1592 1427 1457 1506 1544 1590 1652 1581 1394 1499 1678 1764 1573 1501 1587 1435 1165 970 948 943 886 771 686 733 599 747 847 618 516 479 502 492
731 1093 1125 642 788 778 805 981 1290 1626 1861 1801 1601 1653 1574 1610 1731 1744 1617 1459 1551 1688 1819 1654 1713 1596 1274 961 904 927 913 750 585 577 612 508 637 783 623 493 603 596 491
654 1065 1451 664 760 786 859 1074 1451 1709 1894 1880 1740 1766 1677 1650 1720 1816 1610 1532 1524 1641 1834 1782 1777 1494 1112 961 924 847 761 568 458 663 536 532 485 636 662 640 525 249 320
541 817 1229 696 780 808 865 1210 1660 1827 1886 1850 1806 1874 1762 1794 1904 1890 1641 1568 1669 1715 1802 1722 1637 1322 982 934 866 808 635 399 317 595 212 286 464 488 429 242 276 144 104
583 1137 1518 807 922 889 891 1107 1595 1922 1944 1968 1983 2067 1959 1965 1935 1707 1537 1672 1616 1452 1368 1324 997 760 918 876 790 660 453 221 300 389 158 374 491 407 388 186 92 76 48
832 1394 2033 1011 1106 995 924 1033 1415 1759 1997 2094 2092 2216 2079 1982 1794 1601 1517 1620 1483 1375 1443 1271 966 910 881 808 669 510 313 158 260 375 423 315 324 354 309 187 60 35 0
1195 1635 2117 1695 1310 1056 966 1013 1141 1490 1790 2016 2106 2091 1832 1741 1546 1478 1391 1109 1167 1219 1238 851 1078 910 870 752 518 386 221 172 291 400 368 359 157 267 168 58 0 0 0
1382 1536 2006 2020 1776 1591 1386 1079 1074 1149 1451 1718 1984 1975 1634 1284 1355 1149 1035 982 978 1024 838 1053 818 467 517 160 299 306 202 180 470 315 390 219 117 102 26 1 0 0 0
1173 1252 1608 1849 1852 1909 1899 1629 1216 1252 1134 1425 1730 1649 1704 1267 1270 1193 983 893 636 133 499 589 220 614 362 163 182 178 175 333 222 226 282 75 123 34 13 7 0 0 0
1097 921 1197 1517 1593 1688 1527 1972 1660 1718 1579 1377 1482 1795 1968 1424 1332 1207 1132 832 729 271 318 399 366 271 199 296 142 140 131 325 261 133 210 74 94 46 5 13 3 0 0
964 765 705 1415 1603 1604 1207 1517 1633 1689 1786 1701 1559 1566 1615 1566 1356 1218 1037 973 814 419 356 327 343 384 453 284 235 128 28 136 69 107 63 39 37 12 5 9 7 0 3
536 852 844 1062 1571 1817 1264 1212 1343 1966 1781 1746 1838 1970 1743 1445 1447 1252 1042 964 837 597 328 438 634 632 478 278 242 102 79 80 128 89 36 14 19 18 7 10 12 8 15
44 462 914 1208 1629 1878 1829 1317 1295 2020 1782 1776 1774 1707 1834 1595 1426 1244 1044 911 726 606 501 538 627 564 365 176 163 76 85 47 62 62 30 9 24 22 4 6 20 16 15
0 85 944 1439 1796 1852 1803 1624 1438 1564 1886 1745 1640 1621 1831 1627 1502 1239 1217 1042 1020 767 782 644 497 514 255 120 116 61 34 30 36 74 55 10 13 19 11 18 25 19 16
0 0 760 1510 2149 1900 1808 1697 1612 1342 1454 1719 1518 1655 1757 1765 1500 1325 1147 841 860 764 657 554 490 411 244 60 59 42 35 104 57 57 42 15 35 27 18 26 27 16 18
0 0 23 955 1708 1867 1966 1833 1662 1233 1280 1266 1353 1340 1507 1606 1453 1253 1032 943 685 643 505 549 377 202 117 35 44 22 53 61 52 63 22 12 41 37 30 29 15 9 15
0 0 0 327 1071 1700 2025 1919 1751 1181 1145 1105 1013 918 1152 989 953 890 882 887 679 461 353 273 61 73 29 21 7 5 48 54 49 22 19 16 32 38 28 17 13 10 5
0 0 0 2 540 1241 1571 1946 1604 1242 1033 966 872 810 895 929 773 817 660 531 531 156 32 13 3 2 1 2 2 8 36 45 28 4 26 24 29 18 33 10 21 10 2
0 0 0 0 0 664 921 1299 1565 1055 800 845 1029 913 759 571 511 410 337 372 139 2 2 0 2 2 2 9 15 20 31 49 42 16 45 22 26 17 16 22 25 9 3
0 0 0 0 0 20 578 866 1454 703 485 598 844 936 813 619 350 230 311 123 1 2 2 1 1 2 1 1 8 8 30 32 27 7 32 29 12 15 28 19 13 4 0
0 0 0 0 0 27 447 1001 804 636 364 360 446 767 743 520 343 303 302 36 2 1 1 2 2 0 1 1 0 3 2 24 19 22 16 40 41 24 20 9 29 23 22
0 0 0 0 0 29 476 796 505 495 322 408 560 613 654 514 371 207 82 5 2 2 3 2 3 0 0 0 0 6 0 3 24 30 44 54 46 25 34 12 18 8 14
0 0 0 0 0 22 263 720 543 388 556 705 656 560 351 410 153 157 29 4 2 2 1 1 1 1 1 1 0 0 3 8 50 54 34 24 29 13 24 27 16 25 35
0 0 0 5 74 54 271 508 633 349 803 746 834 699 262 263 195 28 17 6 4 2 2 2 2 2 1 2 7 3 3 23 30 63 62 29 11 33 11 25 18 31 26

GFSSE_con_mlcape_114.txt.gz
CAPE
1054 327 395 715 807 802 777 832 1027 1017 1113 1135 1064 995 991 1004 1147 1191 1237 1386 1569 1760 1737 1611 1434 1323 1240 1122 984 854 978 960 1031 1000 954 850 765 678 638 533 612 589 602
849 300 372 636 776 834 770 709 815 1144 1236 1211 1129 1112 1053 1120 1187 1337 1336 1340 1518 1632 1697 1582 1433 1386 1238 978 784 957 949 912 874 910 891 902 796 719 571 652 591 579 564
233 123 430 538 637 659 656 772 964 1283 1399 1323 1223 1258 1205 1199 1239 1383 1399 1358 1449 1520 1600 1578 1548 1500 1355 1030 929 965 925 852 746 714 702 741 855 782 701 568 594 584 543
405 338 479 429 524 612 693 914 1166 1518 1600 1514 1373 1431 1287 1305 1370 1408 1448 1304 1481 1656 1596 1614 1693 1645 1342 1030 917 897 886 793 728 667 730 725 666 573 652 627 677 632 526
697 925 600 443 528 647 748 1015 1358 1639 1701 1699 1576 1500 1427 1398 1477 1564 1550 1374 1677 1785 1728 1810 1754 1388 1122 1022 956 907 830 695 698 775 605 623 613 663 815 770 493 368 390
758 1327 370 492 566 658 785 1059 1352 1668 1781 1821 1691 1651 1606 1607 1637 1626 1566 1509 1748 1864 1665 1946 1134 665 990 992 970 874 646 629 773 569 567 579 523 744 510 286 371 276 200
1058 1336 546 487 586 691 812 1134 1466 1658 1780 1773 1741 1762 1778 1763 1640 1621 1568 1567 1542 1482 1440 1242 1078 754 987 983 937 765 515 520 528 319 384 439 396 552 501 364 220 145 106
1689 1652 756 651 638 674 781 1067 1406 1603 1742 1787 1811 1807 1866 1782 1437 1604 1641 1521 1466 1431 1500 1184 1156 919 937 921 849 687 475 349 266 186 352 509 389 513 463 247 99 70 2
1835 2180 986 949 873 729 652 833 1210 1430 1676 1671 1845 1833 1928 1591 1338 1203 1516 1307 1193 1268 1064 1034 804 815 888 886 755 579 373 177 142 399 421 290 380 422 349 251 58 0 0
1528 2350 1645 1364 1179 966 803 734 938 1146 1443 1667 1844 1778 1961 1664 1446 1191 1113 1032 1098 1063 983 1044 456 638 721 619 537 388 159 143 77 311 407 211 364 447 272 114 22 0 0
1439 1711 2234 1985 1596 1394 1273 951 844 943 1155 1410 1719 1798 1743 1767 1591 1379 1111 928 862 872 813 665 524 509 441 419 79 239 101 103 261 150 312 145 249 270 133 12 2 1 0
1389 1317 1931 1941 1930 1914 1695 1612 1128 1112 1058 1250 1526 1708 1414 1769 1534 1369 1197 864 786 590 307 376 421 255 375 89 47 144 17 186 137 143 168 151 144 136 30 7 5 3 1
1445 1159 1234 1745 2012 1952 1396 1808 1679 1776 1511 1405 1474 1671 1768 1723 1408 1228 1196 956 858 433 291 410 184 308 434 315 165 104 30 48 113 153 150 190 130 151 40 2 11 7 0
1099 1085 845 1580 1808 1812 1621 1728 1760 1639 1700 1598 1518 1363 1799 1753 1509 1317 1167 1061 933 760 476 444 339 384 530 345 225 194 71 84 59 95 122 155 173 143 51 21 13 14 1
484 974 822 1198 1830 2071 1745 1388 1462 1852 1719 1752 1625 1671 1606 1892 1633 1450 1294 1192 1005 922 627 453 495 500 366 314 267 305 72 31 37 11 28 112 76 66 7 21 19 20 0
5 570 964 1000 1664 1984 2043 1735 1285 2251 1869 1712 1739 1787 2136 1904 1621 1362 1259 1199 1060 1007 757 532 486 483 413 357 252 243 71 49 26 38 83 88 60 17 0 11 20 21 13
0 0 950 1321 1766 2102 2241 1832 2032 1691 2190 1597 1864 1768 1876 1896 1783 1488 1322 1202 1020 863 602 462 397 436 407 255 135 135 58 29 17 58 48 48 52 13 0 11 20 25 25
0 0 778 1501 1919 1937 2121 2159 1770 1777 1748 2053 1775 1456 1483 1882 1823 1449 1193 1109 1016 747 577 569 498 308 243 116 102 60 13 4 7 42 42 27 24 6 6 14 24 26 27
0 0 0 1347 2133 2102 2026 2276 2052 1783 1596 1485 1844 1696 1433 1530 1711 1360 1351 1225 988 670 503 398 324 241 144 77 62 28 5 1 4 43 34 32 36 3 8 26 35 24 18
0 0 2 529 1610 2304 2154 1917 2344 2017 1568 1441 1357 1402 1373 1095 1410 1312 962 1123 1015 735 407 339 197 209 95 53 45 26 17 3 28 21 18 32 38 15 18 21 23 23 15
0 0 0 0 854 1721 2064 2220 2064 2144 1588 1292 1232 1191 918 893 1007 888 805 891 627 419 138 87 9 17 12 25 11 24 8 21 17 33 30 20 5 15 23 12 11 12 9
0 0 0 0 0 429 1398 1438 1913 1961 1778 1275 1102 1121 1038 1040 1045 619 801 503 374 143 3 0 0 1 0 2 3 16 4 15 8 23 26 38 8 19 36 23 15 9 0
0 0 0 0 0 0 0 895 1111 1463 1093 864 746 621 1253 1054 785 611 485 313 147 5 0 0 1 0 0 1 1 4 1 2 11 15 26 26 13 7 20 29 17 4 0
0 0 0 0 0 0 6 140 953 1023 945 718 559 506 947 916 674 444 373 200 8 0 0 0 1 0 0 1 2 0 0 0 0 10 19 21 12 0 8 30 23 7 3
0 0 0 0 0 1 11 231 886 963 810 484 319 296 418 603 543 349 401 166 2 1 0 0 0 1 0 0 1 0 0 2 0 0 2 29 29 11 5 1 16 15 8
0 1 0 0 0 3 46 153 869 857 658 438 430 364 348 573 544 476 250 43 0 1 1 1 1 1 1 0 0 0 0 0 0 0 0 25 39 29 31 27 30 21 4

GFSSE_con_mlcape_117.txt.gz
CAPE
301 581 725 711 711 774 955 902 869 1007 1001 885 734 634 674 772 843 1082 1255 1480 1573 1623 1613 1482 1345 1209 1164 1055 902 845 911 906 856 1015 995 923 886 863 905 712 699 655 661
269 670 653 699 755 758 773 961 969 1047 1088 1021 878 769 807 877 922 1031 1219 1479 1576 1649 1637 1512 1445 1257 1170 932 894 920 947 927 875 828 879 994 902 930 839 679 668 689 632
33 543 720 696 707 714 732 795 1034 1137 1173 1144 1052 903 969 1033 1070 1069 1150 1464 1607 1748 1588 1501 1509 1432 1005 865 846 920 881 825 762 698 769 791 974 1047 771 714 724 652 555
9 372 622 534 583 665 731 814 954 1171 1268 1225 1175 1051 1075 1099 1181 1264 1220 1321 1608 1433 1448 1480 1528 1288 907 842 836 822 818 789 794 852 561 626 776 840 919 804 744 692 566
46 297 373 361 518 653 749 922 1057 1279 1366 1364 1306 1202 1183 1185 1321 1451 1307 1337 1697 1555 1492 1668 1597 1252 846 780 775 788 820 753 839 757 554 489 580 801 922 756 695 572 457
333 234 280 385 527 655 845 1048 1285 1488 1458 1519 1410 1410 1314 1350 1445 1495 1376 1488 1817 1739 1669 1734 1589 1165 904 809 770 739 729 664 665 479 421 623 431 832 667 484 425 399 325
549 107 280 410 529 708 953 1185 1373 1335 1464 1567 1525 1555 1499 1412 1345 1453 1450 1530 1610 1351 1496 1344 1308 878 852 765 752 661 680 634 391 269 366 416 523 694 529 484 376 351 108
682 74 371 534 598 704 875 1138 1326 1411 1492 1531 1554 1618 1636 1416 1287 1360 1469 1538 1518 1452 1192 1192 1093 679 783 767 730 516 584 480 174 232 300 224 517 645 676 497 343 190 29
1044 272 320 614 623 657 691 972 1176 1326 1429 1481 1556 1637 1666 1412 1276 1354 1472 1484 1211 1066 903 997 825 719 759 726 691 535 545 369 161 129 0 231 496 708 594 430 265 42 0
1290 708 282 480 541 516 643 816 985 1150 1332 1267 1600 1633 1681 1508 1283 1257 1383 1350 1141 1018 892 886 564 603 655 680 670 533 410 218 133 159 147 180 376 619 513 341 182 3 0
1688 1270 456 485 427 451 475 698 859 1043 1260 1219 1622 1314 1618 1539 1333 1256 1199 1062 1096 957 845 780 344 525 692 571 439 413 204 101 113 173 41 136 371 520 394 306 68 1 0
1469 1573 1201 637 500 550 650 572 606 822 971 1218 1492 1297 1580 1554 1385 1269 1101 996 1004 876 810 611 296 436 491 235 139 64 157 167 146 125 114 125 358 442 281 200 43 5 0
1244 1442 1643 1297 947 833 1008 585 524 645 746 951 1159 1365 1345 1470 1412 1299 989 873 751 726 667 462 313 136 174 166 32 0 68 25 127 48 53 98 176 306 149 66 40 17 5
1326 1249 1600 1675 1573 1416 1448 1353 924 669 680 654 950 1295 1210 1136 1173 1175 1038 855 661 408 323 251 145 80 287 194 51 0 62 26 76 10 0 1 84 181 147 92 27 23 15
1278 1200 1273 1527 1667 1700 1334 1581 1294 1121 1072 1102 1068 1213 1601 1403 1181 1072 1024 887 808 522 345 286 126 65 157 274 166 119 85 38 21 19 18 31 45 109 176 117 61 27 20
1285 1162 1039 1315 1625 1615 1419 1426 1395 1394 1419 1415 1252 1224 1073 1573 1500 1270 1044 951 809 756 562 420 295 169 257 193 176 176 121 38 17 1 0 10 42 76 116 107 41 33 23
18 1066 811 1208 1547 1514 1357 1468 1312 1543 1481 1449 1443 1466 1316 1329 1570 1346 1155 1013 910 835 672 461 370 281 248 175 203 148 113 33 5 16 19 13 38 54 60 22 40 26 29
0 0 772 1071 1568 1803 1607 1325 1515 1671 1656 1532 1715 1600 1698 1682 1580 1386 1185 1019 929 786 594 498 371 272 239 173 103 89 51 24 15 3 32 16 38 31 7 17 20 24 28
0 0 440 1074 1370 1694 1848 1656 1308 1463 1826 1759 1464 1539 1440 1729 1710 1447 1245 1066 949 721 469 347 221 169 160 133 81 32 30 19 22 3 48 16 12 4 6 18 1 15 23
0 0 18 977 1417 1681 1871 1850 1746 1400 1396 1614 1661 1552 1332 1314 1398 1443 1246 1105 912 678 475 393 337 132 116 66 62 13 9 2 1 6 29 14 3 6 10 13 6 21 20
0 0 0 1532 1669 1744 1865 1810 1827 1705 1545 1329 1204 1451 1428 1203 1218 1180 1299 958 988 723 456 366 278 116 33 19 9 6 12 19 14 4 12 5 4 16 13 0 6 30 25
0 0 0 1369 1984 1901 1881 1783 1620 1612 1684 1621 1184 1027 1188 1222 1045 990 1025 744 725 716 384 189 78 6 7 0 0 0 5 1 4 14 0 4 14 2 4 0 7 13 16
0 0 0 0 713 1573 1687 1741 1571 1403 1324 1442 1155 977 871 867 832 820 743 535 524 390 187 8 0 0 1 2 3 0 0 1 0 0 0 8 7 15 10 2 5 4 8
0 0 0 0 0 0 62 1193 1295 1262 1124 1364 1140 872 815 954 882 759 635 440 391 179 36 1 1 0 0 1 4 0 0 0 0 1 0 5 3 7 12 9 4 10 5
0 0 7 0 0 0 0 0 494 832 1000 957 883 790 640 633 902 907 639 407 273 110 1 0 0 3 1 1 3 0 0 0 0 0 0 6 9 12 21 26 22 11 9
0 0 0 0 0 0 0 0 139 567 650 688 615 544 478 393 605 652 547 327 148 56 0 1 0 0 4 0 1 0 0 0 0 0 0 0 1 4 21 31 27 16 11

GFSSE_con_mlcape_120.txt.gz
CAPE
571 660 849 870 820 751 745 794 761 669 580 411 431 554 696 956 1133 1268 1393 1476 1509 1508 1401 1196 1156 1122 1014 909 851 908 849 797 879 1065 1276 1273 1288 1206 1077 952 870 841 782
390 734 757 871 919 844 804 846 894 817 770 597 578 606 689 958 1101 1340 1485 1585 1659 1609 1461 1285 1278 1291 1204 1006 907 954 864 958 1062 1134 1232 1278 1271 1166 1024 896 845 824 788
398 733 786 753 799 903 923 923 976 970 940 784 717 710 753 848 1064 1245 1361 1499 1595 1569 1525 1437 1372 1097 1025 925 849 896 998 1029 983 1054 1038 915 1205 1168 1013 922 879 800 787
283 615 742 716 760 757 874 962 1031 1087 1047 936 839 868 912 937 971 1141 1368 1553 1502 1512 1575 1498 1376 1080 939 890 860 924 974 885 885 805 735 980 1126 1124 1047 934 858 826 693
308 632 695 746 742 674 692 887 1057 1181 1121 1045 957 990 1030 1102 1037 1045 1272 1591 1316 1354 1518 1661 1516 1054 876 862 873 909 926 969 699 540 506 736 835 1135 974 902 873 733 667
226 497 641 716 629 647 712 872 1080 1181 1178 1132 1094 1102 1140 1218 1218 1102 1143 1514 1398 1302 1469 1713 1385 880 776 772 842 858 871 667 515 461 493 560 641 1012 949 849 729 585 409
97 320 556 626 598 708 866 992 1140 1240 1286 1242 1245 1194 1176 1192 1260 1175 1158 1462 1507 1387 1421 1421 1067 795 760 744 762 636 652 525 297 337 390 407 576 980 896 700 546 390 318
7 249 578 678 713 772 882 1071 1156 1014 1295 1338 1345 1278 1182 1192 1261 1277 1180 1424 1462 1335 1379 1281 899 689 717 683 725 536 489 355 169 277 221 235 492 849 759 635 464 265 123
26 139 410 698 818 805 849 1012 1059 1176 1349 1355 1391 1367 1218 1153 1222 1261 1232 1345 1338 1187 1238 1156 801 666 732 668 685 358 349 170 121 114 193 150 439 707 774 646 278 142 41
60 106 179 448 794 929 1060 1017 1077 1188 1282 1340 1370 1470 1326 1161 1128 1196 1204 1276 1193 1026 995 895 739 596 666 660 672 424 254 147 30 0 37 163 329 499 662 500 331 109 8
110 38 145 265 461 664 875 1108 1127 1182 1229 1342 1437 1503 1495 1326 1228 1242 1232 1249 1115 990 853 809 656 377 596 690 657 243 138 56 83 107 31 201 365 662 616 409 185 28 0
678 138 66 164 273 447 735 1031 1042 1210 1243 1093 1366 1107 1312 1412 1207 1222 1191 1215 1055 951 791 713 459 306 597 594 350 181 97 50 126 23 1 144 353 590 534 305 116 11 1
921 752 253 201 300 341 452 521 667 940 980 946 1250 895 1111 1483 1288 1171 1024 1044 914 936 756 661 423 288 466 430 59 55 65 88 114 36 22 202 279 636 495 223 99 15 4
1221 1042 836 323 289 394 449 301 378 458 569 709 1085 1114 950 1253 1202 1044 909 861 790 696 599 511 275 172 240 192 91 0 17 52 66 40 93 158 213 387 444 228 108 43 7
1045 1248 1010 692 250 353 523 318 301 333 382 459 688 1038 1069 951 1060 1004 881 735 657 462 452 359 197 58 37 101 85 9 0 18 41 8 34 96 109 287 375 231 189 124 34
1107 1104 1362 1147 782 434 443 596 475 483 383 398 457 715 979 950 901 942 946 811 687 443 323 263 148 48 53 102 129 65 30 27 26 8 0 5 79 104 163 170 144 158 74
1109 1157 1350 1446 1420 1202 919 1173 989 1014 881 637 665 770 913 1219 1204 1015 890 847 805 632 395 275 168 91 127 103 122 84 60 23 10 0 1 20 69 87 75 94 135 135 68
1044 1154 1168 1592 1546 1529 1406 1202 1145 1219 1249 1228 1134 983 1012 1079 1410 1305 1062 909 786 685 547 469 379 243 208 203 97 82 24 0 0 4 0 1 6 43 61 50 77 88 35
0 502 913 1318 1517 1597 1526 1322 1128 1300 1445 1399 1333 1196 1247 1138 1125 1326 1243 994 860 730 620 546 422 347 239 172 90 43 8 1 0 5 6 4 0 26 26 51 75 58 30
0 0 141 831 1404 1634 1611 1397 1264 1378 1401 1344 1460 1525 1391 1355 1230 1286 1225 1114 852 706 563 502 459 194 304 206 61 39 4 2 4 8 13 11 11 5 3 26 33 46 29
0 0 0 246 1023 1570 1681 1596 1264 1429 1549 1612 1537 1552 1422 1469 1473 1420 1327 1163 920 752 571 391 317 314 192 113 29 17 7 6 2 1 12 7 11 2 1 4 12 25 11
0 0 0 239 1106 1520 1684 1793 1572 1177 1267 1491 1609 1548 1392 1298 1398 1460 1382 1224 1055 762 553 456 408 178 63 58 51 7 20 2 7 5 1 3 11 4 2 9 21 3 0
0 0 80 694 1380 1647 1716 1707 1425 1135 935 1117 1189 1352 1368 1326 1187 1219 1120 857 824 681 604 564 336 163 26 7 8 4 2 4 5 4 1 4 6 2 4 22 11 3 8
0 0 519 1262 1368 1319 1456 1501 1330 1199 944 1234 1325 1142 1097 1136 1100 1042 928 775 696 648 591 390 147 75 15 2 19 5 0 0 3 1 1 2 1 0 0 9 7 2 8
0 0 0 0 0 0 0 30 1149 1663 1323 855 981 1066 1048 912 999 1035 909 722 491 360 330 263 104 26 8 0 3 2 3 0 0 0 1 2 1 1 1 1 10 1 0
0 0 0 0 0 0 0 0 0 29 344 856 1024 976 843 820 906 830 793 604 421 321 150 112 53 8 0 1 1 5 0 3 0 0 0 1 1 1 1 6 3 0 0

GFSSE_con_mlcape_123.txt.gz
CAPE
375 572 762 805 784 639 558 474 372 275 330 448 570 789 1067 1227 1216 1235 1307 1468 1514 1398 1440 1214 1173 1134 1027 870 922 921 865 817 1014 1187 1350 1360 1381 1316 1147 1048 1009 968 918
498 701 860 891 821 758 709 605 518 388 405 510 617 739 907 1071 1138 1195 1335 1471 1462 1484 1469 1300 1243 1178 1066 942 981 992 1023 1061 1158 1101 1162 1414 1322 1318 1098 1023 949 961 951
560 790 987 926 862 870 867 790 713 589 513 528 614 758 919 1139 1274 1339 1381 1487 1541 1558 1493 1340 1340 1302 1100 980 981 1059 1123 1164 1240 1081 1105 1108 1181 1154 1139 999 936 1012 1019
650 815 993 991 971 954 964 908 872 819 614 575 645 796 917 1140 1256 1336 1420 1483 1519 1568 1636 1521 1297 1027 870 913 987 1011 1006 999 992 910 980 997 939 1101 1122 1015 1054 1033 967
729 780 845 932 999 1065 1035 977 985 985 751 674 708 792 864 1046 1242 1355 1460 1354 1533 1557 1669 1568 1120 875 864 900 946 976 892 822 727 721 722 694 862 1116 1084 999 966 846 769
601 729 777 778 848 1039 1073 1060 1082 1018 872 764 785 836 856 934 1131 1334 1439 1405 1886 1621 1691 1379 909 760 775 817 902 937 696 563 471 576 699 786 806 1182 1130 957 845 649 562
447 633 728 733 762 871 1027 1092 1158 1039 937 867 898 934 975 989 980 1199 1350 1282 1328 1526 1547 1200 752 652 672 793 802 875 501 573 368 425 435 462 686 1146 1126 888 670 399 469
143 431 584 730 751 858 968 1057 1058 986 1002 993 965 983 1024 1124 1033 1001 1278 1389 1285 1403 1299 938 654 609 646 721 677 692 452 313 308 301 335 352 437 1073 1085 809 477 370 304
213 285 503 641 870 914 937 925 1000 1063 1088 1102 1059 1011 1028 1106 1099 1043 1221 1459 1314 1369 1183 838 491 487 672 659 518 467 394 199 133 229 225 332 643 974 908 479 335 238 134
157 220 359 638 929 955 994 996 898 1057 1191 1183 1159 1070 1059 1077 1146 1152 1186 1424 1254 1177 1153 940 579 463 656 702 480 343 232 119 83 158 142 223 681 892 862 554 368 194 98
113 206 371 582 743 800 1048 1092 1023 1177 1283 1241 1225 1192 1114 1070 1173 1195 1218 1330 1243 1116 1035 907 735 520 620 704 556 328 193 119 0 96 52 259 568 848 866 561 330 145 36
0 85 311 382 499 674 892 1170 1253 1374 1362 1348 1285 1335 1183 1048 1040 1118 1143 1270 1191 988 913 715 599 374 529 385 350 306 92 72 0 0 22 201 368 876 784 566 278 109 1
0 37 261 330 307 538 753 1015 1016 1176 1234 1250 1201 1249 1253 1122 1020 1073 1058 1175 1151 1000 781 715 496 258 357 343 200 99 63 44 98 43 1 207 606 843 680 544 182 116 13
0 0 130 255 291 368 490 730 849 876 917 905 1124 935 918 1175 998 905 850 928 1035 864 684 577 361 185 187 227 62 38 49 17 45 30 0 173 491 638 641 484 223 133 15
375 73 11 160 154 268 314 311 446 575 630 565 923 874 733 1062 977 869 799 725 729 646 647 457 311 142 40 143 33 0 0 5 49 30 3 143 314 344 661 522 312 160 76
1025 725 316 51 122 205 189 177 156 294 451 576 785 895 798 838 810 785 736 697 598 534 501 426 285 155 10 0 0 0 0 0 2 0 4 144 279 256 156 460 310 193 146
1105 1153 914 456 190 157 230 206 208 249 299 293 416 739 898 864 727 750 713 672 590 462 392 325 236 94 17 0 0 4 0 0 0 0 0 1 85 44 108 173 244 202 162
1016 1080 1290 1324 757 330 326 481 362 314 315 327 358 529 743 814 797 655 672 729 628 487 350 310 245 158 66 24 19 40 13 0 0 0 0 0 0 28 72 73 137 124 114
998 1069 1140 1596 1326 968 693 643 637 636 639 593 490 437 511 726 908 914 848 707 675 624 479 408 288 256 210 108 56 13 17 8 0 0 0 0 0 29 60 34 56 61 60
568 1071 1150 1418 1596 1555 1431 1061 959 998 1058 1054 971 811 811 732 900 1084 1117 928 752 641 533 432 492 257 342 235 113 49 8 0 0 1 1 2 0 3 16 51 35 52 70
0 122 1059 1138 1460 1620 1608 1359 1192 1155 1141 1165 1238 1319 1225 1017 960 1010 1098 1054 970 841 649 474 389 403 375 249 131 86 13 12 7 10 9 10 8 8 0 28 18 44 46
0 0 35 414 832 1360 1644 1530 1401 1357 1256 1261 1288 1448 1376 1290 1226 1118 1077 1099 1134 904 605 466 557 375 293 217 128 71 9 1 8 14 20 19 17 15 2 5 13 32 31
0 0 0 0 210 973 1606 1463 1184 1074 1030 1183 1292 1499 1480 1363 1385 1336 1221 1201 1154 922 700 447 491 412 269 135 86 13 19 5 8 4 6 18 11 2 3 1 1 12 17
0 0 5 139 571 1060 1360 1391 1457 1350 1196 1245 1303 1586 1392 1263 1371 1420 1336 1304 1269 1056 804 528 487 441 263 167 70 31 0 0 4 6 3 10 24 8 3 2 0 5 20
0 0 0 0 0 139 633 979 903 817 666 431 937 1072 1152 1279 1263 1252 1321 1214 1068 875 650 533 422 323 224 82 45 12 1 7 6 2 2 6 5 12 2 2 1 4 20
0 0 0 0 0 0 0 0 0 11 7 253 549 986 1066 895 983 1087 1108 1037 922 770 638 507 241 288 191 55 18 8 1 4 10 2 9 3 2 1 1 1 0 6 2

GFSSE_con_mlcape_129.txt.gz
CAPE
477 729 712 772 576 357 364 447 570 857 1129 1091 931 806 817 882 1004 1015 1193 1264 1372 1471 1364 1050 901 977 1036 979 920 877 934 927 1162 1355 1509 1509 1372 1354 1332 1138 1090 1070 958
632 842 757 794 631 403 311 456 634 891 1139 1149 1006 952 949 1034 1116 1189 1262 1335 1446 1407 1241 1106 992 1023 1021 923 881 852 1021 1097 1013 1144 1083 1068 1075 1096 997 869 967 954 1067
778 876 938 841 684 536 394 479 779 1060 1213 1200 1083 1034 1127 1164 1171 1400 1327 1401 1446 1424 1262 1120 1093 1085 1018 924 882 952 1081 1182 1086 1025 863 1083 1047 1120 1156 1025 873 857 782
894 870 1115 903 783 667 518 523 865 1147 1226 1208 1214 1304 1255 1272 1232 1452 1339 1351 1447 1502 1384 1276 1209 1065 970 888 936 1040 1052 1041 1014 954 1125 1180 1235 1085 1085 924 767 883 880
994 1033 1231 967 868 792 677 640 767 1091 1209 1284 1396 1357 1298 1333 1332 1396 1374 1338 1384 1447 1479 1340 1135 877 807 855 945 926 897 907 840 975 1054 1125 1152 1225 1091 747 802 690 776
1155 1149 1172 1017 1000 911 806 798 805 863 1059 1230 1330 1359 1368 1388 1402 1351 1466 1443 1464 1415 1343 1148 803 678 701 746 750 706 685 764 826 988 976 921 1060 1268 766 905 798 762 698
1297 1292 1278 1085 1087 1070 1017 948 845 802 865 988 1146 1241 1352 1403 1370 1325 1427 1537 1525 1410 1080 789 627 611 608 549 528 485 521 613 962 982 1042 1141 1095 1176 1083 839 708 572 483
1314 1409 1422 1197 1175 1204 1203 1095 872 792 835 942 1062 1201 1325 1360 1315 1320 1415 1505 1520 1229 748 525 528 571 546 392 339 341 342 485 796 937 1037 1083 948 1124 1135 805 499 357 271
1256 1364 1445 1473 1347 1271 1308 1225 912 796 809 903 996 1121 1221 1254 1300 1367 1529 1512 1423 901 492 424 468 573 580 413 342 381 292 313 743 740 790 897 839 884 1122 722 420 447 337
1153 1352 1400 1544 1639 1586 1513 1279 1032 859 843 868 909 994 1067 1165 1299 1346 1518 1478 1276 787 388 328 347 500 532 514 308 198 234 151 622 682 693 689 839 791 1146 711 414 298 200
865 1131 1300 1359 1419 1571 1464 1477 1195 988 884 908 921 917 959 1356 1432 1383 1411 1293 1143 732 343 241 289 406 425 353 360 303 188 385 485 629 666 419 713 706 1040 647 326 248 136
600 795 1063 1183 1298 1359 1219 1423 1568 1455 1277 1281 1332 1299 1419 1394 1402 1473 1405 1166 1138 837 398 163 201 341 447 674 410 165 460 395 398 541 598 291 742 863 809 348 213 204 150
570 752 944 1036 1215 1013 930 1206 1385 1451 1464 1489 1469 1505 1485 1414 1288 1224 1537 1454 1399 1068 892 397 304 509 686 634 620 490 439 386 369 509 392 145 478 958 667 222 284 333 163
105 427 822 1003 968 870 971 1049 1168 1188 1184 1221 1258 1246 1231 1195 1310 1345 1283 1610 1484 1262 1148 971 826 585 494 255 597 568 406 384 265 207 232 0 203 617 907 813 630 362 140
5 163 492 739 799 798 1009 931 955 1035 1206 1123 1129 1072 1132 992 1027 1147 1312 1403 1453 1259 1127 878 663 458 354 286 364 433 370 329 295 306 335 0 43 128 562 820 749 475 203
58 10 353 493 566 621 812 959 937 962 1016 1083 1106 1082 1035 1012 936 940 1039 1212 1299 1252 1031 907 605 421 346 285 248 295 276 282 278 218 257 293 0 27 136 302 568 557 356
75 96 55 282 485 526 733 903 849 760 856 859 915 1056 1026 1024 919 830 809 944 1165 1149 1009 878 667 411 325 234 238 165 197 181 180 142 207 274 172 0 34 92 175 301 366
262 391 89 197 390 688 711 686 702 822 678 718 641 756 975 1016 904 717 685 745 1006 993 988 825 692 537 417 279 232 189 118 135 163 155 119 112 176 297 113 40 56 64 156
13 665 341 169 299 627 750 535 463 489 497 466 422 498 747 839 709 637 610 732 834 872 764 759 583 593 347 197 179 48 21 22 121 181 174 138 54 29 300 126 39 45 39
0 766 885 392 237 556 845 729 554 387 350 327 304 382 546 608 585 602 989 567 778 781 687 619 534 444 395 356 132 50 30 25 62 268 94 1 13 66 11 102 86 54 40
0 470 1261 1003 482 500 618 568 509 316 450 467 549 669 652 659 521 844 724 743 728 652 588 528 564 421 270 156 113 78 59 55 55 206 305 83 2 1 19 63 83 39 44
0 134 1169 1502 1200 627 496 651 659 599 619 615 614 695 641 715 648 711 646 633 587 589 563 490 511 355 302 145 206 167 170 60 27 11 89 116 123 202 140 40 49 51 66
0 0 669 1368 1626 1308 1018 948 812 887 770 701 562 592 617 672 718 731 699 562 529 652 594 506 579 646 353 163 265 368 100 57 21 2 7 50 4 17 30 113 48 49 44
0 0 23 1171 1702 1764 1595 1402 1119 1030 1010 962 836 694 746 832 815 776 830 767 671 722 799 678 590 696 554 293 159 182 5 15 20 2 1 0 2 3 9 1 8 28 24
0 0 0 780 1323 1729 1829 1768 1590 1584 1641 1560 1247 944 1064 956 761 573 399 381 611 663 900 797 695 748 722 584 265 157 68 0 0 1 17 0 1 0 1 5 3 4 8
0 0 0 0 0 49 631 1315 1661 1494 1308 1302 1339 1025 928 756 244 42 0 0 41 523 774 767 777 716 746 638 401 216 133 62 30 10 10 13 0 0 0 5 6 6 15

GFSSE_con_mlcape_132.txt.gz
CAPE
703 1399 935 611 465 521 706 913 1216 1074 906 850 896 923 918 1009 1141 1237 1245 1222 1183 1293 1277 1119 1105 1182 1237 1162 980 1044 952 1186 1351 1553 1540 1267 1069 833 940 958 1108 1136 1083
787 1391 893 686 490 482 693 853 1209 1135 1097 1053 932 966 1023 1069 1198 1222 1254 1239 1310 1379 1178 1054 1133 1249 1142 943 877 894 991 1173 1316 1287 1223 1280 1148 643 368 889 916 1069 975
1030 1380 1066 832 538 488 653 923 1223 1375 1323 1233 1003 994 1055 1155 1269 1138 1345 1392 1400 1401 1350 1148 1165 1183 1040 906 910 1035 1066 1147 1160 914 931 1092 906 739 944 991 932 842 870
1255 1508 1420 938 598 476 641 912 1250 1512 1453 1247 1065 1080 1184 1304 1259 1299 1440 1413 1430 1389 1317 1261 1267 1181 969 877 959 1011 1046 940 782 596 1136 958 884 887 887 967 786 649 727
1421 1591 1676 1020 687 527 680 955 1203 1475 1435 1309 1196 1267 1341 1432 1363 1424 1436 1402 1481 1500 1471 1418 1264 991 832 862 868 897 879 826 749 987 981 1119 1121 972 918 834 644 596 738
1531 1588 1606 1069 843 608 674 1007 1246 1373 1372 1302 1277 1466 1498 1512 1449 1416 1441 1404 1515 1575 1577 1482 1021 767 737 810 778 761 740 665 644 794 884 984 1146 903 979 907 843 722 602
1722 1753 1746 1146 949 749 696 948 1227 1307 1332 1355 1537 1548 1542 1564 1490 1366 1379 1364 1435 1493 1443 1083 683 627 689 650 613 578 601 526 735 674 798 886 1166 1089 1071 821 691 731 569
1964 2031 1984 1309 1067 910 867 856 998 1212 1349 1561 1604 1561 1514 1521 1395 1396 1374 1432 1407 1350 1026 605 527 548 504 458 395 378 416 544 620 745 773 921 990 1190 1117 812 629 536 408
2138 2310 2245 1812 1430 1083 1004 873 759 926 1243 1445 1528 1549 1454 1423 1264 1392 1456 1548 1369 1069 627 489 468 446 343 266 231 210 263 401 687 673 606 798 737 1138 963 681 452 309 236
2014 2210 2312 2093 1900 1762 1511 960 780 803 975 1150 1321 1446 1426 1289 1246 1354 1485 1518 1205 716 462 459 453 414 287 246 236 166 130 175 588 627 656 834 448 496 885 643 440 366 280
1844 2077 2224 2229 2067 2029 1959 1534 922 820 914 1046 1259 1411 1386 1426 1555 1590 1586 1476 1043 536 407 417 434 456 367 209 145 155 94 313 427 506 647 363 583 613 570 442 386 289 205
1816 1850 2037 2140 2045 1969 1765 1876 1555 1311 1207 1275 1329 1563 1406 1502 1593 1601 1696 1423 1071 501 354 350 379 385 368 628 471 177 331 468 501 487 522 193 689 851 574 398 299 197 138
1384 1588 1699 1930 1962 1885 1523 1695 1609 1614 1431 1439 1457 1527 1411 1664 1702 1582 1725 1565 1389 711 523 362 458 551 584 750 679 504 516 666 498 520 357 173 486 789 738 381 228 82 120
286 1429 1405 1500 1762 1789 1378 1478 1706 1655 1602 1560 1656 1814 1653 1762 1743 1587 1632 1466 1402 1086 871 502 460 513 896 874 843 817 790 577 502 476 401 74 163 419 621 389 147 320 269
0 802 1177 1227 1478 1635 1534 1253 1480 1545 1613 1562 1666 2073 1845 1736 1796 1662 1723 1575 1502 1297 1149 1000 882 873 913 801 738 850 758 711 651 398 362 43 0 84 566 610 471 628 373
0 76 797 1038 1286 1416 1386 1349 1462 1574 1480 1573 1609 1877 1886 1807 1798 1848 1794 1653 1575 1521 1371 1286 1147 1055 888 785 740 741 692 618 619 527 406 348 0 0 15 374 263 447 435
0 0 113 926 1084 1198 1228 1431 1389 1327 1396 1435 1536 1642 1772 1905 1796 1742 1683 1686 1568 1643 1405 1303 1160 1059 916 845 801 798 714 683 608 621 512 371 353 0 0 2 97 225 309
0 0 8 512 884 990 1060 1265 1330 1226 1366 1375 1523 1629 1490 1571 1779 1670 1542 1505 1533 1699 1608 1403 1269 1107 925 843 799 777 717 695 645 672 623 513 430 437 86 0 12 70 97
0 0 0 423 812 887 934 1124 1371 1209 1254 1341 1398 1404 1544 1463 1535 1561 1402 1333 1662 1636 1451 1397 1280 1133 963 897 814 872 838 733 510 541 604 513 464 412 458 171 0 21 32
0 0 0 105 897 949 907 1092 1207 1232 1300 1248 1319 1410 1442 1310 1354 1242 1322 1119 1420 1414 1421 1388 1296 1262 1151 1065 772 773 810 612 439 354 545 501 464 349 452 413 409 56 0
0 0 0 0 924 1192 1051 919 838 942 953 987 1053 901 1064 1071 1184 1046 1242 1069 1463 1275 1205 1239 1168 1063 1130 1068 977 581 523 643 431 352 479 456 283 316 361 431 396 314 107
0 0 0 0 756 1155 1221 1178 1032 1076 838 656 640 689 799 763 793 805 1141 1261 1192 1189 1311 1022 1210 903 825 901 693 651 377 289 248 456 301 257 328 298 170 273 289 351 273
0 0 0 0 223 1111 1178 1254 1105 1194 898 694 703 849 1124 1138 993 608 1016 1172 1201 1240 1183 921 1010 875 620 574 1089 549 531 369 455 317 272 260 214 90 262 213 253 279 202
0 0 0 0 5 1070 1248 1179 918 959 809 752 923 890 950 1101 1082 1236 1299 1164 1134 917 830 700 775 1019 993 715 635 937 788 634 406 268 152 160 194 127 66 62 141 208 52
0 0 0 0 0 931 1513 1280 1172 963 978 938 975 1040 1157 1094 1118 1165 1239 1250 830 790 623 585 408 749 1183 1035 677 640 867 453 189 207 227 178 103 72 110 245 105 25 13
23 7 0 0 0 707 1554 1608 1504 1300 1486 1712 1797 1746 1402 1182 1084 1221 905 574 363 68 0 0 197 639 755 1014 923 691 789 555 352 269 133 131 287 254 167 165 146 18 8

GFSSE_con_mlcape_135.txt.gz
CAPE
781 1391 770 619 593 710 852 1126 1163 1052 779 691 693 764 696 792 998 1186 1272 1520 1340 1238 1376 1230 1112 1228 1178 1209 1104 1024 1050 1169 1329 1303 1331 1142 977 800 845 974 1044 1088 1089
857 1763 878 686 630 722 895 1140 1228 1111 916 876 906 886 878 985 1137 1327 1264 1405 1308 1392 1380 1269 1309 1410 1250 946 963 882 1094 1231 1395 1323 1258 1261 1146 1052 1020 977 875 912 876
851 1971 1174 743 663 776 941 1162 1290 1146 1102 1062 1035 1023 1002 1163 1273 1322 1359 1344 1568 1448 1305 1313 1401 1285 1052 840 892 996 1109 1207 1141 938 912 668 571 628 843 1032 922 791 627
1089 2005 1574 781 716 865 959 1132 1358 1284 1266 1257 1167 1131 1116 1223 1250 1323 1477 1495 1620 1538 1387 1450 1432 1234 970 872 972 988 999 973 616 370 1139 912 663 882 851 835 778 572 513
1423 2008 1761 822 738 891 1057 1166 1447 1472 1477 1434 1237 1247 1258 1324 1279 1433 1538 1536 1613 1521 1512 1590 1431 1074 833 798 870 859 710 497 359 540 933 862 793 846 1044 881 655 528 665
1682 1919 1687 925 762 879 1045 1188 1457 1590 1557 1520 1306 1393 1467 1395 1434 1438 1492 1531 1580 1564 1593 1531 1124 818 738 724 732 687 554 373 457 1081 697 872 980 979 923 835 655 735 558
1825 1962 1966 1084 836 802 1082 1258 1434 1518 1534 1435 1386 1465 1574 1503 1498 1391 1375 1586 1642 1652 1608 1244 799 650 703 666 624 544 373 283 788 435 496 812 1206 1015 1097 757 683 635 604
2004 2377 2414 1294 945 821 1000 1195 1349 1460 1496 1427 1432 1542 1614 1575 1456 1353 1352 1514 1590 1634 1370 830 563 589 631 535 437 399 246 375 456 328 549 1155 916 1043 1076 815 673 608 527
2307 2455 2497 1739 1299 841 931 1099 1225 1378 1409 1399 1487 1609 1606 1504 1374 1339 1423 1448 1496 1397 999 513 504 519 448 336 254 222 143 226 642 370 580 1068 764 768 881 766 599 500 339
2342 2468 2540 2064 1725 1381 1197 997 1137 1319 1360 1407 1627 1617 1555 1431 1376 1393 1500 1541 1534 1283 661 493 451 376 309 193 148 124 55 229 652 279 614 779 415 592 707 669 462 281 220
2222 2434 2594 2437 2146 1868 1753 1310 942 1230 1434 1548 1664 1615 1552 1552 1602 1635 1522 1627 1525 1027 546 487 433 298 185 157 142 105 33 171 448 312 538 370 343 569 630 448 401 315 212
827 2229 2428 2514 2450 2246 1986 1839 1253 1285 1467 1678 1731 1845 1557 1367 1408 1506 1440 1661 1348 807 522 455 453 353 213 444 336 136 213 462 318 390 342 199 322 608 501 452 368 292 185
0 1371 2277 2398 2508 2350 1994 1932 1575 1504 1329 1460 1549 1714 1427 1435 1622 1659 1763 1755 1445 778 691 516 531 618 551 856 705 498 428 658 508 341 319 215 318 606 607 401 339 286 175
0 1 2150 2355 2400 2496 1900 1715 1564 1469 1581 1616 1592 2028 1578 1514 1562 1703 1720 1640 1480 960 680 621 652 559 759 932 1031 843 665 642 537 500 263 114 245 427 707 446 190 148 49
0 0 620 2207 2416 2308 2296 1668 1506 1506 1492 1550 1789 2123 1949 1807 1666 1659 1851 1670 1444 1358 1059 906 707 718 732 801 785 756 767 663 746 587 647 84 25 133 493 594 451 308 249
0 0 0 1530 2177 2053 2128 2084 1707 1638 1585 1747 1868 2223 2244 2149 1990 1800 1867 1852 1718 1635 1231 1247 797 940 671 767 759 752 696 643 620 549 427 210 0 0 95 552 559 617 659
0 0 0 834 2000 2001 2072 2041 1746 1669 1648 1684 1698 2165 2449 2266 2032 1923 1875 1861 1859 1813 1485 1284 1303 1154 854 637 751 614 644 515 578 492 433 423 112 0 0 0 228 310 289
0 0 0 0 1112 2013 1983 1997 1740 1606 1671 1774 1681 1921 2330 2512 2253 2048 1877 1821 1871 1717 1488 1443 1090 1028 916 627 505 703 647 439 576 680 583 463 376 228 2 0 0 68 170
0 0 0 0 114 1546 1935 1868 1827 1762 1877 1736 1667 1719 2007 2018 2439 2252 1981 1942 1861 1846 1738 1519 1178 1052 1039 801 632 583 607 437 563 635 536 568 523 360 191 106 9 0 82
0 0 0 0 0 1238 1800 1714 1704 1922 1882 1638 1799 1656 2043 1708 1969 2365 1873 1968 1920 1997 1813 1799 1363 1338 1007 867 723 612 774 814 590 310 280 418 481 345 359 352 162 44 0
0 0 0 0 0 1 1587 1572 1612 1873 1892 1695 1708 1755 1805 1780 1640 1965 1966 1851 1562 1927 1778 1412 1469 1324 1158 1171 914 675 835 962 878 640 412 227 408 496 392 307 507 489 92
0 0 0 0 0 0 1374 1596 1578 1775 1893 1900 1864 1769 1731 1988 1538 1621 1576 1697 1229 1589 1627 1816 1241 1102 1183 1102 970 871 618 676 631 647 627 485 462 428 290 272 347 382 480
0 0 0 0 0 0 3 1624 1429 1512 1738 1594 1375 1475 1652 1770 1513 1414 1412 1700 1531 1530 1475 1903 1166 1063 907 1038 1164 719 602 399 341 872 622 587 473 376 256 218 205 269 345
0 0 0 0 0 0 0 1336 1366 1400 1439 1297 1136 1373 1303 1340 1266 1208 1249 1650 1738 1660 1252 1585 984 1049 885 817 785 999 985 930 557 448 608 406 454 378 378 132 259 282 264
0 0 10 0 0 0 0 347 1453 1352 1566 1310 1143 1209 1174 1605 1633 1332 1106 1552 1756 1816 1149 814 728 824 749 592 563 639 958 1000 951 579 336 367 377 253 350 307 266 211 160
0 0 0 28 0 0 0 187 1494 1386 1605 1300 1277 1423 1293 1641 1702 1779 1661 1633 1751 1265 882 661 503 181 264 376 563 716 565 648 755 577 570 448 379 348 215 290 372 378 154